     2.11           OBSERVATION DATA    G (GPS)             RINEX VERSION / TYPE
teqc 2010Oct21 OPUS Account 20111028 22:12:21UTC            PGM / RUN BY / DATE
Q 1522                                                      MARKER NAME
1170                                                        MARKER NUMBER
DBPROUTY NGS                                                OBSERVER / AGENCY
0220316069 TRIMBLE 5700 1.30                                REC # / TYPE / VERS
12469273 TRM41249.00 NONE                                   ANT # / TYPE
  -738054.4346 -5496299.4332  3140268.5706                  APPROX POSITION XYZ
        2.0000        0.0000        0.0000                  ANTENNA: DELTA H/E/N
     1     1                                                WAVELENGTH FACT L1/2
     5    L1    L2    C1    P1    P2                        # / TYPES OF OBSERV
    15                                                      LEAP SECONDS
  2011     9    21    17    37   30.0000000     GPS         TIME OF FIRST OBS
                                                            END OF HEADER
 11  9 21 17 37 30.0000000  0  7G24G07G08G11G17G26G28
  -1394467.64857  -1083133.51555  22281047.2664                   22281047.9064
   -337838.41858   -262124.69456  21818461.5634                   21818462.2624
  -1516564.15658  -1171937.75856  20191553.2504                   20191552.7774
   -587879.45357   -458231.67454  22497970.6644                   22497970.7814
  -2928438.20758  -2259491.80556  21171218.1174                   21171217.6254
  -1567486.05557  -1217247.22154  22899909.5314                   22899911.8524
  -2476801.86758  -1915256.88156  21519297.9844                   21519296.3794
 11  9 21 17 38  0.0000000  0  7G24G07G08G11G17G26G28
  -1460289.96947  -1134423.62045  22268521.8524                   22268522.8094
   -353385.63748   -274239.54146  21815502.5084                   21815503.7854
  -1585622.60548  -1225749.58546  20178411.5004                   20178410.9304
   -616301.33247   -480378.67544  22492562.6804                   22492562.2464
  -3066009.48048  -2366690.18446  21145038.8364                   21145039.1764
  -1639639.73847  -1273470.90944  22886179.7504                   22886181.5664
  -2596906.96548  -2008845.27046  21496442.5394                   21496440.9694
 11  9 21 17 38 30.0000000  0  7G24G07G08G11G17G26G28
  -1525859.45347  -1185516.73945  22256043.9924                   22256046.1764
   -368850.44147   -286290.15246  21812560.1484                   21812561.2544
  -1654398.61748  -1279341.32746  20165323.7974                   20165323.5944
   -644581.34047   -502415.11144  22487181.1094                   22487180.6884
  -3203510.42248  -2473833.73446  21118873.4304                   21118873.3054
  -1711558.23447  -1329511.38645  22872494.2034                   22872495.8324
  -2717256.41448  -2102624.06846  21473541.0784                   21473539.2234
 11  9 21 17 39  0.0000000  0  7G24G07G08G11G17G26G28
  -1591156.94947  -1236397.92045  22243618.8204                   22243619.8754
   -384214.84847   -298262.54545  21809636.2584                   21809637.2774
  -1722872.11348  -1332697.34646  20152293.9694                   20152293.9454
   -672702.37547   -524327.71344  22481830.0314                   22481829.6884
  -3340921.45348  -2580907.25546  21092725.0164                   21092724.7854
  -1783223.85547  -1385354.75644  22858856.5004                   22858857.7194
  -2837829.91048  -2196577.45946  21450596.7424                   21450594.7114
 11  9 21 17 39 30.0000000  0  7G24G07G08G11G17G26G28
  -1656170.00847  -1287057.50044  22231246.8054                   22231248.1564
   -399467.22747   -310147.62545  21806733.5474                   21806735.0664
  -1791030.08648  -1385807.49846  20139324.3284                   20139323.7074
   -700652.93747   -546107.45645  22476511.6414                   22476511.5164
  -3478229.41847  -2687900.45746  21066595.9774                   21066595.7814
  -1854625.04747  -1440992.09844  22845269.0394                   22845271.0394
  -2958613.33248  -2290694.41746  21427612.2034                   21427610.4884
 11  9 21 17 40  0.0000000  0  7G24G07G08G11G17G26G28
  -1720887.55547  -1337486.79945  22218931.3524                   22218932.8364
   -414597.68047   -321937.73046  21803854.8524                   21803856.0124
  -1858860.41448  -1438662.35746  20126416.4774                   20126416.0634
   -728423.65647   -567747.06745  22471226.7114                   22471226.6454
  -3615422.84448  -2794804.40146  21040489.0164                   21040488.8484
  -1925752.27747  -1496415.96244  22831734.1564                   22831735.5204
  -3079594.54348  -2384965.50346  21404590.2274                   21404588.6374
 11  9 21 17 40 30.0000000  0  7G24G07G08G11G17G26G28
  -1785303.76247  -1387681.30444  22206674.0784                   22206675.3054
   -429601.13347   -333628.85446  21801000.0864                   21801001.1254
  -1926356.92648  -1491257.08646  20113572.2664                   20113571.8634
   -756009.92647   -589242.95444  22465977.0864                   22465976.7074
  -3752495.15248  -2901613.98346  21014405.1804                   21014405.1334
  -1996600.42247  -1551622.34644  22818251.4144                   22818254.7194
  -3200765.87948  -2479384.73646  21381532.0634                   21381530.2704
 11  9 21 17 41  0.0000000  0  8G24G07G08G11G04G17G26G28
  -1849413.44547  -1437636.91545  22194473.8674                   22194476.4024
   -444473.37947   -345217.76345  21798169.8444                   21798170.5784
  -1993513.14548  -1543586.67246  20100792.7274                   20100792.1564
   -783407.98847   -610592.19644  22460763.7274                   22460763.5864
   -338758.23056   -227088.56053  24471717.9614                   24471725.3054
  -3889440.43447  -3008324.58446  20988344.9774                   20988345.1954
  -2067165.38747  -1606608.09744  22804823.4144                   22804826.2624
  -3322120.26648  -2573946.61446  21358439.2344                   21358437.4694
 11  9 21 17 41 30.0000000  0  8G24G07G08G11G04G17G26G28
  -1913219.23447  -1487355.75945  22182332.5784                   22182334.0744
   -459218.03947   -356707.24145  21795364.2274                   21795365.4454
  -2060330.86348  -1595652.47246  20088078.0864                   20088077.7544
   -810621.95347   -631797.93544  22455585.0084                   22455585.6764
   -553554.89546   -394462.17743  24430843.0634                   24430850.6334
  -4026260.64548  -3114937.71846  20962308.8524                   20962309.2704
  -2137451.00447  -1661376.16944  22791448.6174                   22791450.8874
  -3443659.37148  -2668652.42946  21335310.8364                   21335308.9414
 11  9 21 17 42  0.0000000  0  8G24G07G08G11G04G17G26G28
  -1976709.69147  -1536828.88445  22170250.2194                   22170251.8204
   -473824.57847   -368089.09445  21792585.0864                   21792585.8284
  -2126798.09448  -1647445.16046  20075429.6884                   20075429.2894
   -837641.32447   -652852.10544  22450443.6024                   22450444.0234
   -768640.27346   -562060.66843  24389913.4694                   24389920.4844
  -4162944.03947  -3221444.24846  20936299.1644                   20936299.1334
  -2207446.99647  -1715918.57444  22778129.4384                   22778131.6994
  -3565369.64847  -2763491.61246  21312150.3284                   21312148.7974
 11  9 21 17 42 30.0000000  0  8G24G07G08G11G04G17G26G28
   -464442.52747   -358438.94244  22458025.9304                   22458026.7384
   1087146.94547    848252.21745  22089628.0864                   22089629.0204
   -617471.70347   -471346.72546  20362645.0164                   20362644.4884
    710973.28547    553860.48344  22745135.1484                   22745135.1054
    591436.94546    497740.04043  24648728.1094                   24648733.2894
  -2724044.72747  -2100223.98946  21210112.7584                   21210112.3634
   -701711.53147   -542618.26144  23064661.5394                   23064663.2934
  -2111805.15247  -1630843.96046  21588754.3754                   21588752.9024
 11  9 21 17 43  0.0000000  0  8G24G07G08G11G04G17G26G28
   -527253.41047   -407382.54145  22446073.1094                   22446075.3204
   1072863.66447    837122.25945  22086909.9694                   22086911.3834
   -683186.43047   -522553.05746  20350139.5234                   20350139.3794
    684387.96147    533144.55044  22740075.8284                   22740076.5784
    375834.51246    329738.58443  24607699.2584                   24607705.7154
  -2860402.41847  -2206476.72446  21184164.6804                   21184164.3674
   -771081.84047   -596673.11844  23051460.4694                   23051462.8954
  -2233803.56247  -1725907.66446  21565538.7424                   21565537.2894
 11  9 21 17 43 30.0000000  0  8G24G07G08G11G04G17G26G28
   -589709.68447   -456049.82245  22434187.8674                   22434190.2664
   1058755.51647    826128.75845  22084225.5784                   22084226.2154
   -748508.62147   -573453.51246  20337709.5554                   20337709.1484
    658032.71547    512607.87444  22735060.9844                   22735061.6844
    159993.71146    161551.29443  24566625.9614                   24566632.0084
  -2996581.38747  -2312590.19446  21158250.4774                   21158250.0904
   -840125.90647   -650473.73944  23038322.3444                   23038324.0704
  -2355928.59847  -1821070.03046  21542299.1954                   21542298.0204
 11  9 21 17 44  0.0000000  0  8G24G07G08G11G04G17G26G28
   -651796.72347   -504429.38445  22422373.2114                   22422375.2664
   1044835.70747    815282.02645  22081576.9144                   22081577.8714
   -813423.25047   -624036.39046  20325356.6414                   20325356.4534
    631920.61747    492260.74444  22730091.7274                   22730092.1174
    -56067.17246     -6807.50143  24525510.2894                   24525516.9264
  -3132566.46547  -2418552.57446  21132373.5864                   21132372.9844
   -908830.64847   -704009.96344  23025248.1024                   23025250.1174
  -2478163.82047  -1916318.24646  21519038.4534                   21519037.4534
 11  9 21 17 44 30.0000000  0  8G24G07G08G11G04G17G26G28
   -713499.53547   -552509.56745  22410631.2274                   22410634.0824
   1031118.75447    804593.36745  22078966.3054                   22078968.1374
   -877914.88748   -674289.66646  20313084.5634                   20313084.2074
    606065.05947    472113.43044  22725172.0944                   22725171.8204
   -272329.70346   -175323.50443  24484357.3754                   24484361.5864
  -3268342.11748  -2524351.77346  21106535.9924                   21106535.6564
   -977182.18447   -757270.97144  23012241.4144                   23012243.1524
  -2600492.89547  -2011639.61246  21495759.8524                   21495759.0664
 11  9 21 17 45  0.0000000  0  8G24G07G08G11G04G17G26G28
   -774810.09847   -600284.08745  22398963.9924                   22398966.5354
   1017611.55547    794068.15045  22076396.4224                   22076397.7114
   -941974.29348   -724206.14846  20300894.2274                   20300893.9844
    580473.22347    452171.66544  22720302.1724                   22720302.1684
   -488781.94146   -343987.31443  24443167.6804                   24443173.1214
  -3403899.53548  -2629980.91446  21080740.8444                   21080740.0394
  -1045173.28147   -810251.12444  22999303.4144                   22999306.0984
  -2722905.66047  -2107026.18246  21472465.6414                   21472464.5354
 11  9 21 17 45 30.0000000  0  8G24G07G08G11G04G17G26G28
   -835720.94547   -647747.17245  22387374.0314                   22387375.7194
   1004321.05547    783711.78145  22073867.5164                   22073868.7234
  -1005593.18048   -773779.34946  20288788.2584                   20288787.7194
    555151.00847    432439.94144  22715483.4844                   22715483.1024
   -705412.76246   -512790.24443  24401943.9534                   24401949.6804
  -3539230.59848  -2735433.68846  21054987.9384                   21054987.4804
  -1112797.67647   -862945.52344  22986435.0474                   22986437.0004
  -2845393.02048  -2202470.87046  21449157.1094                   21449155.8014
 11  9 21 17 46  0.0000000  0  8G24G07G08G11G04G17G26G28
   -896228.06647   -694895.63845  22375859.6954                   22375861.6804
    991250.46947    773526.78745  22071379.8284                   22071381.1524
  -1068767.06648   -823005.81146  20276766.3524                   20276766.3054
    530101.69947    412920.89644  22710716.6644                   22710717.2624
   -922214.00046   -681726.09643  24360687.8754                   24360694.0274
  -3674330.12948  -2840706.04446  21029279.4534                   21029278.7624
  -1180052.40247   -915351.84244  22973637.4224                   22973638.9694
  -2967948.84848  -2297968.91346  21425835.4224                   21425834.1644
 11  9 21 17 46 30.0000000  0  8G24G07G08G11G04G17G26G28
   -956326.05147   -741725.27345  22364422.9304                   22364425.2304
    978404.42247    763516.75745  22068935.3754                   22068936.9844
  -1131489.65648   -871880.61346  20264830.5554                   20264830.9804
    505329.25047    393617.62744  22706002.9774                   22706003.0234
  -1139176.52346   -850787.47543  24319400.8444                   24319407.7234
  -3809192.22747  -2945793.37046  21003615.3444                   21003615.2894
  -1246933.05147   -967466.69744  22960910.2734                   22960911.4454
  -3090565.64148  -2393514.48046  21402502.4224                   21402501.0354
 11  9 21 17 47  0.0000000  0  8G24G07G08G11G04G17G26G28
  -1016010.56647   -788232.79045  22353065.8444                   22353068.1454
    965786.55147    753684.51345  22066534.4844                   22066535.5394
  -1193755.59048   -920399.57046  20252982.1724                   20252981.6054
    480836.73047    374532.42444  22701341.8674                   22701342.5084
  -1356291.98046  -1019968.23943  24278084.0944                   24278091.0514
  -3943811.71148  -3050691.66446  20977998.5944                   20977998.3954
  -1313436.10547  -1019287.33144  22948255.0474                   22948256.4534
  -3213237.08648  -2489102.62546  21379158.4694                   21379157.6414
 11  9 21 17 47 30.0000000  0  8G24G07G08G11G04G17G26G28
  -1075274.19947   -834412.29344  22341788.4844                   22341790.1414
    953403.06647    744034.92045  22064177.9384                   22064179.9964
  -1255557.18747   -968556.71046  20241221.6334                   20241221.5824
    456630.35947    355670.24944  22696735.3284                   22696736.0204
  -1573549.33246  -1189259.46443  24236741.7274                   24236748.3164
  -4078180.66447  -3155394.72246  20952429.0234                   20952428.8914
  -1379555.86747  -1070809.27644  22935672.7504                   22935673.9804
  -3335954.09847  -2584726.28346  21355806.4224                   21355805.4264
 11  9 21 17 48  0.0000000  0  8G24G07G08G11G04G17G26G28
  -1134113.90247   -880261.49244  22330592.1414                   22330594.0744
    941256.39147    734569.84945  22061866.8594                   22061868.1214
  -1316890.46548  -1016348.92046  20229550.3134                   20229550.1954
    432712.00447    337032.47244  22692183.7814                   22692184.3324
  -1790941.53146  -1358655.86643  24195372.4844                   24195380.3594
  -4212295.07847  -3259899.46146  20926908.0784                   20926907.7704
  -1445289.91847  -1122030.68744  22923164.0234                   22923165.6214
  -3458711.62148  -2680381.50346  21332446.3754                   21332445.0904
 11  9 21 17 48 30.0000000  0  8G24G07G08G11G04G17G26G28
  -1192526.33247   -925777.73845  22319476.3284                   22319478.0124
    929349.14847    725291.34145  22059601.5634                   22059602.1884
  -1377751.26248  -1063772.97346  20217969.1484                   20217968.7114
    409083.78547    318620.74444  22687688.1644                   22687688.3444
  -2008461.26646  -1528151.61743  24153980.1564                   24153986.9024
  -4346150.93747  -3364202.71746  20901435.8524                   20901436.0434
  -1510635.91847  -1172949.67344  22910729.3524                   22910731.0824
  -3581504.32048  -2776064.14646  21309080.0234                   21309078.5004
 11  9 21 17 49  0.0000000  0  8G24G07G08G11G04G17G26G28
  -1250504.65247   -970955.72544  22308443.8284                   22308445.5434
    917687.51647    716204.23545  22057382.1954                   22057383.6254
  -1438132.13748  -1110823.05246  20206478.7894                   20206478.6724
    385751.61747    300439.72644  22683248.3594                   22683248.8324
  -2226097.50046  -1697738.19143  24112565.5554                   24112572.8404
  -4479740.15247  -3468298.19946  20876014.8204                   20876014.2624
  -1575588.14147  -1223561.88444  22898368.5084                   22898370.9184
  -3704323.06648  -2871767.06946  21285708.2894                   21285706.9964
 11  9 21 17 49 30.0000000  0  8G24G07G08G11G04G17G26G28
  -1308047.83647  -1015794.61445  22297493.6254                   22297495.3714
    906271.66447    707308.64045  22055209.3134                   22055210.5864
  -1498031.03148  -1157497.56946  20195080.8984                   20195080.6134
    362715.19547    282489.21244  22678865.2734                   22678864.7774
  -2443845.56646  -1867411.91143  24071129.6884                   24071136.6174
  -4613061.13747  -3572184.66946  20850644.4304                   20850644.2504
  -1640146.66047  -1273867.27944  22886083.8674                   22886086.6094
  -3827164.55148  -2967487.71846  21262332.1564                   21262331.0944
 11  9 21 17 50  0.0000000  0  8G24G07G08G11G04G17G26G28
    210272.16047    167311.83044  22586419.9304                   22586421.8714
   2470527.76247   1926209.36345  22352878.2814                   22352879.6094
     17981.18448     23810.60146  20483568.2894                   20483568.0394
   1915400.87547   1492374.08944  22974330.4224                   22974331.5864
  -1086267.36746   -809558.73943  24329468.4384                   24329475.3984
  -3170682.21147  -2448253.01346  21125120.1644                   21125119.7774
   -128883.83247    -96259.91644  23173667.7344                   23173669.7424
  -2374596.34448  -1835616.39246  21538746.9614                   21538745.8634
 11  9 21 17 50 30.0000000  0  8G24G07G08G11G04G17G26G28
    153612.47347    123161.34445  22575638.2424                   22575640.1254
   2459615.29347   1917706.03445  22350801.2584                   22350803.0354
    -40938.16848    -22100.63546  20472356.2814                   20472356.1994
   1892966.48047   1474892.63444  22970061.8284                   22970062.3594
  -1304212.66046   -979386.18543  24287994.7504                   24288000.9964
  -3303450.18448  -2551708.57346  21099855.3284                   21099854.6414
   -192644.07447   -145943.28344  23161535.0004                   23161537.8094
  -2497463.52048  -1931357.07646  21515365.9454                   21515365.2344
 11  9 21 17 51  0.0000000  0  8G24G07G08G11G04G17G26G28
     97400.20747     79359.54345  22564941.3754                   22564942.8364
   2448958.61347   1909401.99145  22348773.6804                   22348775.1214
    -99361.28948    -67625.19846  20461238.9064                   20461238.6094
   1870836.87147   1457648.70644  22965850.7424                   22965850.7974
  -1522245.08246  -1149281.45143  24246504.5394                   24246510.9454
  -3435935.36348  -2654943.77246  21074644.3134                   21074643.9144
   -256001.47747   -195312.76044  23149478.1884                   23149481.2114
  -2620334.74648  -2027100.90146  21491984.2504                   21491983.7384
 11  9 21 17 51 30.0000000  0  8G24G07G08G11G04G17G26G28
     41637.38747     35907.92145  22554329.5704                   22554331.6564
   2438559.04347   1901298.31745  22346794.6024                   22346796.2114
   -157285.94548   -112761.34846  20450215.9534                   20450216.0234
   1849012.88347   1440642.91744  22961697.9144                   22961698.9384
  -1740358.69146  -1319240.06543  24204997.5784                   24205004.9224
  -3568134.90648  -2757956.37846  21049487.2194                   21049486.7894
   -318955.14847   -244367.60244  23137498.3284                   23137500.6294
  -2743205.85948  -2122844.63146  21468603.1254                   21468601.6524
 11  9 21 17 52  0.0000000  0  8G24G07G08G11G04G17G26G28
    -13673.09847     -7191.21244  22543805.2734                   22543806.8754
   2428419.24247   1893397.04945  22344865.1644                   22344866.5354
   -214707.78948   -157505.70246  20439289.4064                   20439288.9384
   1827496.87947   1423877.10744  22957603.8834                   22957603.8674
  -1958545.89546  -1489255.97943  24163479.0314                   24163486.5904
  -3700044.65248  -2860743.17446  21024385.8594                   21024385.4224
   -381502.75446   -293106.05944  23125596.3524                   23125598.9494
  -2866071.76648  -2218584.30446  21445222.0314                   21445220.8754
 11  9 21 17 52 30.0000000  0  8G24G07G08G11G04G17G26G28
    -68530.28547    -49937.11845  22533366.1174                   22533368.3164
   2418539.16847   1885698.17345  22342985.2114                   22342987.1644
   -271625.23448   -201857.00346  20428458.1174                   20428458.1414
   1806288.12547   1407350.73244  22953567.9774                   22953567.4774
  -2176801.73046  -1659325.34643  24121946.9304                   24121953.1254
  -3831662.71947  -2963302.68446  20999339.9924                   20999339.0514
   -443644.64147   -341528.37744  23113770.8984                   23113773.4804
  -2988928.97748  -2314317.21246  21421843.2974                   21421841.8634
 11  9 21 17 53  0.0000000  0  8G24G07G08G11G04G17G26G28
   -122932.59447    -92328.58344  22523013.9694                   22523016.0044
   2408919.96947   1878202.56345  22341155.2274                   22341156.7504
   -328036.15248   -245813.61546  20417723.4454                   20417723.8444
   1785387.66447   1391064.57744  22949590.5084                   22949590.8914
  -2395120.43446  -1829443.64543  24080400.9534                   24080408.5204
  -3962986.64848  -3065633.00146  20974349.7034                   20974349.1094
   -505380.09447   -389633.95444  23102022.8674                   23102025.5314
  -3111773.69548  -2410040.36646  21398467.0004                   21398465.5434
 11  9 21 17 53 30.0000000  0  8G24G07G08G11G04G17G26G28
   -176878.93047   -134364.75445  22512747.8834                   22512749.8594
   2399561.37947   1870910.04245  22339374.3914                   22339375.4694
   -383938.93748   -289374.28246  20407085.7664                   20407085.6294
   1764794.95347   1375018.21344  22945672.4064                   22945672.6334
  -2613496.75846  -1999606.81243  24038845.3834                   24038851.2774
  -4094014.81248  -3167732.85746  20949415.6724                   20949415.3164
   -566709.21547   -437422.93244  23090352.5944                   23090355.3324
  -3234602.66048  -2505751.25046  21375093.3054                   21375091.6134
 11  9 21 17 54  0.0000000  0  8G24G07G08G11G04G17G26G28
   -230369.11347   -176045.42845  22502569.1254                   22502571.3874
   2390463.49247   1863820.66245  22337643.3204                   22337645.5084
   -439332.65248   -332538.28246  20396544.5864                   20396544.5594
   1744509.53947   1359211.33644  22941811.8134                   22941812.5164
  -2831926.25046  -2169811.43343  23997279.3524                   23997285.8954
  -4224746.05948  -3269601.34246  20924538.5004                   20924537.7034
   -627632.85947   -484895.95244  23078759.0164                   23078762.1684
  -3357413.11748  -2601447.72946  21351723.2424                   21351721.8674
 11  9 21 17 54 30.0000000  0  8G24G07G08G11G04G17G26G28
   -283398.88747   -217367.38045  22492478.1804                   22492480.3204
   2381630.05547   1856937.33945  22335961.6724                   22335964.5044
   -494211.93448   -375301.40746  20386101.2424                   20386101.4454
   1724534.89147   1343646.58044  22938011.1414                   22938010.9414
  -3050400.24646  -2340050.70943  23955705.0164                   23955711.6214
  -4355174.75048  -3371234.06746  20899718.6884                   20899717.8984
   -688147.59047   -532050.33244  23067243.5164                   23067246.3164
  -3480198.33248  -2697124.51946  21328357.5864                   21328356.5514
 11  9 21 17 55  0.0000000  0  8G24G07G08G11G04G17G26G28
   -335968.99246   -258331.14844  22482473.9694                   22482476.1484
   2373059.89547   1850259.15345  22334331.4304                   22334333.7774
   -548577.12948   -417663.96746  20375756.2424                   20375756.1334
   1704869.21947   1328322.56544  22934268.6024                   22934268.9844
  -3268914.98446  -2510321.66343  23914123.2114                   23914129.1174
  -4485300.92248  -3472631.06946  20874956.2894                   20874956.0434
   -748255.02747   -578887.36945  23055806.2114                   23055809.2584
  -3602956.50448  -2792780.24746  21304997.7894                   21304996.9224
 11  9 21 17 55 30.0000000  0  8G24G07G08G11G04G17G26G28
   -388083.68747   -298940.03844  22472556.0394                   22472559.2814
   2364747.78547   1843782.05545  22332749.7584                   22332751.9614
   -602431.98848   -459628.84946  20365508.1174                   20365508.1764
   1685507.19947   1313235.16344  22930584.4924                   22930585.7774
  -3487470.73047  -2680624.58443  23872533.4774                   23872538.9964
  -4615127.89848  -3573794.93246  20850251.0634                   20850250.6334
   -807960.43747   -625411.12245  23044443.8674                   23044447.7234
  -3725689.50048  -2888416.34546  21281642.7814                   21281641.4454
 11  9 21 17 56  0.0000000  0  8G24G07G08G11G04G17G26G28
   -439741.81647   -339193.16744  22462727.5314                   22462728.7934
   2356694.03147   1837506.26745  22331217.2814                   22331219.3834
   -655774.73048   -501194.68446  20355357.1884                   20355357.2504
   1666448.96147   1298384.50444  22926957.9304                   22926958.4304
  -3706062.20746  -2850955.41643  23830936.9534                   23830943.0354
  -4744653.92648  -3674724.29746  20825603.1414                   20825602.3674
   -867264.19547   -671621.89545  23033159.6174                   23033161.6724
  -3848394.10548  -2984030.32446  21258292.3134                   21258291.1914
 11  9 21 17 56 30.0000000  0  8G24G07G08G11G04G17G26G28
   -490946.24646   -379092.74444  22452983.0554                   22452985.1414
   2348895.27347   1831429.19745  22329733.6024                   22329735.5354
   -708607.85948   -542363.42446  20345303.4224                   20345303.9184
   1647690.48847   1283767.39644  22923388.3284                   22923388.4304
  -3924687.80146  -3021312.76143  23789332.9614                   23789339.4024
  -4873880.51248  -3775420.33046  20801011.9774                   20801011.7504
   -926169.89547   -717522.49545  23021950.2424                   23021952.8834
  -3971070.39148  -3079622.24846  21234947.9304                   21234946.7344
 11  9 21 17 57  0.0000000  0  8G24G07G08G11G04G17G26G28
   -541697.41447   -418639.14144  22443325.2114                   22443327.6174
   2341350.73047   1825550.19245  22328297.5474                   22328300.1764
   -760930.50848   -583134.38346  20335346.7274                   20335347.4144
   1629230.69547   1269383.01544  22919875.4224                   22919876.9494
  -4143343.37946  -3191693.42943  23747724.7114                   23747730.0314
  -5002807.44948  -3875882.87646  20776478.0234                   20776477.4614
   -984678.94947   -763114.05245  23010816.2504                   23010818.3914
  -4093716.27348  -3175190.47746  21211609.2664                   21211608.1524
 11  9 21 17 57 30.0000000  0  8G24G07G08G11G04G17G26G28
   -591999.45347   -457835.56744  22433753.4844                   22433755.4344
   2334055.44147   1819865.40545  22326909.1954                   22326911.7814
   -812746.22348   -623510.33046  20325486.5314                   20325487.0784
   1611064.53947   1255227.47344  22916419.0784                   22916419.7344
  -4362028.42646  -3362097.10843  23706109.4224                   23706115.4454
  -5131437.71948  -3976114.24046  20752000.7194                   20752000.0944
  -1042796.45747   -808400.47545  22999756.9774                   22999759.2734
  -4216333.30548  -3270736.22446  21188276.0164                   21188275.1604
 11  9 21 17 58  0.0000000  0  8G24G07G08G11G04G17G26G28
    933566.43847    730917.04844  22724059.0634                   22724061.1094
   3902426.51247   3041972.59545  22625361.1024                   22625362.6604
    711364.40248    564108.26746  20615515.3284                   20615515.5314
   3168608.59047   2468898.08144  23212810.0084                   23212810.1334
  -3005314.41846  -2304917.09143  23964283.6094                   23964288.9614
  -3684348.79747  -2848512.48446  21027372.0234                   21027371.5904
    474895.76647    374216.77145  23288564.0394                   23288566.1804
  -2763497.68448  -2138656.52146  21464741.6644                   21464740.6564
 11  9 21 17 58 30.0000000  0  8G24G07G08G11G04G17G26G28
    884150.88347    692411.39044  22714655.8284                   22714657.8164
   3895616.74647   3036666.16145  22624064.5004                   22624067.0314
    660552.24248    524514.31346  20605846.1724                   20605846.5204
   3151014.98047   2455188.66944  23209461.8524                   23209462.4844
  -3224057.37546  -2475365.88843  23922658.1174                   23922662.9494
  -3812394.56248  -2948288.41246  21003005.7584                   21003005.1524
    417546.74647    329529.15544  23277650.6724                   23277653.0474
  -2886060.56648  -2234160.07146  21441418.5704                   21441417.4104
 11  9 21 17 59  0.0000000  0  8G24G07G08G11G04G17G26G28
    835169.76247    654244.23544  22705334.6024                   22705336.9774
   3889040.12147   3031541.37145  22622813.4224                   22622815.7734
    610234.16848    485305.37146  20596270.6174                   20596271.5704
   3133698.04347   2441694.85044  23206167.3674                   23206167.0124
  -3442831.07046  -2645838.64043  23881026.7734                   23881031.3674
  -3940155.10248  -3047842.06146  20978693.8594                   20978693.5824
    360571.60947    285132.85545  23266809.2344                   23266811.3524
  -3008601.34048  -2329646.39546  21418099.6724                   21418098.7894
 11  9 21 17 59 30.0000000  0  8G24G07G08G11G04G17G26G28
    786619.35547    616412.72144  22696095.3594                   22696098.2664
   3882692.18847   3026594.78245  22621605.9694                   22621608.2774
    560407.02748    446478.95546  20586789.0474                   20586789.6054
   3116652.65247   2428412.68044  23202923.3754                   23202924.4804
  -3661635.06247  -2816334.92343  23839389.5394                   23839394.8014
  -4067633.57848  -3147175.93746  20954435.7894                   20954435.0824
    303965.55547    241024.17845  23256037.0234                   23256039.4104
  -3131121.17248  -2425116.40346  21394785.1884                   21394783.9734
 11  9 21 18  0  0.0000000  0  8G24G07G08G11G04G17G26G28
    738497.31647    578915.00344  22686939.2274                   22686940.6724
   3876570.06647   3021824.16645  22620441.5554                   22620442.6844
    511069.08648    408033.75046  20577400.6804                   20577400.8404
   3099875.89546   2415339.78644  23199730.7274                   23199731.1294
  -3880467.18746  -2986853.22943  23797746.9924                   23797752.4454
  -4194831.28548  -3246291.03446  20930230.7194                   20930230.2344
    247725.43847    197200.64445  23245335.2424                   23245338.0514
  -3253619.88348  -2520569.94846  21371474.3444                   21371472.9734
 11  9 21 18  0 30.0000000  0  8G24G07G08G11G04G17G26G28
    690798.91047    541747.34144  22677861.8204                   22677863.9534
   3870668.54747   3017225.43445  22619317.9304                   22619320.4064
    462216.05948    369966.40246  20568104.1484                   20568104.0824
   3083361.74646   2402471.53444  23196588.2504                   23196588.3164
  -4099327.51246  -3157393.38243  23756097.9614                   23756104.5554
  -4321751.53948  -3345189.94446  20906078.8134                   20906078.3164
    191845.60247    153657.85044  23234701.2424                   23234704.1954
  -3376099.14548  -2616008.33846  21348167.0314                   21348166.0944
 11  9 21 18  1  0.0000000  0  8G24G07G08G11G04G17G26G28
    643525.28546    504910.69744  22668865.9224                   22668867.7974
   3864988.40647   3012799.20445  22618237.0634                   22618239.1644
    413850.06347    332278.55846  20558900.4064                   20558900.7154
   3067110.88346   2389808.45344  23193495.7424                   23193496.8754
  -4318210.34846  -3327951.22743  23714446.7424                   23714452.2704
  -4448392.82048  -3443871.45346  20881979.8134                   20881979.0744
    136326.31647    110395.99244  23224137.0944                   23224139.2304
  -3498555.12548  -2711428.59146  21324864.9384                   21324863.7154
 11  9 21 18  1 30.0000000  0  8G24G07G08G11G04G17G26G28
    596673.73446    468402.95844  22659950.5394                   22659951.7384
   3859526.52047   3008543.02545  22617197.9534                   22617200.0314
    365968.63348    294968.29946  20549788.7734                   20549789.1954
   3051119.89547   2377347.85244  23190453.3284                   23190453.4264
  -4537113.36346  -3498524.72043  23672789.5164                   23672796.1294
  -4574756.41848  -3542336.59846  20857933.4064                   20857933.0394
     81163.67647     67412.05045  23213639.6884                   23213642.6764
  -3620987.67248  -2806830.58246  21301566.5784                   21301565.3484
 11  9 21 18  2  0.0000000  0  8G24G07G08G11G04G17G26G28
    550241.71947    432222.08344  22651114.8444                   22651116.7544
   3854279.24247   3004454.09445  22616199.4144                   22616201.5784
    318569.73048    258034.02946  20540769.3444                   20540769.7504
   3035385.06347   2365086.84444  23187458.9924                   23187459.4264
  -4756035.10947  -3669112.79244  23631130.8594                   23631136.3674
  -4700844.22348  -3640586.84546  20833940.0084                   20833939.6094
     26353.82847     24703.00744  23203209.7274                   23203212.6524
  -3743396.81648  -2902214.34246  21278272.7734                   21278271.4454
 11  9 21 18  2 30.0000000  0  8G24G07G08G11G04G17G26G28
    504231.63347    396369.99944  22642359.5314                   22642361.6564
   3849249.21947   3000534.42545  22615242.4454                   22615245.4884
    271656.64148    221478.31846  20531842.3284                   20531842.2464
   3019908.76246   2353027.28144  23184513.5704                   23184514.0704
  -4974968.12147  -3839709.70743  23589468.6644                   23589473.2424
  -4826652.27748  -3738619.09546  20809998.9774                   20809998.4884
    -28101.10247    -17729.50344  23192847.2894                   23192849.6994
  -3865777.12148  -2997575.61846  21254984.5084                   21254983.5004
 11  9 21 18  3  0.0000000  0  8G24G07G08G11G04G17G26G28
    458641.52747    360845.18244  22633684.4774                   22633685.3094
   3844433.95747   2996782.10045  22614326.4144                   22614328.2274
    225228.05148    185300.14246  20523007.0474                   20523007.0864
   3004687.66446   2341166.60844  23181617.2894                   23181618.3874
  -5193909.44947  -4010313.11443  23547805.5084                   23547810.7274
  -4952181.34848  -3836433.94946  20786111.6884                   20786111.4924
    -82204.35947    -59887.95644  23182551.6024                   23182554.5944
  -3988127.69148  -3092913.73946  21231701.8364                   21231700.8094
 11  9 21 18  3 30.0000000  0  8G24G07G08G11G04G17G26G28
    413473.03547    325648.90744  22625088.9304                   22625090.7894
   3839834.36347   2993197.82745  22613451.2274                   22613454.1054
    179286.09448    149501.16046  20514264.7274                   20514264.9614
   2989722.77746   2329505.53544  23178769.2034                   23178770.7734
  -5412853.15247  -4180918.34244  23506141.9614                   23506147.5784
  -5077429.00848  -3934029.52946  20762277.8524                   20762277.7774
   -135955.03947   -101771.72444  23172323.3444                   23172325.6884
  -4110443.82448  -3188225.02746  21208425.9924                   21208425.0904
 11  9 21 18  4  0.0000000  0  8G24G07G08G11G04G17G26G28
    368726.43447    290781.35644  22616574.0234                   22616575.8444
   3835450.42647   2989781.60445  22612616.7894                   22612620.0084
    133831.51248    114081.96346  20505615.0004                   20505615.6134
   2975013.51346   2318043.71044  23175970.4774                   23175971.1094
  -5631794.21947  -4351521.56843  23464479.0474                   23464483.2154
  -5202393.94948  -4031404.81546  20738498.0164                   20738497.7704
   -189354.11347   -143381.41144  23162161.6804                   23162164.0554
  -4232722.68448  -3283507.26546  21185157.5314                   21185155.9384
 11  9 21 18  4 30.0000000  0  8G24G07G08G11G04G17G26G28
    324402.98447    256243.51745  22608139.6564                   22608142.6254
   3831282.50447   2986533.68845  22611824.0314                   22611826.5664
     88866.14848     79043.97146  20497058.1724                   20497058.6214
   2960560.51646   2306781.47944  23173220.7274                   23173221.2774
  -5850726.84447  -4522118.16843  23422817.2814                   23422821.9884
  -5327073.89148  -4128558.01846  20714771.9694                   20714771.7704
   -242401.03947   -184716.78744  23152067.2664                   23152070.0394
  -4354959.96148  -3378757.09546  21161896.6254                   21161895.0124
 11  9 21 18  5  0.0010000  0  8G24G07G08G11G04G17G26G28
   1855923.13347   1449635.75044  22899578.6884                   22899580.0984
   5402751.01647   4211054.43545  22910864.3284                   22910867.4344
   1619810.98048   1271987.94446  20788387.6724                   20788387.8094
   4521783.60946   3523318.84643  23470311.2734                   23470311.6254
  -4494225.19147  -3465103.71343  23680950.0164                   23680954.9844
  -3876047.14548  -2997887.81346  20990893.4614                   20990893.0084
   1280323.62947   1001821.83044  23441832.2734                   23441834.8054
  -2901732.08648  -2246371.75846  21438436.6484                   21438434.9734
 11  9 21 18  5 30.0000000  0  8G24G07G08G11G04G17G26G28
   1812448.93847   1415759.73144  22891305.0394                   22891307.2194
   5399016.12147   4208143.96245  22910153.8364                   22910156.2854
   1575828.68448   1237715.98746  20780018.0784                   20780018.2734
   4507843.23046   3512456.09443  23467658.4774                   23467659.7854
  -4713117.23047  -3635668.72743  23639296.6804                   23639300.5784
  -4000147.96948  -3094589.75646  20967277.6724                   20967277.3444
   1227981.33647    961035.55244  23431872.1804                   23431875.0124
  -3023871.41448  -2341545.26246  21415194.1644                   21415193.1214
 11  9 21 18  6  0.0000000  0  8G24G07G08G11G04G17G26G28
   1769397.80147   1382213.29544  22883112.7114                   22883115.6914
   5395497.57847   4205402.04445  22909484.3134                   22909487.3284
   1532336.83248   1203826.16846  20771741.7344                   20771742.5084
   4494157.98046   3501792.17543  23465054.8984                   23465055.5314
  -4931992.34447  -3806220.57643  23597645.5314                   23597650.4694
  -4123963.47348  -3191069.36346  20943716.4924                   20943716.1374
   1175988.00847    920521.15244  23421977.4694                   23421980.5434
  -3145963.12948  -2436681.67646  21391960.7734                   21391959.8324
 11  9 21 18  6 30.0000000  0  8G24G07G08G11G04G17G26G28
   1726770.28947   1348996.97444  22875001.2664                   22875003.9064
   5392194.14147   4202827.75045  22908856.2814                   22908858.7544
   1489336.55148   1170319.41146  20763559.2504                   20763559.3754
   4480726.83246   3491326.25143  23462498.5084                   23462498.6054
  -5150839.06647  -3976750.35443  23556000.0314                   23556005.4924
  -4247489.10948  -3287323.09946  20920210.3674                   20920209.6804
   1124343.28147    880278.46343  23412150.4844                   23412152.8164
  -3268000.98048  -2531776.11746  21368737.7894                   21368736.7974
 11  9 21 18  7  0.0000000  0  8G24G07G08G11G04G17G26G28
   1684560.90647   1316106.50044  22866969.2344                   22866971.3524
   5389100.15647   4200416.64745  22908267.6174                   22908270.6724
   1446823.28548   1137192.13746  20755468.8674                   20755469.3984
   4467543.33646   3481053.28043  23459990.2664                   23459989.8914
  -5369658.18747  -4147258.54844  23514360.4144                   23514365.0354
  -4370729.18448  -3383354.32146  20896758.4304                   20896757.8324
   1073041.02347    840302.56944  23402387.7274                   23402390.4184
  -3389987.22348  -2626830.35746  21345524.4304                   21345523.5514
 11  9 21 18  7 30.0000000  0  8G24G07G08G11G04G17G26G28
   1642767.67647   1283540.26844  22859016.5234                   22859018.9654
   5386212.94547   4198166.70944  22907718.4844                   22907720.6884
   1404795.09448   1104442.84046  20747471.4774                   20747471.8444
   4454605.41846   3470971.69043  23457528.4614                   23457527.7854
  -5588446.82447  -4317743.00044  23472725.9614                   23472731.7114
  -4493684.55148  -3479163.69646  20873360.8984                   20873360.2034
   1022078.19947    800591.15544  23392690.6414                   23392692.5824
  -3511920.84848  -2721843.59046  21322321.4304                   21322320.1094
 11  9 21 18  8  0.0000000  0  8G24G07G08G11G04G17G26G28
   1601386.55147   1251295.14444  22851142.4774                   22851143.9964
   5383528.38347   4196074.67744  22907207.3674                   22907209.6884
   1363249.07048   1072069.26246  20739565.4614                   20739566.0164
   4441908.19946   3461077.66043  23455112.5164                   23455112.5824
  -5807203.85547  -4488202.83344  23431098.1024                   23431102.4614
  -4616358.01248  -3574753.39146  20850016.8444                   20850016.5084
    971450.18847    761140.70144  23383055.4224                   23383058.7544
  -3633802.57448  -2816816.37346  21299127.9384                   21299126.8244
 11  9 21 18  8 30.0000000  0  8G24G07G08G11G04G17G26G28
   1560413.94547   1219368.40844  22843344.5864                   22843347.8484
   5381042.39547   4194137.30444  22906734.8444                   22906737.4694
   1322181.48048   1040068.48646  20731750.6804                   20731751.3284
   4429447.39146   3451367.84743  23452740.9844                   23452741.0124
  -6025928.25447  -4658637.28944  23389476.0394                   23389481.1644
  -4738752.20748  -3670125.48946  20826726.0784                   20826725.7734
    921152.22346    721947.38144  23373484.3754                   23373487.5824
  -3755632.99248  -2911749.18146  21275944.6804                   21275943.8014
 11  9 21 18  9  0.0000000  0  8G24G07G08G11G04G17G26G28
   1519844.76247   1187755.96144  22835624.3444                   22835627.6334
   5378749.60947   4192350.54144  22906298.4614                   22906300.6484
   1281588.14548   1008437.24646  20724026.0634                   20724026.5904
   4417217.31647   3441837.76743  23450414.1024                   23450415.1994
  -6244620.16047  -4829046.39644  23347860.2504                   23347864.8134
  -4860871.20748  -3765283.13346  20803487.5474                   20803487.2464
    871178.17247    683006.45144  23363975.2344                   23363977.4184
  -3877414.26248  -3006643.68146  21252770.4064                   21252769.4184
 11  9 21 18  9 30.0000000  0  8G24G07G08G11G04G17G26G28
   1479675.79747   1156455.36744  22827980.9694                   22827984.3714
   5376646.18047   4190711.29444  22905898.6174                   22905901.2464
   1241466.13348    977173.27646  20716391.3444                   20716391.9414
   4405214.19146   3432484.56543  23448129.9924                   23448130.3794
  -6463277.79747  -4999428.81744  23306251.0634                   23306255.3834
  -4982716.89848  -3860227.81746  20780301.2274                   20780300.7384
    821524.18447    644314.96544  23354526.7194                   23354529.2344
  -3999146.25848  -3101499.78246  21229605.1094                   21229604.3794
 11  9 21 18 10  0.0000000  0  8G24G07G08G11G04G17G26G28
   1439904.76647   1125464.88144  22820413.3914                   22820415.6644
   5374729.35247   4189217.45644  22905533.6174                   22905536.5784
   1201813.54348    946275.08346  20708845.8284                   20708846.1454
   4393435.03946   3423305.89144  23445888.0864                   23445889.5474
  -6681898.95747  -5169782.82444  23264648.3594                   23264653.5234
  -5104290.55148  -3954960.51946  20757166.5234                   20757165.5744
    772186.83247    605870.22344  23345138.2734                   23345139.8284
  -4120828.37548  -3196317.02446  21206450.0084                   21206448.9414
 11  9 21 18 10 30.0000000  0  8G24G07G08G11G04G17G26G28
   1400523.37147   1094778.02744  22812918.9064                   22812921.3164
   5372990.71547   4187862.49745  22905203.4844                   22905206.4774
   1162622.44148    915736.49346  20701388.0864                   20701388.4264
   4381871.05946   3414294.89044  23443687.6174                   23443689.3834
  -6900486.41446  -5340110.56243  23223052.9304                   23223057.1054
  -5225599.23848  -4049486.76046  20734082.0234                   20734081.9384
    723156.80547    567664.87744  23335808.2344                   23335809.1724
  -4242465.59048  -3291099.27846  21183303.7114                   21183302.5084
 11  9 21 18 11  0.0000000  0  8G24G07G08G11G04G17G26G28
   1361526.69547   1064390.91244  22805497.7664                   22805500.9104
   5371424.92647   4186642.18345  22904905.1254                   22904908.6294
   1123888.39848    885554.05246  20694017.0164                   20694018.1454
   4370516.63346   3405447.11443  23441526.9844                   23441528.9924
  -7119040.48447  -5510412.25544  23181463.3674                   23181467.4064
  -5346646.78148  -4143809.50846  20711047.6724                   20711046.9694
    674428.42647    529694.62144  23326535.3364                   23326537.6414
  -4364059.69548  -3385847.93746  21160165.0314                   21160163.9064
 11  9 21 18 11 30.0000000  0  8G24G07G08G11G04G17G26G28
   1322911.59847   1034301.14444  22798150.1804                   22798152.3524
   5370028.94547   4185554.18645  22904639.9224                   22904643.5204
   1085609.17248    855726.00546  20686732.9774                   20686733.3674
   4359368.50846   3396760.14643  23439405.6724                   23439406.9844
  -7337559.11747  -5680686.36844  23139880.4774                   23139885.4224
  -5467435.05148  -4237930.23946  20688062.6644                   20688061.9024
    625998.00847    491956.54544  23317319.5084                   23317320.7114
  -4485610.25048  -3480562.66946  21137034.4384                   21137033.2774
 11  9 21 18 12  0.0000000  0  8G24G07G08G11G04G17G26G28
   1284674.49647   1004505.92244  22790873.3984                   22790876.3054
   5368798.53147   4184595.23245  22904406.2274                   22904409.1564
   1047781.39548    826249.73946  20679534.4614                   20679535.0984
   4348422.13746   3388230.35643  23437322.8754                   23437324.2034
  -7556040.68047  -5850931.62444  23098304.1724                   23098308.2194
  -5587966.64148  -4331850.95146  20665125.7114                   20665125.3204
    577860.55947    454446.76044  23308159.7344                   23308161.3134
  -4607117.58648  -3575243.71946  21113912.5084                   21113911.3284
 11  9 21 18 12 30.0000000  0  8G24G07G08G11G04G17G26G28
   2822232.91847   2202603.36144  23083461.3444                   23083463.1954
   6943149.64847   5411362.09645  23203995.2114                   23203998.3524
   2585822.44148   2024723.21846  20972213.9384                   20972215.0554
   5913093.77346   4607454.83343  23735070.2584                   23735071.5944
  -6199057.11347  -4793541.65943  23356529.5474                   23356534.1254
  -4132819.86348  -3197970.34446  20942030.7194                   20942030.9384
   2105433.42646   1644763.18244  23598847.4924                   23598848.2734
  -3153158.35248  -2442288.48946  21390591.6094                   21390590.7504
 11  9 21 18 13  0.0000000  0  8G24G07G08G11G04G17G26G28
   2784739.98447   2173387.97544  23076326.6724                   23076329.4384
   6942237.38746   5410650.99545  23203822.2034                   23203825.8634
   2548886.42248   1995941.82046  20965185.3674                   20965186.2814
   5902537.78946   4599229.25643  23733061.5394                   23733063.0984
  -6417461.87147  -4963726.98844  23314968.4924                   23314973.0864
  -4252846.10248  -3291497.27946  20919190.8134                   20919190.4884
   2057867.90247   1607699.05144  23589795.8284                   23589798.2234
  -3274582.15248  -2536904.44146  21367485.2894                   21367484.3134
 11  9 21 18 13 30.0000000  0  8G24G07G08G11G04G17G26G28
   2747613.21547   2144457.94744  23069262.1094                   23069264.0004
   6941478.20747   5410059.23945  23203677.4384                   23203680.7194
   2512391.59848   1967504.22846  20958240.5864                   20958241.6024
   5892171.00047   4591151.05643  23731089.4774                   23731090.0904
  -6635826.36747  -5133880.96144  23273414.8674                   23273418.9304
  -4372623.70748  -3384830.47646  20896398.0084                   20896397.4344
   2010581.30547   1570852.28644  23580797.3364                   23580798.6844
  -3395964.68448  -2631488.24646  21344387.7034                   21344386.0824
 11  9 21 18 14  0.0000000  0  8G24G07G08G11G04G17G26G28
   2710848.99247   2115810.40844  23062266.1644                   23062268.7384
   6940867.87547   5409583.43244  23203561.7274                   23203564.4144
   2476334.32848   1939407.56546  20951379.1024                   20951380.0204
   5881988.76646   4583216.75343  23729151.2194                   23729152.0084
  -6854149.04347  -5304002.33644  23231869.0474                   23231874.1454
  -4492155.10948  -3477971.82946  20873651.7734                   20873651.2734
   1963569.12146   1534219.29044  23571851.2114                   23571853.2304
  -3517306.27048  -2726040.13946  21321296.6564                   21321295.2464
 11  9 21 18 14 30.0000000  0  8G24G07G08G11G04G17G26G28
   2674441.69147   2087440.98244  23055338.0784                   23055339.1294
   6940400.74647   5409219.19145  23203472.7894                   23203476.1214
   2440709.27348   1911647.69846  20944600.1334                   20944601.0164
   5871985.04347   4575421.53143  23727247.8594                   23727249.5044
  -7072430.61747  -5474091.71744  23190332.3134                   23190336.2274
  -4611444.71547  -3570924.77046  20850951.7814                   20850951.3364
   1916824.62147   1497794.96444  23562955.9454                   23562958.3754
  -3638609.24247  -2820561.96146  21298213.2424                   21298212.3134
 11  9 21 18 15  0.0000000  0  8G24G07G08G11G04G17G26G28
   2638388.90247   2059347.84744  23048477.5554                   23048479.4024
   6940074.08647   5408964.43744  23203411.0004                   23203414.1684
   2405514.73048   1884223.29146  20937902.7274                   20937903.6604
   5862156.82447   4567763.08643  23725377.7814                   23725378.5004
  -7290668.19547  -5644146.78044  23148802.1884                   23148806.8244
  -4730493.85948  -3663690.34146  20828297.5394                   20828296.8054
   1870344.74647   1461576.77244  23554111.7424                   23554113.4804
  -3759872.65248  -2915052.94246  21275137.7974                   21275136.2304
 11  9 21 18 15 30.0000000  0  8G24G07G08G11G04G17G26G28
   2602685.82847   2031527.17144  23041683.0394                   23041686.0274
   6939882.74647   5408815.09744  23203375.0474                   23203377.6094
   2370746.19948   1857130.83746  20931286.8134                   20931287.4694
   5852499.28947   4560237.63943  23723540.5634                   23723540.5084
  -7508861.78547  -5814167.55844  23107281.8444                   23107285.9184
  -4849305.96148  -3756271.20446  20805688.3284                   20805688.0904
   1824123.69946   1425560.26644  23545315.9064                   23545318.7234
  -3881097.91048  -3009514.19946  21252069.3914                   21252068.0354
 11  9 21 18 16  0.0000000  0  8G24G07G08G11G04G17G26G28
   2567327.48447   2003975.12344  23034955.2814                   23034957.9654
   6939821.77346   5408767.34144  23203363.2504                   23203367.1684
   2336398.94548   1830366.66246  20924750.6804                   20924751.7194
   5843007.07047   4552840.98843  23721734.2194                   23721734.8324
  -7727010.97747  -5984153.76144  23065768.7894                   23065773.2114
  -4967884.83248  -3848670.31946  20783123.5474                   20783123.0824
   1778155.88746   1389741.14344  23536568.1094                   23536571.2034
  -4002286.80948  -3103947.12346  21229008.0084                   21229006.8714
 11  9 21 18 16 30.0000000  0  8G24G07G08G11G04G17G26G28
   2532313.46546   1976691.37944  23028292.3834                   23028294.4104
   6939890.25046   5408820.45244  23203375.8204                   23203378.8364
   2302472.98047   1803930.74546  20918294.8754                   20918295.5594
   5833678.86747   4545572.11743  23719958.8674                   23719960.5554
  -7945111.18747  -6154101.73844  23024265.6804                   23024269.5594
  -5086229.94148  -3940887.28246  20760603.1804                   20760603.0354
   1732439.75847   1354118.08344  23527869.4384                   23527872.6644
  -4123436.07048  -3198349.14646  21205954.1484                   21205952.8594
 11  9 21 18 17  0.0000000  0  8G24G07G08G11G04G17G26G28
   2497638.21947   1949671.61044  23021693.6724                   23021696.0164
   6940082.34847   5408969.92544  23203412.3444                   23203416.6334
   2268963.38748   1777819.28246  20911918.1884                   20911919.1134
   5824509.00846   4538426.67443  23718213.6724                   23718214.4224
  -8163162.82847  -6324011.96744  22982771.3754                   22982776.0124
  -5204345.37548  -4032925.28546  20738126.5314                   20738126.0354
   1686969.05946   1318686.26744  23519216.5784                   23519219.2544
  -4244547.70348  -3292721.86546  21182907.0944                   21182905.9264
 11  9 21 18 17 30.0000000  0  8G24G07G08G11G04G17G26G28
   2463298.32047   1922913.15744  23015159.7664                   23015162.4494
   6940394.44547   5409212.86044  23203473.1724                   23203475.5044
   2235866.92248   1752029.73546  20905620.1564                   20905621.2704
   5815493.89146   4531401.73843  23716499.3444                   23716499.9384
  -8381164.12147  -6493882.90444  22941287.1724                   22941291.2974
  -5322233.45748  -4124786.11846  20715693.0004                   20715692.8554
   1641739.37146   1283442.27344  23510609.3674                   23510613.0704
  -4365622.15248  -3387065.59646  21159867.7504                   21159866.5744
 11  9 21 18 18  0.0000000  0  8G24G07G08G11G04G17G26G28
   2429295.89547   1896417.68844  23008689.3204                   23008691.7504
   6940828.42647   5409550.77544  23203555.9064                   23203559.6294
   2203185.86748   1726563.88246  20899401.4064                   20899402.1954
   5806634.90246   4524498.53543  23714812.5234                   23714813.8324
  -8599107.59047  -6663708.76944  22899813.8674                   22899817.4454
  -5439890.64548  -4216467.05646  20693303.8914                   20693303.1994
   1596752.10547   1248387.14344  23502049.1174                   23502051.9344
  -4486653.44947  -3481375.69746  21136835.8754                   21136834.7814
 11  9 21 18 18 30.0000000  0  8G24G07G08G11G04G17G26G28
   2395631.05147   1870185.22844  23002282.4304                   23002286.0744
   6941384.58247   5409983.89644  23203661.5164                   23203666.0044
   2170920.72347   1701422.10846  20893261.8674                   20893262.3834
   5797932.02347   4517716.90143  23713157.4384                   23713158.1334
  -8816988.19547  -6833485.66744  22858351.7894                   22858356.8164
  -5557315.86348  -4307967.22746  20670958.7894                   20670958.4184
   1552006.66847   1213520.46344  23493533.8054                   23493537.7544
  -4607638.11747  -3575649.48546  21113813.6954                   21113812.5474
 11  9 21 18 19  0.0000000  0  8G24G07G08G11G04G17G26G28
   2362304.31347   1844216.25044  22995941.6644                   22995943.8554
   6942062.85247   5410512.16444  23203790.0164                   23203795.3054
   2139072.09448   1676604.90846  20887201.0634                   20887202.0944
   5789385.28146   4511056.99643  23711530.0234                   23711532.5274
  -9034800.04747  -7003209.04444  22816904.0554                   22816907.4804
  -5674506.96148  -4399284.97146  20648657.8134                   20648657.1994
   1507502.65247   1178841.92144  23485064.6804                   23485068.9574
  -4728572.09447  -3669883.74646  21090800.3984                   21090799.2774
 11  9 21 18 19 30.0000000  0  8G24G07G08G11G04G17G26G28
   2329316.07447   1818511.02844  22989663.7424                   22989666.7854
   6942863.50447   5411135.75744  23203943.5314                   23203946.6134
   2107641.07448   1652113.11046  20881220.3444                   20881220.8364
   5780995.29746   4504519.18143  23709934.0784                   23709935.6914
  -9252537.37947  -7172874.29544  22775468.8674                   22775474.0634
  -5791462.29748  -4490419.00446  20626401.9384                   20626401.5824
   1463239.55947   1144351.09444  23476642.3914                   23476645.9344
  -4849451.03548  -3764075.13446  21067798.1334                   21067796.7894
 11  9 21 18 20  0.0000000  0  8G24G07G08G11G04G17G26G28
   3872087.22747   3020670.28644  23283243.2344                   23283245.8754
   8519206.26247   6639454.56144  23503911.8444                   23503915.6024
   3652048.98048   2855547.74746  21175111.0004                   21175112.4414
   7348181.21146   5725702.85243  24008159.1254                   24008161.4454
  -7894767.95347  -6114871.98244  23033844.6334                   23033848.7114
  -4332757.07448  -3353765.57346  20903984.2814                   20903983.7704
   2994638.08647   2337648.52344  23768057.5784                   23768061.7194
  -3394847.80148  -2630618.07846  21344599.7894                   21344598.6254
 11  9 21 18 20 30.0000000  0  8G24G07G08G11G04G17G26G28
   3839777.20347   2995493.54644  23277094.5634                   23277097.9844
   8520252.52047   6640269.55744  23504110.2734                   23504114.2934
   3621455.40248   2831708.50046  21169289.6804                   21169290.2304
   7340103.84846   5719408.69643  24006622.8524                   24006624.5784
  -8112339.32047  -6284407.96544  22992441.2344                   22992445.1764
  -4449236.08248  -3444528.45246  20881819.3914                   20881818.9614
   2950855.88347   2303532.43044  23759726.7584                   23759729.7234
  -3515605.22348  -2724714.78046  21321620.0704                   21321619.1764
 11  9 21 18 21  0.0000000  0  8G24G07G08G11G04G17G26G28
   3807810.98846   2970584.69944  23271012.0634                   23271015.0664
   8521425.86746   6641183.58344  23504333.7274                   23504338.5594
   3591285.64847   2808199.51146  21163548.6484                   21163549.0314
   7332187.21546   5713239.74443  24005116.3834                   24005118.2274
  -8329815.42647  -6453869.72344  22951057.6334                   22951061.0314
  -4565470.46548  -3535100.69946  20859700.5704                   20859700.0904
   2907317.54347   2269606.29944  23751441.7504                   23751445.0824
  -3636292.12548  -2818756.53646  21298654.1954                   21298653.3364
 11  9 21 18 21 30.0000000  0  8G24G07G08G11G04G17G26G28
   3776191.03947   2945945.69544  23264995.7424                   23264998.1684
   8522728.45347   6642198.30244  23504582.3054                   23504585.9304
   3561542.05147   2785022.57546  21157888.8754                   21157889.3714
   7324433.68446   5707197.88443  24003640.7194                   24003642.6294
  -8547188.52047  -6623251.18544  22909692.1644                   22909696.1414
  -4681456.79748  -3625479.66846  20837629.2504                   20837628.5984
   2864024.49247   2235871.36844  23743202.3674                   23743206.4304
  -3756902.27347  -2912738.48746  21275703.1414                   21275701.5864
 11  9 21 18 22  0.0000000  0  8G24G07G08G11G04G17G26G28
   3744918.98046   2921577.73044  23259044.4064                   23259047.3054
   8524162.11346   6643315.21044  23504854.2584                   23504860.5434
   3532227.07447   2762179.63345  21152310.2344                   21152311.1564
   7316844.62947   5701284.20443  24002196.6644                   24002198.3954
  -8764451.34847  -6792546.77744  22868348.8674                   22868352.3714
  -4797191.60948  -3715662.65547  20815605.4844                   20815605.0634
   2820977.98046   2202328.53044  23735011.7974                   23735015.2154
  -3877430.34448  -3006656.46346  21252767.4224                   21252765.8284
 11  9 21 18 22 30.0000000  0  8G24G07G08G11G04G17G26G28
   3713994.14847   2897480.40344  23253160.1094                   23253161.7704
   8525725.98846   6644533.50044  23505152.9534                   23505157.3054
   3503340.20347   2739670.29146  21146813.5314                   21146814.4024
   7309419.03147   5695497.88743  24000784.3284                   24000785.5864
  -8981599.48047  -6961752.95144  22827026.7194                   22827030.7194
  -4912674.46148  -3805649.28946  20793629.7194                   20793629.2194
   2778176.28547   2168976.45644  23726866.9924                   23726871.0274
  -3997873.48847  -3100508.27746  21229847.9694                   21229846.8984
 11  9 21 18 23  0.0000000  0  8G24G07G08G11G04G17G26G28
   3683425.21947   2873660.32444  23247341.9844                   23247345.8484
   8527428.56346   6645859.89844  23505477.1254                   23505481.7894
   3474890.22747   2717501.37145  21141400.0394                   21141400.6134
   7302165.29347   5689845.54343  23999404.0864                   23999406.0984
  -9198618.64147  -7130858.67544  22785729.2194                   22785732.3134
  -5027895.29348  -3895431.77346  20771703.9924                   20771704.1094
   2735627.62947   2135821.56944  23718770.1414                   23718773.6454
  -4118219.21548  -3194284.17546  21206947.0704                   21206945.6724
 11  9 21 18 23 30.0000000  0  8G24G07G08G11G04G17G26G28
   3653210.24647   2850116.11144  23241593.1644                   23241595.9924
   8529267.51647   6647292.57544  23505828.0394                   23505831.5234
   3446875.35948   2695671.49446  21136068.8364                   21136069.7034
   7295081.27046   5684325.41743  23998055.8914                   23998057.9614
  -9415505.84447  -7299861.52344  22744456.7504                   22744460.3094
  -5142855.01648  -3985010.78846  20749827.7734                   20749827.7664
   2693328.75047   2102861.29644  23710721.3284                   23710724.8874
  -4238466.03548  -3287983.01446  21184064.8284                   21184063.8054
 11  9 21 18 24  0.0000000  0  8G24G07G08G11G04G17G26G28
   3623351.37147   2826849.38244  23235911.5704                   23235914.3754
   8531245.00446   6648833.17644  23506203.6644                   23506209.2464
   3419298.04748   2674182.57946  21130820.7504                   21130821.8524
   7288168.74647   5678938.88543  23996740.6484                   23996742.5234
  -9632253.60247  -7468755.77444  22703211.4924                   22703214.4304
  -5257550.06648  -4074383.56146  20728002.3284                   20728001.8554
   2651281.27347   2070096.89244  23702719.5164                   23702723.7774
  -4358608.10548  -3381600.21946  21161202.7274                   21161201.4924
 11  9 21 18 24 30.0000000  0  8G24G07G08G11G04G17G26G28
   3593852.17247   2803862.87344  23230297.8524                   23230300.8324
   8533364.89146   6650484.75843  23506607.9454                   23506611.7304
   3392162.15248   2653037.62245  21125657.0164                   21125658.3524
   7281431.43046   5673688.95143  23995458.3444                   23995460.1564
  -9848852.52347  -7637534.00344  22661993.4304                   22661996.5004
  -5371975.54348  -4163546.27346  20706227.8984                   20706227.3244
   2609488.13347   2037530.70644  23694766.4534                   23694770.3794
  -4478638.10548  -3475130.10046  21138361.2734                   21138360.0474
 11  9 21 18 25  0.0000000  0  8G24G07G08G11G04G17G26G28
   3564711.41047   2781155.73344  23224752.0864                   23224755.2974
   8535625.01646   6652245.55244  23507037.9614                   23507042.0434
   3365466.57048   2632235.76546  21120577.4224                   21120578.2664
   7274867.52346   5668574.03543  23994209.4144                   23994212.4414
 -10065299.07847  -7806193.53944  22620805.4924                   22620808.1454
  -5486131.59848  -4252499.04746  20684504.8594                   20684503.8444
   2567946.83647   2005160.76144  23686861.5004                   23686865.9964
  -4598553.62148  -3568570.77746  21115542.1804                   21115541.1914
 11  9 21 18 25 30.0000000  0  8G24G07G08G11G04G17G26G28
   3535929.14146   2758727.86844  23219275.2424                   23219278.8094
   8538025.57846   6654115.88044  23507494.7274                   23507499.2034
   3339211.94548   2611777.52246  21115581.4304                   21115582.2424
   7268476.75446   5663594.17843  23992993.3284                   23992994.9304
 -10281587.72747  -7974730.01044  22579646.4144                   22579650.1054
  -5600016.67248  -4341240.66346  20662833.0864                   20662832.3134
   2526657.12147   1972986.84544  23679004.2504                   23679007.5594
  -4718350.80148  -3661919.23146  21092745.6174                   21092744.5004
 11  9 21 18 26  0.0000000  0  8G24G07G08G11G04G17G26G28
   3507506.70746   2736580.45144  23213867.0704                   23213870.0474
   8540568.10247   6656096.73844  23507979.0944                   23507984.2304
   3313399.60547   2591663.87946  21110669.6094                   21110670.9064
   7262260.85946   5658750.48543  23991810.5784                   23991812.3164
 -10497711.59847  -8143138.10045  22538519.7274                   22538522.0864
  -5713628.12548  -4429769.05446  20641213.3134                   20641212.7584
   2485619.49647   1941009.33444  23671195.8594                   23671199.9064
  -4838024.39548  -3755171.39546  21069972.4694                   21069971.0704
 11  9 21 18 26 30.0000000  0  8G24G07G08G11G04G17G26G28
   3479440.87547   2714710.88244  23208526.1564                   23208529.4454
   8543249.00447   6658185.44944  23508490.1724                   23508494.8094
   3288026.40647   2571892.44946  21105840.8524                   21105842.4224
   7256216.33646   5654040.24743  23990660.5554                   23990663.0474
 -10713668.64547  -8311416.18044  22497424.0314                   22497426.7304
  -5826967.90648  -4518085.77346  20619645.3594                   20619644.7934
   2444829.85547   1909225.09544  23663433.5944                   23663437.3054
  -4957573.91448  -3848326.88946  21047223.1094                   21047221.7424
 11  9 21 18 27  0.0000000  0  8G24G07G08G11G04G17G26G28
   3451729.97347   2693117.85344  23203252.6254                   23203256.6414
   8546066.83647   6660380.82243  23509025.7194                   23509030.1374
   3263090.88747   2552462.05746  21101096.0314                   21101097.4144
   7250341.14846   5649462.04943  23989542.7274                   23989544.9964
 -10929455.25047  -8479561.47444  22456361.2664                   22456364.5514
  -5940036.22748  -4606190.94946  20598128.8204                   20598128.7894
   2404285.57447   1877632.03744  23655718.2734                   23655722.1414
  -5076997.50448  -3941384.24346  21024497.7584                   21024496.3954
 11  9 21 18 27 30.0000000  0  8G24G07G08G11G04G17G26G28
   4999794.84447   3899402.07544  23497840.1724                   23497843.0474
  10124441.08647   7890282.49744  23809381.1884                   23809386.0864
   4814013.94147   3760973.41546  21396226.5784                   21396228.5634
   8820055.46946   6872615.90043  24288249.0474                   24288251.6524
  -9569638.68747  -7419964.04544  22715125.5554                   22715128.8634
  -4477408.14147  -3466480.75246  20876457.9614                   20876457.3134
   3939407.36347   3073830.69844  23947842.9534                   23947846.3014
  -3620867.53148  -2806737.52746  21301589.9304                   21301588.4454
 11  9 21 18 28  0.0000000  0  8G24G07G08G11G04G17G26G28
   4972790.37146   3878359.51444  23492701.3594                   23492704.8444
  10127528.56346   7892688.02144  23809968.5314                   23809973.6484
   4789950.84847   3742222.83945  21391647.8444                   21391649.1254
   8814515.27746   6868298.80043  24287194.9774                   24287197.8204
  -9785071.52047  -7587833.64345  22674130.0554                   22674133.5044
  -4589933.54748  -3554162.88546  20855045.2734                   20855044.4144
   3899348.56347   3042615.94344  23940220.7194                   23940223.1374
  -3740031.32848  -2899592.44846  21278913.6884                   21278912.4494
 11  9 21 18 28 30.0000000  0  8G24G07G08G11G04G17G26G28
   4946131.69547   3857586.43044  23487628.5864                   23487632.0554
  10130742.87546   7895192.31844  23810579.8834                   23810585.9574
   4766316.73847   3723806.52745  21387150.7344                   21387151.9884
   8809134.92246   6864106.07943  24286171.4384                   24286173.9844
 -10000326.90247  -7755565.00145  22633168.3284                   22633171.1644
  -4702193.00847  -3641637.76946  20833682.8284                   20833682.4844
   3859523.72747   3011583.48244  23932641.3984                   23932644.7034
  -3859066.97748  -2992347.52246  21256261.9844                   21256260.7664
 11  9 21 18 29  0.0000000  0  8G24G07G08G11G04G17G26G28
   4919821.38346   3837084.79644  23482621.3674                   23482624.9694
  10134087.09846   7897797.80544  23811217.9064                   23811222.6024
   4743114.28947   3705726.57945  21382735.2664                   21382736.9774
   8803917.13746   6860040.12943  24285178.8364                   24285181.0274
 -10215396.62147  -7923151.68444  22592241.8984                   22592244.7894
  -4814182.31648  -3728902.17046  20812371.9064                   20812371.6764
   3819934.98447   2980734.97944  23925108.6484                   23925111.3204
  -3977967.99248  -3084997.67946  21233635.9614                   21233634.6884
 11  9 21 18 29 30.0000000  0  8G24G07G08G11G04G17G26G28
   4893857.72747   3816853.24844  23477681.4774                   23477684.5984
  10137559.57446   7900503.25643  23811878.5704                   23811882.3714
   4720342.27047   3687982.01045  21378402.4144                   21378403.2234
   8798859.79746   6856099.21443  24284216.0004                   24284218.8364
 -10430276.98047  -8090590.76444  22551351.3134                   22551354.6724
  -4925902.10248  -3815956.54846  20791112.6484                   20791112.2194
   3780579.97347   2950068.62044  23917619.4774                   23917622.7974
  -4096732.42648  -3177541.41146  21211035.5554                   21211034.6094
 11  9 21 18 30  0.0000000  0  8G24G07G08G11G04G17G26G28
   4868238.79746   3796890.37143  23472806.3594                   23472808.7504
  10141158.09847   7903306.95344  23812563.6254                   23812569.0664
   4697998.57847   3670571.23445  21374150.4144                   21374151.3484
   8793961.09446   6852281.88343  24283284.3284                   24283286.7624
 -10644964.84047  -8257879.89744  22510497.1954                   22510500.6484
  -5037352.59848  -3902801.09646  20769904.1804                   20769903.8204
   3741455.81347   2919582.14744  23910174.5394                   23910177.8524
  -4215358.16048  -3269977.06546  21188462.2194                   21188461.0084
 11  9 21 18 30 30.0000000  0  8G24G07G08G11G04G17G26G28
   4842960.84447   3777193.15443  23467996.0554                   23467998.6254
  10144879.10246   7906206.06644  23813271.7814                   23813276.9184
   4676080.03948   3653491.73645  21369979.5704                   21369981.0594
   8789217.71146   6848585.67443  24282382.1484                   24282383.7814
 -10859457.84447  -8425017.19645  22469680.9694                   22469683.6884
  -5148536.45348  -3989437.87346  20748746.5634                   20748746.4224
   3702558.28147   2889272.29344  23902772.0634                   23902776.1684
  -4333844.97748  -3362304.48546  21165914.9144                   21165913.6054
 11  9 21 18 31  0.0000000  0  8G24G07G08G11G04G17G26G28
   4818024.03547   3757761.76143  23463251.4774                   23463253.1214
  10148722.37947   7909200.49743  23814003.4144                   23814008.5594
   4654586.77747   3636743.60245  21365889.3364                   21365891.3204
   8784629.02046   6845009.91143  24281508.2424                   24281511.4384
 -11073751.08247  -8591998.81145  22428902.1174                   22428904.4304
  -5259452.21548  -4075865.73546  20727640.2584                   20727639.3444
   3663886.52747   2859138.30944  23895413.8524                   23895417.1764
  -4452189.15648  -3454520.74546  21143394.5004                   21143393.6724
 11  9 21 18 31 30.0000000  0  8G24G07G08G11G04G17G26G28
   4793420.50847   3738590.15543  23458568.4614                   23458571.9734
  10152680.04347   7912284.02844  23814757.0314                   23814761.8594
   4633511.04347   3620320.82745  21361879.1484                   21361880.6724
   8780187.29746   6841548.68043  24280663.6414                   24280665.9654
 -11287846.44147  -8758826.23445  22388160.9694                   22388164.4144
  -5370106.40648  -4162089.80846  20706583.2664                   20706582.7774
   3625432.05147   2829173.63944  23888095.6414                   23888099.3984
  -4570394.56248  -3546628.87546  21120900.9384                   21120899.7424
 11  9 21 18 32  0.0000000  0  8G24G07G08G11G04G17G26G28
   4769147.76647   3719676.23043  23453950.3524                   23453953.0864
  10156749.74247   7915454.87044  23815531.4924                   23815537.4494
   4612850.48447   3604221.56845  21357947.7034                   21357949.3324
   8775890.07846   6838200.08043  24279845.8284                   24279848.6764
 -11501741.28947  -8925497.43445  22347457.5704                   22347461.1564
  -5480500.12947  -4248110.89246  20685575.9304                   20685575.3554
   3587191.86347   2799375.92044  23880819.2034                   23880823.7194
  -4688459.74248  -3638627.73346  21098433.7194                   21098433.2114
 11  9 21 18 32 30.0000000  0  8G24G07G08G11G04G17G26G28
   4745201.96547   3701017.08944  23449393.1564                   23449396.3164
  10160927.51247   7918709.86544  23816327.1174                   23816333.0904
   4592601.12147   3588442.72145  21354094.2114                   21354096.6174
   8771733.65246   6834961.19143  24279054.8984                   24279058.4264
 -11715433.80947  -9092010.95445  22306793.3914                   22306796.6994
  -5590635.64848  -4333930.79146  20664617.8914                   20664617.4534
   3549161.10947   2769741.50544  23873582.2734                   23873585.4734
  -4806384.69948  -3730517.33346  21075993.9454                   21075992.5044
 11  9 21 18 33  0.0000000  0  8G24G07G08G11G04G17G26G28
   4721584.78947   3682613.99643  23444899.1414                   23444901.4184
  10165215.12947   7922050.52444  23817143.0634                   23817148.6644
   4572765.00047   3572985.88045  21350319.7424                   21350321.8714
   8767719.83646   6831833.38543  24278291.5634                   24278295.0984
 -11928917.20747  -9258361.52345  22266168.8134                   22266171.8164
  -5700510.17248  -4419547.31446  20643709.6954                   20643709.1054
   3511340.95347   2740271.09043  23866386.0234                   23866389.0664
  -4924164.08248  -3822293.49746  21053580.6094                   21053580.2814
 11  9 21 18 33 30.0000000  0  8G24G07G08G11G04G17G26G28
   4698287.68447   3664460.34543  23440465.3524                   23440468.9144
  10169603.53547   7925469.65044  23817978.6484                   23817985.5984
   4553333.43047   3557844.28045  21346622.1174                   21346623.9844
   8763839.94946   6828809.96143  24277553.1174                   24277556.3674
 -12142194.33247  -9424551.36745  22225583.4774                   22225586.1024
  -5810130.87147  -4504966.03446  20622849.5634                   20622848.9534
   3473722.12147   2710957.55843  23859226.5634                   23859230.5004
  -5041802.22348  -3913959.60246  21031195.2194                   21031194.3984
 11  9 21 18 34  0.0000000  0  8G24G07G08G11G04G17G26G28
   4675307.25847   3646553.43843  23436093.0704                   23436095.2234
  10174089.94146   7928965.18643  23818831.6954                   23818838.1564
   4534302.91047   3543015.14645  21343000.9844                   21343002.8094
   8760090.26646   6825887.91443  24276839.3524                   24276842.2774
 -12355263.06247  -9590578.82445  22185037.3524                   22185040.9774
  -5919499.75847  -4590188.55946  20602036.9224                   20602036.7544
   3436300.30147   2681797.54144  23852106.2424                   23852109.5084
  -5159298.76648  -4005515.36246  21008836.1954                   21008835.1954
 11  9 21 18 34 30.0000000  0  9G24G07G08G11G04G17G20G26G28
   6228060.77047   4856491.13744  23731572.1254                   23731575.7464
  11754090.62146   9160134.14044  24119496.6884                   24119503.8524
   6091090.85247   4756096.54345  21639247.6724                   21639249.5944
  10331887.67646   8050665.08642  24575943.2034                   24575945.8754
 -10992694.46147  -8528836.91545  22444325.7424                   22444328.3754
  -4453195.48048  -3447613.79546  20881065.4774                   20881065.2074
  12361110.48856   9657243.84953  24752965.1414                   24752970.1644
   4974492.78547   3880388.97543  24144814.8204                   24144818.2464
  -3701229.28548  -2869357.32946  21286297.7114                   21286296.0704
 11  9 21 18 35  0.0000000  0  9G24G07G08G11G04G17G20G26G28
   6205693.52046   4839062.05943  23727316.0314                   23727319.2234
  11758752.16846   9163766.08143  24120383.6884                   24120390.8284
   6072843.03547   4741877.33245  21635775.6644                   21635777.5204
  10328378.69146   8047930.65642  24575275.8524                   24575278.8634
 -11205350.77347  -8694543.01745  22403858.2894                   22403861.8204
  -4562077.25048  -3532456.73746  20860346.4694                   20860345.8674
  12208059.01246   9537983.03542  24723841.7344                   24723845.4614
   4937442.86347   3851518.76943  24137763.4924                   24137767.9964
  -3818451.09848  -2960699.00846  21263991.3054                   21263989.8674
 11  9 21 18 35 30.0000000  0  9G24G07G08G11G04G17G20G26G28
   6183621.01647   4821862.57544  23723115.0864                   23723119.1024
  11763489.41846   9167457.04243  24121285.9844                   24121292.3954
   6054974.69547   4727953.81745  21632375.5314                   21632377.3954
  10324978.19546   8045280.84842  24574628.2274                   24574631.8284
 -11417804.35947  -8860091.13645  22363429.9304                   22363433.2734
  -4670725.11748  -3617117.42446  20839671.2664                   20839670.5634
  12055220.91046   9418888.48943  24694756.4304                   24694760.8364
   4900565.94947   3822783.33444  24130746.1644                   24130751.0394
  -3935541.53548  -3051938.32046  21241709.5784                   21241708.7814
 11  9 21 18 36  0.0000000  0  9G24G07G08G11G04G17G20G26G28
   6161840.90246   4804890.93844  23718971.2274                   23718975.3204
  11768299.87146   9171204.94244  24122201.2424                   24122209.0634
   6037483.32047   4714324.03745  21629047.1484                   21629048.8324
  10321684.32746   8042713.96743  24574001.5234                   24574005.6604
 -11630052.16047  -9025478.89345  22323040.2584                   22323043.2034
  -4779140.12148  -3701596.65646  20819040.8674                   20819039.8634
  11902599.31346   9299962.68243  24665713.2114                   24665717.8164
   4863859.14147   3794180.50244  24123761.4774                   24123765.9924
  -4052498.91048  -3143073.94946  21219453.1254                   21219452.1454
 11  9 21 18 36 30.0000000  0  9G24G07G08G11G04G17G20G26G28
   6140355.55546   4788149.02144  23714882.2734                   23714886.0314
  11773186.31646   9175012.17843  24123131.3754                   24123138.6994
   6020371.61347   4700990.11445  21625790.4774                   21625792.6844
  10318499.06346   8040231.89842  24573395.5864                   24573399.8524
 -11842085.93747  -9190699.91145  22282691.4384                   22282693.6054
  -4887318.46147  -3785891.46146  20798455.3754                   20798454.3364
  11750201.98046   9181211.60143  24636713.3054                   24636717.3364
   4827324.21547   3765711.59843  24116809.0944                   24116814.1374
  -4169316.66848  -3234100.77846  21197223.5784                   21197222.9414
 11  9 21 18 37  0.0000000  0  8G24G07G08G04G17G20G26G28
   6119164.91846   4771636.67143  23710849.9144                   23710854.3754
  11778148.64546   9178878.46643  24124076.2734                   24124083.4024
   6003639.52047   4687952.00045  21622607.0004                   21622608.9654
 -12053900.74247  -9355750.27045  22242384.4224                   22242386.9414
  -4995258.57048  -3870000.64646  20777914.5704                   20777914.1294
  11598033.96546   9062639.21243  24607756.9144                   24607761.4924
   4790960.35547   3737375.92943  24109889.6334                   24109893.9844
  -4285991.09048  -3325015.92946  21175021.2424                   21175020.2774
 11  9 21 18 37 30.0000000  0  8G24G07G08G04G17G20G26G28
   6098275.46946   4755359.05544  23706874.9924                   23706879.2814
  11783193.05946   9182808.74243  24125036.2114                   24125043.0204
   5987293.53147   4675214.72445  21619496.1884                   21619498.4344
 -12265484.31647  -9520620.47945  22202121.2274                   22202124.0394
  -5102952.85948  -3953918.26846  20757420.9924                   20757420.6604
  11446107.18846   8944254.76843  24578847.2114                   24578850.5274
   4754773.43447   3709178.20344  24103003.5554                   24103008.8674
  -4402511.72748  -3415811.25446  21152848.2734                   21152847.0004
 11  9 21 18 38  0.0000000  0  8G24G07G08G04G17G20G26G28
   6077697.69946   4739324.30543  23702959.7034                   23702963.6054
  11788330.53946   9186811.53244  24126014.7034                   24126021.0664
   5971344.28547   4662786.61545  21616461.5944                   21616463.7464
 -12476820.83247  -9685298.15445  22161905.2894                   22161907.9064
  -5210389.41448  -4037635.07946  20736976.6414                   20736976.0744
  11294437.04346   8826070.40143  24549984.5554                   24549989.3014
   4718773.27347   3681125.95843  24096153.5084                   24096157.2304
  -4518864.03948  -3506475.41146  21130706.8444                   21130705.9574
 11  9 21 18 38 30.0000000  0  8G24G07G08G04G17G20G26G28
   6057433.88746   4723534.20344  23699104.2114                   23699106.6954
  11793563.17246   9190888.48843  24127010.6724                   24127017.2384
   5955793.67247   4650669.11345  21613502.3284                   21613505.0204
 -12687902.65247  -9849777.37245  22121737.4384                   22121740.1804
  -5317564.71548  -4121148.30646  20716581.7344                   20716581.4454
  11143031.05946   8708091.82343  24521172.6564                   24521176.7704
   4682961.58646   3653220.59343  24089337.9844                   24089342.1414
  -4635042.31648  -3597003.96046  21108599.0234                   21108598.2274
 11  9 21 18 39  0.0000000  0  8G24G07G08G04G17G20G26G28
   6037481.27346   4707986.60644  23695306.8674                   23695310.9344
  11798887.97746   9195037.24943  24128024.1804                   24128031.1564
   5940638.84447   4638860.02445  21610619.1804                   21610620.9654
 -12898726.87147 -10014055.84945  22081618.9924                   22081621.8674
  -5424480.07048  -4204458.97746  20696236.4454                   20696235.9144
  10991891.86746   8590321.16443  24492411.3834                   24492416.0704
   4647334.64846   3625459.14943  24082557.9064                   24082563.1334
  -4751044.42648  -3687395.25046  21086524.5084                   21086523.6054
 11  9 21 18 39 30.0000000  0  8G24G07G08G04G17G20G26G28
   6017834.71947   4692677.48844  23691568.9144                   23691571.8284
  11804300.15247   9199254.14344  24129054.3444                   24129061.8054
   5925875.05947   4627355.65145  21607809.3754                   21607811.7734
 -13109293.27747 -10178133.44545  22041549.2814                   22041551.9734
  -5531139.22748  -4287570.01646  20675940.0314                   20675939.4494
  10841019.80546   8472758.65243  24463701.9224                   24463705.0824
   4611886.94146   3597837.38043  24075814.7504                   24075818.6604
  -4866871.75848  -3777650.34046  21064483.5314                   21064482.4144
 11  9 21 18 40  0.0000000  0  8G24G07G08G04G17G20G26G28
   5998490.71147   4677604.12644  23687887.5164                   23687890.8404
  11809796.19146   9203536.32443  24130100.4774                   24130108.1564
   5911498.75047   4616153.19645  21605073.9774                   21605075.7234
 -13319599.57047 -10342008.35545  22001529.7894                   22001532.3014
  -5637544.07448  -4370482.89146  20655691.4384                   20655691.4024
  10690416.06646   8355405.13643  24435042.0004                   24435046.4224
   4576614.17646   3570351.95444  24069101.5314                   24069106.4844
  -4982524.08648  -3867769.05446  21042475.4924                   21042474.1214
 11  9 21 18 40 30.0000000  0  8G24G07G08G04G17G20G26G28
   5979446.09847   4662764.05744  23684263.7664                   23684267.1484
  11815372.96546   9207881.45443  24131162.1414                   24131170.3094
   5897507.02747   4605250.41445  21602411.3984                   21602413.6884
 -13529643.58247 -10505678.88945  21961559.3284                   21961561.9614
  -5743696.32847  -4453198.93846  20635491.8204                   20635491.4844
  10540082.76646   8238262.51543  24406434.4924                   24406438.3674
   4541512.66046   3542999.98143  24062421.9144                   24062426.6414
  -5098000.23448  -3957750.49346  21020501.1254                   21020500.4384
 11  9 21 18 41  0.0000000  0  8G24G07G08G04G17G20G26G28
   5960697.52047   4648154.66643  23680695.8594                   23680698.3794
  11821027.30546   9212286.90743  24132238.1254                   24132246.3404
   5883896.15647   4594644.41145  21599821.5554                   21599823.9304
 -13739423.32848 -10669143.50745  21921639.6484                   21921642.1524
  -5849598.18748  -4535719.88146  20615338.8834                   20615339.0204
  10390022.27046   8121332.32543  24377879.1804                   24377882.4064
   4506578.24646   3515778.20843  24055774.3674                   24055779.8014
  -5213299.45348  -4047594.06846  20998560.2664                   20998559.3444
 11  9 21 18 41 30.0000000  0  8G24G07G08G04G17G20G26G28
   5942237.19547   4633769.90343  23677183.4144                   23677186.9144
  11826751.19946   9216746.67743  24133328.3364                   24133335.8364
   5870658.03547   4584328.85145  21597302.5864                   21597304.8094
 -13948940.95747 -10832403.87745  21881769.5634                   21881772.3444
  -5955256.48448  -4618051.02446  20595233.0474                   20595232.6294
  10240231.28946   8004612.25043  24349374.9844                   24349378.6334
   4471802.50046   3488680.01043  24049157.0164                   24049162.3204
  -5328425.84448  -4137302.97546  20976652.6414                   20976651.6684
 11  9 21 18 42  0.0000000  0  8G24G07G08G04G17G20G26G28
   7499482.89847   5847208.01243  23973516.9304                   23973520.1294
  13407961.82046  10448858.43243  24434223.2664                   24434229.6644
   7433210.59047   5801902.14145  21894646.2344                   21894648.8524
 -12582767.08247  -9767852.69445  22141743.5944                   22141746.2424
  -4485248.61748  -3472590.36946  20874966.0394                   20874965.7504
  11666137.39146   9115707.94543  24620716.0474                   24620719.6954
   6012603.15647   4689303.73643  24342361.3834                   24342366.7664
  -3867954.25448  -2999273.19046  21254571.0394                   21254569.9734
 11  9 21 18 42 30.0000000  0  8G24G07G08G04G17G20G26G28
   7481589.75446   5833265.27743  23970112.7584                   23970116.3014
  13413816.07046  10453419.70043  24435336.6484                   24435344.6604
   7420709.21547   5792160.67845  21892267.8834                   21892269.4694
 -12791753.65247  -9930699.27745  22101974.8674                   22101977.5634
  -4590424.17648  -3554545.35946  20854951.8364                   20854951.8364
  11516892.16446   8999413.18643  24592314.9534                   24592319.2734
   5978133.69147   4662444.26143  24335802.8054                   24335807.6254
  -3982731.85248  -3088710.31146  21232729.7504                   21232728.5634
 11  9 21 18 43  0.0000000  0  8G24G07G08G04G17G20G26G28
   7463970.24246   5819535.67943  23966759.7344                   23966762.7974
  13419725.16046  10458023.73843  24436461.5704                   24436469.4104
   7408565.82447   5782698.16345  21889956.4534                   21889959.1644
 -13000476.48847 -10093340.35345  22062256.2584                   22062258.4224
  -4695366.11748  -3636318.31546  20834982.1644                   20834981.8094
  11367917.68046   8883329.26843  24563966.1254                   24563969.9614
   5943806.45347   4635695.60043  24329270.3054                   24329275.8014
  -4097339.27348  -3178014.81146  21210920.6644                   21210919.9964
 11  9 21 18 43 30.0000000  0  8G24G07G08G04G17G20G26G28
   7446618.37146   5806014.64543  23963457.2664                   23963461.0394
  13425683.56346  10462666.21843  24437595.9384                   24437604.2504
   7396774.67647   5773510.10845  21887713.3984                   21887715.1454
 -13208936.01248 -10255776.23345  22022587.5164                   22022589.5044
  -4800078.97348  -3717912.75946  20815056.2734                   20815055.7424
  11219212.98446   8767455.57343  24535668.8204                   24535672.9884
   5909614.85947   4609052.62443  24322763.3984                   24322769.3094
  -4211778.09448  -3267187.94746  21189143.6804                   21189142.7304
 11  9 21 18 44  0.0000000  0  8G24G07G08G04G17G20G26G28
   7429532.12946   5792700.50543  23960205.7274                   23960210.1764
  13431689.29746  10467345.54444  24438739.1094                   24438747.4414
   7385333.46147   5764594.74645  21885536.2034                   21885538.5394
 -13417128.68747 -10418004.20945  21982969.4534                   21982971.8714
  -4904563.75448  -3799329.48646  20795173.2274                   20795172.6024
  11070781.30546   8651794.64743  24507422.6564                   24507426.0704
   5875556.16447   4582513.17543  24316283.0704                   24316288.2704
  -4326046.37148  -3356228.19546  21167399.1254                   21167398.0164
 11  9 21 18 44 30.0000000  0  8G24G07G08G04G17G20G26G28
   7412705.60246   5779588.89043  23957004.1564                   23957007.9024
  13437736.76646  10472057.35544  24439889.3984                   24439898.7854
   7374236.00047   5755947.21845  21883424.6564                   21883426.4694
 -13625055.02748 -10580024.65345  21943403.0394                   21943404.7624
  -5008824.62548  -3880571.73046  20775332.8284                   20775332.5124
  10922622.18846   8536346.05943  24479229.1564                   24479233.0394
   5841623.85246   4556072.26043  24309826.2664                   24309831.5864
  -4440146.14548  -3445137.13046  21145686.9144                   21145685.9574
 11  9 21 18 45  0.0000000  0  8G24G07G08G04G17G20G26G28
   7396131.30546   5766673.70143  23953849.6094                   23953854.5634
  13443818.46146  10476795.88144  24441048.0864                   24441056.3404
   7363475.24247   5747562.08545  21881376.3284                   21881379.1644
 -13832716.93747 -10741839.04745  21903885.6254                   21903887.9774
  -5112867.42248  -3961644.04846  20755534.1174                   20755533.7704
  10774733.25846   8421107.98743  24451087.3444                   24451090.3164
   5807810.15247   4529723.76843  24303392.2504                   24303396.3094
  -4554080.48448  -3533917.15446  21124006.0394                   21124005.1844
 11  9 21 18 45 30.0000000  0  8G24G07G08G04G17G20G26G28
   7379806.46946   5753952.91043  23950744.2114                   23950747.8324
  13449931.52046  10481558.87844  24442212.0314                   24442220.9344
   7353048.09847   5739436.89045  21879393.0554                   21879395.5594
 -14040111.93448 -10903445.46045  21864420.0164                   21864421.6024
  -5216693.88748  -4042547.79646  20735777.0234                   20735776.2974
  10627116.63346   8306082.10943  24422995.9454                   24422999.7814
   5774111.51247   4503464.92243  24296979.0084                   24296983.8914
  -4667848.26648  -3622567.39746  21102356.1804                   21102355.5704
 11  9 21 18 46  0.0000000  0  8G24G07G08G04G17G20G26G28
   7363726.21546   5741422.65743  23947683.9064                   23947688.0164
  13456071.30546  10486342.61544  24443380.6724                   24443389.8244
   7342949.42648   5731567.66445  21877471.1484                   21877473.6134
 -14247239.30148 -11064843.31645  21825004.6334                   21825006.9024
  -5320307.66048  -4123285.79946  20716059.9694                   20716059.1254
  10479772.38746   8191268.40843  24394957.7034                   24394961.2544
   5740522.24647   4477291.23043  24290587.6724                   24290592.2384
  -4781450.34048  -3711088.50346  21080739.0084                   21080737.9964
 11  9 21 18 46 30.0000000  0  8G24G07G08G04G17G20G26G28
   7347883.67246   5729077.70043  23944669.5944                   23944673.2464
  13462230.72746  10491141.71543  24444552.9774                   24444562.1054
   7333171.96547   5723948.72545  21875610.2034                   21875613.1564
 -14454100.66047 -11226033.90945  21785640.2734                   21785642.4614
  -5423714.41848  -4203862.52146  20696382.1644                   20696381.9024
  10332698.98846   8076665.81243  24366969.9454                   24366973.7774
   5707034.78547   4451196.92743  24284215.2814                   24284220.5514
  -4894889.37148  -3799482.56846  21059152.0314                   21059151.3204
 11  9 21 18 47  0.0000000  0  8G24G07G08G04G17G20G26G28
   7332275.20747   5716915.15444  23941699.7194                   23941703.1644
  13468406.72746  10495953.79443  24445727.6094                   24445737.4304
   7323712.44147   5716577.52545  21873810.5554                   21873812.3524
 -14660693.78148 -11387015.48345  21746326.6724                   21746328.7274
  -5526915.70748  -4284279.12446  20676743.4144                   20676743.0984
  10185898.31646   7962275.73743  24339035.2664                   24339038.4494
   5673645.48846   4425179.15343  24277861.1644                   24277866.1414
  -5008164.69148  -3887749.07446  21037596.2584                   21037595.2854
 11  9 21 18 47 30.0000000  0  8G24G07G08G04G17G20G26G28
   7316896.81347   5704931.84444  23938773.0164                   23938777.3914
  13474595.27045  10500775.53943  24446904.8914                   24446915.0704
   7314566.44147   5709450.63145  21872069.8134                   21872072.8244
 -14867017.47747 -11547787.11845  21707064.4774                   21707066.8754
  -5629914.45748  -4364537.89846  20657143.7664                   20657143.0824
  10039371.09846   7848098.68443  24311152.5084                   24311155.3794
   5640349.41047   4399233.99943  24271525.8674                   24271530.0434
  -5121276.58248  -3975888.22246  21016072.2034                   21016071.1804
 11  9 21 18 48  0.0000000  0  8G24G07G08G04G17G20G26G28
   7301740.91847   5693121.95744  23935889.2114                   23935892.5554
  13480788.57846  10505600.90343  24448085.3134                   24448093.7074
   7305726.28947   5702562.02845  21870388.2584                   21870390.2774
 -15073073.96947 -11708350.53945  21667852.9924                   21667855.6374
  -5732716.94948  -4444643.74446  20637581.3054                   20637580.2114
   9893114.62146   7734132.67643  24283319.9224                   24283323.5984
   5607138.36746   4373355.06243  24265205.7274                   24265210.6334
  -5234228.66048  -4063902.83446  20994578.0234                   20994577.1374
 11  9 21 18 48 30.0000000  0  7G24G08G04G17G20G26G28
   7286803.77047   5681482.46544  23933046.8284                   23933050.1564
   7297188.07047   5695908.73845  21868763.7274                   21868765.9304
 -15278861.62947 -11868704.47545  21628693.2344                   21628695.5314
  -5835325.54748  -4524598.50746  20618055.0004                   20618054.5904
   9747130.40645   7620378.68343  24255539.9384                   24255543.4384
   5574007.82046   4347538.86843  24258901.0234                   24258905.9064
  -5347020.62948  -4151792.70346  20973114.4144                   20973113.1254
 11  9 21 18 49  0.0000000  0  7G24G08G04G17G20G26G28
   8847502.83247   6897611.51243  24230038.6484                   24230042.2504
   8864368.87947   6917088.43945  22166987.8674                   22166991.0044
 -13908950.77748 -10801241.38145  21889378.1954                   21889380.7154
  -4362317.97348  -3376800.40946  20898359.2894                   20898359.0554
  11176845.60945   8734442.59743  24527605.9844                   24527609.4144
   7116375.57046   5549383.71443  24552404.5314                   24552409.0864
  -3884227.26648  -3011953.72946  21251474.5084                   21251473.6134
 11  9 21 18 49 30.0000000  0  7G24G08G04G17G20G26G28
   8833003.69947   6886313.33543  24227279.5554                   24227283.0744
   8856434.39147   6910905.56145  22165478.5394                   22165480.4534
 -14114183.55148 -10961162.93745  21850323.5474                   21850325.9414
  -4464533.67248  -3456449.03846  20878908.5554                   20878907.9224
  11031421.95345   8621125.37142  24499932.9694                   24499936.4104
   7083405.12946   5523692.31143  24546131.4924                   24546135.6994
  -3996685.64848  -3099583.65246  21230074.6644                   21230073.7234
 11  9 21 18 50  0.0000000  0  7G24G08G04G17G20G26G28
   8818727.79346   6875189.16243  24224562.7894                   24224567.0234
   8848805.81647   6904961.05045  22164026.9144                   22164029.7814
 -14319126.29348 -11120858.49845  21811324.5234                   21811326.5664
  -4566546.60948  -3535939.66146  20859496.0784                   20859495.1414
  10886290.45346   8508035.91643  24472315.5784                   24472318.2504
   7050518.00846   5498065.76243  24539872.3984                   24539877.1914
  -4108966.87948  -3187075.53846  21208707.8054                   21208707.4104
 11  9 21 18 50 30.0000000  0  7G24G08G04G17G20G26G28
   8804668.68046   6864233.88543  24221887.5554                   24221891.4804
   8841476.62547   6899249.85445  22162632.3524                   22162634.7774
 -14523780.38348 -11280329.13945  21772379.9224                   21772381.7854
  -4668361.90648  -3615276.27646  20840121.1644                   20840120.7274
  10741449.57445   8395172.89142  24444752.7584                   24444756.1374
   7017707.58246   5472499.04543  24533628.9534                   24533633.5434
  -4221073.38347  -3274431.27546  21187375.1884                   21187373.9454
 11  9 21 18 51  0.0000000  0  7G24G08G04G17G20G26G28
   8790818.88346   6853441.71643  24219252.1174                   24219255.3984
   8834439.30147   6893766.05545  22161293.4064                   22161295.3554
 -14728147.72747 -11439576.31845  21733489.9924                   21733492.2814
  -4769985.34848  -3694463.38846  20820782.8984                   20820782.2274
  10596897.06345   8282534.59442  24417244.5084                   24417248.9344
   6984965.77346   5446985.67543  24527398.9774                   24527403.7504
  -4333008.25848  -3361653.26846  21166074.5944                   21166073.9184
 11  9 21 18 51 30.0000000  0  7G24G08G04G17G20G26G28
   8777176.57846   6842811.25543  24216655.8754                   24216659.4344
   8827691.59047   6888507.96145  22160009.3674                   22160011.9964
 -14932224.69948 -11598597.25845  21694655.5944                   21694657.7074
  -4871417.52048  -3773501.46446  20801480.8834                   20801480.3714
  10452636.20345   8170123.52143  24389792.5864                   24389796.7304
   6952289.93046   5421523.83243  24521181.3204                   24521186.0904
  -4444769.57048  -3448740.02546  21144807.1724                   21144806.4414
 11  9 21 18 52  0.0000000  0  7G24G08G04G17G20G26G28
   8763741.92646   6832342.57243  24214099.2584                   24214104.6174
   8821233.08647   6883475.19245  22158780.8204                   22158783.2704
 -15136005.92247 -11757387.71745  21655877.1094                   21655878.9144
  -4972656.81648  -3852389.24546  20782215.5784                   20782215.4454
  10308672.10545   8057943.72342  24362396.0474                   24362401.5354
   6919679.57446   5396112.91643  24514975.2344                   24514980.9924
  -4556353.13347  -3535688.26846  21123573.4694                   21123572.6254
 11  9 21 18 52 30.0000000  0  7G24G08G04G17G20G26G28
   8750512.99246   6822034.21142  24211581.9064                   24211586.8874
   8815062.05947   6878666.45145  22157606.4454                   22157609.0204
 -15339487.74247 -11915944.90345  21617155.7734                   21617157.8204
  -5073703.80948  -3931127.16546  20762987.2974                   20762986.5784
  10165007.59055   7945997.43052  24335059.2814                   24335063.4024
   6887132.31646   5370751.26543  24508782.5394                   24508787.1524
  -4667756.77348  -3622496.32246  21102373.9534                   21102373.3404
 11  9 21 18 53  0.0000000  0  7G24G08G04G17G20G26G28
   8737486.81646   6811883.81843  24209103.4384                   24209107.7504
   8809175.10947   6874079.04945  22156486.4224                   22156488.8404
 -15542668.07048 -12074267.14045  21578491.7734                   21578493.8164
  -5174560.20348  -4009716.58246  20743794.6644                   20743794.1454
  10021644.87145   7834286.15242  24307778.7664                   24307782.1214
   6854644.77346   5345436.07443  24502599.9694                   24502605.4734
  -4778979.30548  -3709163.25246  21081209.2344                   21081208.2464
 11  9 21 18 53 30.0000000  0  7G24G08G04G17G20G26G28
   8724662.39546   6801890.63843  24206662.9304                   24206667.9184
   8803570.73847   6869711.86745  22155419.4384                   22155422.6294
 -15745542.21147 -12232350.77745  21539886.1414                   21539887.5434
  -5275225.33648  -4088156.95146  20724638.7504                   20724638.3594
   9878587.80945   7722813.10543  24280556.0634                   24280559.1334
   6822215.16447   5320166.01543  24496429.9454                   24496434.9224
  -4890017.46948  -3795686.51746  21060079.6644                   21060078.1844
 11  9 21 18 54  0.0000000  0  7G24G08G04G17G20G26G28
   8712040.83246   6792055.53443  24204261.5004                   24204265.3594
   8798250.20747   6865565.81945  22154407.7274                   22154410.8164
 -15948103.77747 -12390190.86445  21501339.7584                   21501341.7384
  -5375696.93448  -4166446.52446  20705519.7664                   20705519.5594
   9735842.89845   7611583.34543  24253392.3674                   24253395.1454
   6789844.24646   5294941.71043  24490269.2274                   24490274.8164
  -5000866.21147  -3882062.18646  21038985.2894                   21038984.2934
 11  9 21 18 54 30.0000000  0  7G24G08G04G17G20G26G28
   8699622.30146   6782378.65343  24201898.0704                   24201902.6054
   8793213.26247   6861640.73945  22153449.4384                   22153451.7544
 -16150347.33647 -12547783.14045  21462853.9454                   21462855.9614
  -5475973.35948  -4244584.00746  20686437.9844                   20686437.2974
   9593414.86345   7500600.44643  24226288.2974                   24226291.7624
   6757531.43846   5269762.73443  24484120.7814                   24484126.6564
  -5111521.19947  -3968286.86446  21017928.9614                   21017927.5594
 11  9 21 18 55  0.0000000  0  7G24G08G04G17G20G26G28
   8687407.00846   6772860.09143  24199573.3204                   24199578.6994
   8788460.03947   6857936.77245  22152545.1334                   22152548.1024
 -16352267.30947 -12705123.29045  21424429.6414                   21424431.6914
  -5576052.89848  -4322568.07346  20667393.3914                   20667393.0274
   9451308.98845   7389868.58242  24199247.3284                   24199250.3444
   6725276.53546   5244628.83843  24477981.9304                   24477988.9414
  -5221978.18748  -4054357.28046  20996909.4774                   20996908.4184
 11  9 21 18 55 30.0000000  0  7G24G08G04G17G20G26G28
   8675394.66846   6763499.73143  24197287.7814                   24197292.7114
   8783989.93847   6854453.39745  22151694.1724                   22151697.1844
 -16553858.53947 -12862207.24846  21386067.9384                   21386070.1764
  -5675934.57848  -4400397.96046  20648386.5164                   20648386.1414
   9309529.75446   7279391.31943  24172267.4694                   24172270.8634
   6693078.89146   5219539.44743  24471856.3674                   24471861.5554
  -5332233.43748  -4140270.48746  20975928.8594                   20975927.5904
 11  9 21 18 56  0.0000000  0  7G24G08G04G17G20G26G28
  10239007.85546   7981899.51143  24494833.8594                   24494838.7734
  10355224.68447   8078791.98845  22450690.4064                   22450693.4774
 -15179686.93747 -11791424.09445  21647564.6954                   21647566.2624
  -4200191.34848  -3250468.18246  20929211.1954                   20929211.0944
  10743509.25045   8396777.82843  24445144.7504                   24445147.6174
   8236360.81646   6422096.57243  24765532.9694                   24765538.5044
  -3866856.93748  -2998418.69546  21254780.3364                   21254779.4884
 11  9 21 18 56 30.0000000  0  7G24G08G04G17G20G26G28
  10227402.54747   7972856.29044  24492625.4064                   24492630.2934
  10351321.20347   8075750.13545  22449947.4614                   22449950.7854
 -15380603.70747 -11947982.50645  21609330.5784                   21609333.0164
  -4299671.36348  -3327985.09246  20910280.7194                   20910280.2854
  10602399.85546   8286822.57043  24418292.1724                   24418295.5044
   8204276.86346   6397096.00443  24759428.1724                   24759433.4344
  -3976694.94547  -3084006.77846  21233878.5864                   21233878.0784
 11  9 21 18 57  0.0000000  0  8G24G09G08G04G17G20G26G28
  10216001.30947   7963972.09544  24490455.6804                   24490460.6764
  16995736.20356  13284295.05853  24268227.1414                   24268231.1764
  10347701.20747   8072929.15245  22449259.1174                   22449262.0904
 -15581174.52747 -12104271.36745  21571163.3524                   21571165.3364
  -4398947.92248  -3405343.44346  20891389.0164                   20891388.6134
  10461633.27746   8177134.40643  24391505.8754                   24391508.7664
   8172249.62946   6372139.45943  24753333.3204                   24753338.5984
  -4086317.68448  -3169427.12346  21213018.2034                   21213017.7304
 11  9 21 18 57 30.0000000  0  8G24G09G08G04G17G20G26G28
  10204792.01646   7955237.46744  24488322.9774                   24488328.4614
  16783839.37546  13119180.76243  24227902.9144                   24227908.2854
  10344352.09847   8070319.28344  22448622.4224                   22448624.4774
 -15781406.47347 -12260296.15945  21533060.4304                   21533062.4844
  -4498031.89548  -3482551.74246  20872534.0314                   20872533.5944
  10321201.94146   8067707.26743  24364782.7424                   24364785.4884
   8140266.54346   6347217.45143  24747247.6024                   24747252.4024
  -4195733.45347  -3254686.19046  21192197.3364                   21192196.3674
 11  9 21 18 58  0.0000000  0  8G24G09G08G04G17G20G26G28
  10193772.99246   7946651.12543  24486225.7974                   24486231.3754
  16572213.60546  12954277.58443  24187632.4534                   24187636.6174
  10341272.00447   8067919.02545  22448036.0864                   22448038.7774
 -15981295.92647 -12416054.08946  21495022.6094                   21495025.1254
  -4596923.63348  -3559610.26746  20853715.6254                   20853715.1454
  10181109.27046   7958544.20143  24338123.8054                   24338127.3134
   8108325.12546   6322327.81443  24741169.3594                   24741174.3554
  -4304939.30947  -3339781.68346  21171416.5164                   21171415.0784
 11  9 21 18 58 30.0000000  0  8G24G09G08G04G17G20G26G28
  10182948.20346   7938216.12943  24484166.8524                   24484171.3794
  16360868.32046  12789593.08843  24147413.7664                   24147418.0984
  10338464.31647   8065731.04344  22447501.7504                   22447504.7544
 -16180833.68447 -12571537.97146  21457052.1414                   21457053.6994
  -4695617.57048  -3636514.65446  20834934.5784                   20834934.3714
  10041363.96946   7849651.76243  24311531.3204                   24311534.6764
   8076428.84046   6297473.28743  24735099.7504                   24735104.6214
  -4413927.78548  -3424707.78346  21150676.4224                   21150675.1294
 11  9 21 18 59  0.0000000  0  8G24G09G08G04G17G20G26G28
  10172314.82046   7929930.24643  24482142.7114                   24482148.3914
  16149806.59846  12625129.52943  24107249.3984                   24107255.6524
  10335926.12947   8063753.06244  22447018.7194                   22447021.9024
 -16380017.12548 -12726745.75046  21419148.8444                   21419150.8874
  -4794114.91848  -3713265.85546  20816190.9844                   20816190.8914
   9901968.16446   7741031.65343  24285005.6414                   24285007.7504
   8044574.38346   6272651.44743  24729038.7894                   24729043.7974
  -4522697.16048  -3509463.18246  21129978.0864                   21129977.4924
 11  9 21 18 59 30.0000000  0  8G24G09G08G04G17G20G26G28
  10161874.98446   7921795.18243  24480155.8444                   24480161.5354
  15939036.14146  12460892.89143  24067141.9384                   24067147.4804
  10333659.27047   8061986.47745  22446587.4614                   22446591.3714
 -16578838.85547 -12881671.71146  21381313.9844                   21381315.7704
  -4892412.48048  -3789861.37746  20797486.1024                   20797485.2464
   9762928.76646   7632689.31743  24258546.8674                   24258549.9844
   8012763.48846   6247863.47743  24722984.3984                   24722990.3284
  -4631241.45748  -3594043.17046  21109323.2274                   21109322.5554
 11  9 21 19  0  0.0000000  0  8G24G09G08G04G17G20G26G28
  10151625.13746   7913808.23943  24478205.8134                   24478210.7854
  15728559.21147  12296884.96844  24027090.1884                   24027094.4304
  10331660.00447   8060428.39144  22446207.2034                   22446210.9104
 -16777297.34848 -13036314.61746  21343548.7504                   21343550.1994
  -4990512.28548  -3866302.80546  20778818.5314                   20778817.9494
   9624246.96545   7524625.50743  24232155.6174                   24232159.4304
   7980992.27946   6223106.52342  24716939.6334                   24716944.9844
  -4739560.20748  -3678447.41146  21088710.5944                   21088709.6524
 11  9 21 19  0 30.0000000  0  8G24G09G08G04G17G20G26G28
  10141563.80146   7905968.04742  24476291.0164                   24476296.6564
  15518380.14547  12133109.17843  23987093.9844                   23987097.8014
  10329926.35947   8059077.31144  22445877.7274                   22445881.2894
 -16975388.53948 -13190671.31646  21305853.4384                   21305854.9774
  -5088414.32448  -3942590.13146  20760188.0164                   20760187.5164
   9485926.64145   7416843.55643  24205834.8204                   24205838.2504
   7949258.61746   6198378.71142  24710900.8134                   24710907.1914
  -4847650.49248  -3762673.62946  21068142.3914                   21068140.8914
 11  9 21 19  1  0.0000000  0  8G24G09G08G04G17G20G26G28
  10131689.25046   7898273.48842  24474412.7344                   24474417.2734
  15308502.83246  11969568.51343  23947155.9534                   23947157.8954
  10328456.36747   8057931.67044  22445597.6174                   22445601.8834
 -17173109.28948 -13344739.37046  21268228.0234                   21268229.5944
  -5186118.44548  -4018723.23346  20741595.8524                   20741595.5474
   9347970.32846   7309345.19843  24179583.0084                   24179585.5904
   7917560.17246   6173678.44343  24704868.0084                   24704875.1844
  -4955510.20348  -3846720.18046  21047616.8524                   21047615.9144
 11  9 21 19  1 30.0000000  0  8G24G09G08G04G17G20G26G28
  10121998.64546   7890722.21142  24472568.0634                   24472574.0164
  15098929.95747  11806265.09943  23907275.3204                   23907277.3874
  10327246.57447   8056988.76644  22445368.1094                   22445371.3794
 -17370457.17647 -13498516.88445  21230673.7344                   21230674.6644
  -5283627.18048  -4094704.08146  20723040.3914                   20723040.0084
   9210379.61345   7202131.59042  24153400.4304                   24153402.5274
   7885893.78146   6149003.09442  24698842.9224                   24698849.4344
  -5063138.21948  -3930586.17946  21027135.7274                   21027134.9184
 11  9 21 19  2  0.0000000  0  8G24G09G08G04G17G20G26G28
  10112486.56346   7883310.17443  24470758.9534                   24470764.4144
  14889662.06347  11643199.28543  23867453.0944                   23867455.8054
  10326291.48047   8056244.31345  22445186.6564                   22445190.4304
 -17567432.12547 -13652003.79445  21193190.8524                   21193192.7664
  -5380943.55948  -4170535.04546  20704521.7034                   20704521.0864
   9073154.47746   7095203.00643  24127286.7584                   24127289.7304
   7854253.53146   6124348.07243  24692822.5164                   24692828.3754
  -5170535.59047  -4014272.47946  21006698.7274                   21006697.9964
 11  9 21 19  2 30.0000000  0  8G24G09G08G04G17G20G26G28
  10103150.52346   7876035.18343  24468981.7344                   24468987.3324
  14680702.21146  11480373.50643  23827688.9454                   23827692.8754
  10325588.06347   8055696.00144  22445052.7114                   22445056.7464
 -17764031.69947 -13805198.20846  21155778.8524                   21155780.3164
  -5478069.12548  -4246217.32446  20686039.2034                   20686038.9414
   8936296.87146   6988560.73743  24101243.2114                   24101246.1174
   7822636.24646   6099711.01543  24686805.9454                   24686812.2034
  -5277701.26648  -4097778.24146  20986305.7814                   20986304.7584
 11  9 21 19  3  0.0000000  0  8G24G09G08G04G17G20G26G28
  10093986.78146   7868894.50442  24467238.8834                   24467242.8554
  14472052.48046  11317789.40043  23787984.0474                   23787989.3754
  10325132.19547   8055340.54544  22444965.9384                   22444969.7304
 -17960254.30947 -13958098.87046  21118439.0164                   21118440.4184
  -5575005.81648  -4321752.42946  20667592.6094                   20667592.5554
   8799807.86746   6882205.70643  24075270.8204                   24075273.8594
   7791037.88346   6075088.70343  24680792.8054                   24680799.4384
  -5384634.24248  -4181102.65946  20965957.2504                   20965956.3094
 11  9 21 19  3 30.0000000  0  7G09G08G04G17G20G26G28
  15839139.83246  12383052.51543  24048130.4844                   24048138.0944
  11900338.12547   9282773.53344  22744717.9224                   22744721.8554
 -16580673.86347 -12883101.06146  21380964.2504                   21380965.7114
  -4096334.76248  -3169541.22846  20948974.2194                   20948973.9614
  10239111.32846   8003740.90543  24349160.9384                   24349164.3244
   9334873.56346   7278077.23943  24974575.8914                   24974581.6564
  -3915913.04748  -3036644.62546  21245445.4304                   21245444.6094
 11  9 21 19  4  0.0000000  0  7G09G08G04G17G20G26G28
  15631114.39546  12220954.83443  24008545.5474                   24008551.7344
  11900363.59047   9282793.18044  22744723.2974                   22744726.4804
 -16776140.07047 -13035412.32845  21343768.0394                   21343770.1994
  -4192902.63748  -3244788.94046  20930598.3204                   20930597.8984
  10103360.51246   7897961.12343  24323328.5394                   24323331.7974
   9303298.51246   7253473.06443  24968567.4924                   24968573.4924
  -4022382.32847  -3119607.72146  21225185.4384                   21225184.4494
 11  9 21 19  4 30.0000000  0  7G09G08G04G17G20G26G28
  15423413.58646  12059110.12843  23969021.6954                   23969027.0084
  11900632.89847   9283002.79644  22744774.1024                   22744778.7664
 -16971216.63347 -13187419.96645  21306646.5234                   21306647.7544
  -4289280.44948  -3319888.55046  20912258.4224                   20912257.9694
   9967989.86746   7792477.50643  24297567.8754                   24297571.4654
   9271738.37946   7228880.51543  24962561.7664                   24962568.0864
  -4128609.73447  -3202382.36246  21204970.7194                   21204969.7934
 11  9 21 19  5  0.0000000  0  7G09G08G04G17G20G26G28
  15216042.96146  11897522.78843  23929560.2504                   23929564.4224
  11901145.54747   9283402.03444  22744872.5784                   22744876.2814
 -17165898.48847 -13339120.07046  21269599.6174                   21269601.0664
  -4385466.87548  -3394839.02046  20893954.6334                   20893954.1994
   9833003.64145   7687293.56043  24271880.0314                   24271885.3404
   9240192.53546   7204299.10943  24956558.8204                   24956565.7074
  -4234591.27048  -3284965.40546  21184803.6254                   21184802.5664
 11  9 21 19  5 30.0000000  0  8G02G09G08G04G17G20G26G28
  18567875.09456  14509435.30253  24774709.6884                   24774715.6644
  15009002.12946  11736192.38443  23890161.9304                   23890165.9654
  11901894.89547   9283985.73544  22745015.1174                   22745018.9534
 -17360186.40647 -13490513.18846  21232627.8134                   21232629.7664
  -4481466.02048  -3469643.55046  20875686.6954                   20875685.9804
   9698400.66846   7582408.14643  24246266.9844                   24246270.4774
   9208654.44546   7179723.71443  24950557.4224                   24950564.8714
  -4340328.84847  -3367358.35146  21164682.2034                   21164681.4534
 11  9 21 19  6  0.0000000  0  8G02G09G08G04G17G20G26G28
  18354548.06646  14343206.70043  24734114.4144                   24734120.8324
  14802280.98046  11575110.98243  23850824.3054                   23850826.7814
  11902865.28947   9284741.66244  22745199.2894                   22745203.7894
 -17554091.27347 -13641607.82046  21195728.8134                   21195730.0554
  -4577292.57448  -3544313.61046  20857451.4694                   20857451.2544
   9564170.13346   7477812.92043  24220723.1804                   24220727.6134
   9177108.00046   7155141.77243  24944555.1644                   24944562.2344
  -4445834.40647  -3449570.48446  21144605.2664                   21144604.4384
 11  9 21 19  6 30.0000000  0  8G02G09G08G04G17G20G26G28
  18141242.61746  14176994.80643  24693524.0704                   24693530.4224
  14595877.65246  11414277.34743  23811547.4224                   23811549.2344
  11904048.23847   9285663.24844  22745424.9774                   22745429.3014
 -17747615.64848 -13792405.96946  21158902.7664                   21158903.6954
  -4672952.83248  -3618854.08046  20839247.8364                   20839247.6054
   9430307.77746   7373504.64543  24195250.4224                   24195254.3634
   9145544.70746   7130546.74743  24938548.4144                   24938556.1644
  -4551111.77748  -3531604.83346  21124571.4454                   21124570.5084
 11  9 21 19  7  0.0000000  0  8G02G09G08G04G17G20G26G28
  17927963.46546  14010803.53043  24652938.1804                   24652945.0084
  14389797.99246  11253695.91743  23772330.9924                   23772332.7624
  11905443.86347   9286750.49444  22745691.1564                   22745695.4534
 -17940754.28548 -13942903.52846  21122149.4694                   21122151.1054
  -4768444.75448  -3693263.37446  20821076.3364                   20821076.4024
   9296818.95346   7269487.41743  24169848.4384                   24169851.9104
   9113964.81646   7105938.75743  24932539.4304                   24932546.8874
  -4656156.50048  -3613457.87346  21104582.0944                   21104581.1174
 11  9 21 19  7 30.0000000  0  8G02G09G08G04G17G20G26G28
  17714716.32447  13844637.13544  24612358.3914                   24612365.1294
  14184048.62546  11093371.82143  23733178.0314                   23733180.4694
  11907052.45347   9288003.72144  22745997.1954                   22746001.5784
 -18133501.11748 -14093095.79746  21085470.9384                   21085472.0984
  -4863766.34848  -3767539.95946  20802937.0634                   20802936.8794
   9163709.45346   7165765.69043  24144518.7424                   24144521.3714
   9082368.74646   7081318.16043  24926526.9774                   24926534.3204
  -4760963.55548  -3695125.74446  21084637.9774                   21084637.0204
 11  9 21 19  8  0.0000000  0  8G02G09G08G04G17G20G26G28
  17501507.07847  13678500.26844  24571786.9694                   24571792.2384
  13978636.26247  10933310.31143  23694089.2894                   23694092.5394
  11908874.85247   9289423.53544  22746343.5164                   22746348.4574
 -18325849.63748 -14242977.70946  21048867.8284                   21048869.2464
  -4958914.78548  -3841681.58846  20784830.8594                   20784830.4804
   9030984.89146   7062343.97643  24119262.2034                   24119265.8134
   9050757.03947   7056685.38543  24920511.9924                   24920518.5474
  -4865527.70348  -3776604.33346  21064740.0634                   21064739.3594
 11  9 21 19  8 30.0000000  0  8G02G09G08G04G17G20G26G28
  17288342.12546  13512397.90743  24531221.8594                   24531227.9654
  13773568.51246  10773517.42743  23655066.1334                   23655070.0164
  11910912.64547   9291011.17344  22746731.9774                   22746736.3954
 -18517793.12948 -14392543.99746  21012342.3444                   21012343.8834
  -5053886.70748  -3915685.70946  20766758.5394                   20766757.8284
   8898651.82446   6959227.33743  24094079.2114                   24094082.4654
   9019131.36746   7032041.81243  24914493.7584                   24914501.3324
  -4969843.02748  -3857889.02646  21044889.8834                   21044888.9494
 11  9 21 19  9  0.0000000  0  8G02G09G08G04G17G20G26G28
  17075225.20346  13346333.00644  24490667.2894                   24490673.2304
  13568850.07847  10613996.64043  23616108.9384                   23616112.7114
  11913164.85247   9292765.90644  22747160.7814                   22747165.1684
 -18709327.41048 -14541791.42646  20975894.5944                   20975895.6254
  -5148681.76648  -3989551.98946  20748719.7974                   20748719.1684
   8766713.71946   6856418.42343  24068973.0554                   24068976.2774
   8987490.47746   7007386.26043  24908473.1414                   24908479.0634
  -5073906.52048  -3938977.48046  21025087.0864                   21025086.3554
 11  9 21 19  9 30.0000000  0  8G02G09G08G04G17G20G26G28
  16862161.56347  13180309.64144  24450122.2974                   24450128.3484
  13364487.22346  10454752.99443  23577220.0864                   23577224.8524
  11915630.96947   9294687.29944  22747630.2584                   22747635.0984
 -18900447.40248 -14690716.03946  20939525.5864                   20939527.1094
  -5243298.11348  -4063279.02146  20730714.8134                   20730714.4144
   8635175.60246   6753921.22943  24043942.1644                   24043945.0314
   8955834.17246   6982718.62843  24902449.6024                   24902456.5004
  -5177713.87548  -4019866.36646  21005333.2274                   21005332.5904
 11  9 21 19 10  0.0000000  0  8G02G09G08G04G17G20G26G28
  16649155.91446  13014331.47744  24409588.4774                   24409594.3634
  13160485.52747  10295790.71744  23538400.3364                   23538404.6414
  11918310.46547   9296774.99144  22748140.3364                   22748144.8834
 -19091147.68448 -14839313.60346  20903236.6174                   20903238.1294
  -5337733.88348  -4136865.35646  20712744.2664                   20712744.1454
   8504042.35946   6651739.48343  24018986.8204                   24018990.4344
   8924162.09846   6958038.88143  24896422.2504                   24896430.3324
  -5281260.67648  -4100552.19346  20985628.8444                   20985628.0004
 11  9 21 19 10 30.0000000  0  8G02G09G08G04G17G20G26G28
  18011637.89146  14076005.96144  24668860.0164                   24668866.4304
  14532275.56347  11364718.10044  23799443.6954                   23799446.4494
  13496621.04347  10526627.13144  23048483.0784                   23048487.5474
 -17705998.91448 -13759976.84246  21166821.7274                   21166823.0474
  -3856566.54348  -2982709.00246  20994601.2504                   20994600.9654
   9948740.10546   7777477.98743  24293904.5474                   24293908.2854
  10467893.30145   8160945.93842  25190184.6254                   25190192.1294
  -3809121.53148  -2953430.81446  21265767.5314                   21265766.5864
 11  9 21 19 11  0.0000000  0  8G02G09G08G04G17G20G26G28
  17798757.29346  13910125.19943  24628350.5234                   24628355.7304
  14329008.46946  11206328.27743  23760762.6954                   23760766.3754
  13499722.03947  10529043.25644  23049072.6094                   23049077.8244
 -17895849.52748 -13907912.33546  21130694.1094                   21130695.3364
  -3950641.88748  -3056014.47546  20976699.2274                   20976698.8754
   9818424.14146   7675933.14243  24269106.3054                   24269109.2344
  10436184.14546   8136237.19142  25184150.1884                   25184158.4774
  -3912140.19148  -3033705.12546  21246163.5704                   21246162.8674
 11  9 21 19 11 30.0000000  0  8G02G09G08G04G17G20G26G28
  17585945.10546  13744297.72843  24587851.8594                   24587858.5204
  14126115.69946  11048230.08843  23722152.9064                   23722156.7894
  13503031.81647  10531622.02944  23049703.2584                   23049708.5904
 -18085269.34848 -14055512.13346  21094648.8524                   21094649.9024
  -4044536.04348  -3129178.76546  20958831.6414                   20958831.2154
   9688522.29746   7574710.99743  24244386.8364                   24244390.3874
  10404454.40646   8111512.41042  25178114.2734                   25178120.4844
  -4014890.23448  -3113770.13446  21226611.0474                   21226610.6884
 11  9 21 19 12  0.0000000  0  8G02G09G08G04G17G20G26G28
  17373209.98046  13578530.31143  24547369.6564                   24547376.0084
  13923607.08246  10890431.27543  23683616.5554                   23683620.5824
  13506553.83247  10534366.23244  23050373.3364                   23050378.4384
 -18274249.44948 -14202769.29746  21058686.7584                   21058688.4304
  -4138243.60248  -3202197.65246  20940999.7194                   20940999.1414
   9559043.18446   7473818.23243  24219746.7034                   24219751.0634
  10372707.70346   8086774.42642  25172071.7274                   25172079.7464
  -4117363.80548  -3193619.68246  21207111.1334                   21207110.3014
 11  9 21 19 12 30.0000000  0  7G02G09G08G04G17G20G28
  17160557.55146  13412827.32643  24506903.3444                   24506908.3244
  13721489.37546  10732937.02143  23645154.8984                   23645157.8794
  13510288.93047  10537276.41944  23051084.6884                   23051089.1684
 -18462783.58648 -14349678.96446  21022809.7504                   21022811.3094
  -4231761.93448  -3275069.09846  20923203.6804                   20923203.6994
   9429992.19145   7373259.04443  24195190.0084                   24195193.7544
  -4219555.39548  -3273249.52646  21187664.9304                   21187664.1684
 11  9 21 19 13  0.0000000  0  7G02G09G08G04G17G20G28
  16947994.67646  13247194.11443  24466454.7664                   24466459.4304
  13519770.33246  10575753.46943  23606768.8284                   23606772.4344
  13514238.96947  10540354.12344  23051836.3834                   23051841.6764
 -18650864.79348 -14496235.69146  20987019.1024                   20987020.8834
  -4325087.57048  -3347790.39646  20905444.6884                   20905444.4734
   9301376.10946   7273038.70543  24170715.3984                   24170718.9534
  -4321458.89548  -3352654.88746  21168273.2504                   21168272.7074
 11  9 21 19 13 30.0000000  0  7G02G09G08G04G17G20G28
  16735535.86346  13081641.95343  24426024.5234                   24426030.4064
  13318465.36747  10418892.50543  23568462.1484                   23568464.3324
  13518412.92247  10543606.32144  23052630.2974                   23052635.9144
 -18838478.46148 -14642428.11746  20951317.6174                   20951318.5164
  -4418209.11348  -3420352.66246  20887724.4144                   20887724.0904
   9173208.69946   7173168.10043  24146325.8914                   24146329.4844
  -4423060.86748  -3431825.26346  21148939.0164                   21148938.1374
 11  9 21 19 14  0.0000000  0  7G02G09G08G04G17G20G28
  16523186.75446  12916175.33043  24385615.0864                   24385620.5394
  13117580.53946  10262358.94743  23530235.0234                   23530237.6914
  13522811.37947  10547033.36644  23053467.9304                   23053474.1524
 -19025618.68748 -14788251.61546  20915705.5084                   20915706.8984
  -4511124.12548  -3492754.00246  20870043.0944                   20870042.5904
   9045495.17246   7073651.10243  24122022.2894                   24122026.1914
  -4524356.25048  -3510756.77046  21129663.4064                   21129662.7974
 11  9 21 19 14 30.0000000  0  7G02G09G08G04G17G20G28
  16310954.40646  12750799.71043  24345229.6334                   24345233.5784
  12917123.96547  10106159.06143  23492089.2274                   23492093.6374
  13527436.72347  10550637.33644  23054348.0634                   23054352.8134
 -19212278.06648 -14933700.42146  20880185.4144                   20880186.9304
  -4603828.85948  -3564991.48246  20852402.3054                   20852401.3834
   8918242.74646   6974493.37843  24097807.5634                   24097810.4734
  -4625338.53148  -3589444.28946  21110446.7894                   21110446.4614
 11  9 21 19 15  0.0000000  0  7G02G09G08G04G17G20G28
  16098836.94546  12585513.53943  24304864.5474                   24304869.3594
  12717095.17646   9950292.51143  23454025.2114                   23454028.6804
  13532281.91847  10554412.47444  23055270.7664                   23055276.0004
 -19398458.13348 -15078775.75646  20844756.7274                   20844757.9654
  -4696327.68748  -3637068.50646  20834800.1174                   20834799.9494
   8791449.27346   6875693.40743  24073679.9844                   24073682.7974
  -4726010.03148  -3667889.63746  21091289.9534                   21091289.0864
 11  9 21 19 15 30.0000000  0  7G02G09G08G04G17G20G28
  15886836.83246  12420318.87544  24264522.6254                   24264527.0314
  12517497.09046   9794761.68343  23416043.3754                   23416046.7814
  13537344.09447  10558356.78044  23056233.9454                   23056239.3714
 -19584156.53948 -15223475.74746  20809419.3674                   20809420.9064
  -4788622.22748  -3708986.35846  20817236.6564                   20817236.7544
   8665116.47546   6777252.29943  24049638.4774                   24049642.7114
  -4826369.50048  -3746091.84646  21072191.7504                   21072191.4844
 11  9 21 19 16  0.0000000  0  7G02G09G08G04G17G20G28
  15674956.29346  12255217.31944  24224202.8134                   24224206.5354
  12318333.26246   9639569.16044  23378142.9304                   23378146.9614
  13542620.49247  10562467.97544  23057238.7034                   23057243.5904
 -19769370.87948 -15367798.55646  20774174.0234                   20774175.7664
  -4880712.80148  -3780745.26846  20799712.6954                   20799712.5164
   8539246.32846   6679171.65743  24025686.6484                   24025689.5554
  -4926415.09448  -3824049.49846  21053154.2974                   21053153.3484
 11  9 21 19 16 30.0000000  0  7G02G09G08G04G17G20G28
  15463198.01246  12090211.04643  24183905.7504                   24183910.4574
  12119607.20346   9484717.76943  23340326.5084                   23340330.4844
  13548108.81647  10566744.28644  23058283.3524                   23058288.1994
 -19954098.02348 -15511741.73246  20739021.5004                   20739023.3794
  -4972599.67648  -3852345.46046  20782226.7584                   20782227.1254
   8413841.28146   6581453.45043  24001822.9384                   24001826.2424
  -5026144.78548  -3901760.98646  21034176.4144                   21034175.4144
 11  9 21 19 17  0.0000000  0  7G02G09G08G04G17G20G28
  15251569.96146  11925306.31443  24143634.4064                   24143639.6214
  11921327.49246   9330214.20243  23302595.5164                   23302599.6994
  13553811.41447  10571187.56644  23059368.8834                   23059374.2854
 -20138330.32448 -15655299.30546  20703963.8754                   20703964.7704
  -5064278.63348  -3923783.62846  20764781.4694                   20764781.0274
   8288908.56346   6484103.36543  23978048.9924                   23978052.4304
  -5125551.69948  -3979220.95246  21015259.8204                   21015259.3984
 11  9 21 19 17 30.0000000  0  7G02G09G08G04G17G20G28
  16615498.62546  12988108.13243  24403181.0864                   24403186.6134
  13298921.37546  10403664.06444  23564742.5394                   23564745.7974
  15135142.79347  11803393.53844  23360285.9304                   23360291.7194
 -18746641.71948 -14570866.57446  20968793.5864                   20968794.2934
  -3580330.00048  -2767460.03146  21047167.1174                   21047167.0274
   9739871.64846   7614723.96943  24254157.8594                   24254161.2114
  -3649213.28948  -2828827.42546  21296197.6884                   21296197.1374
 11  9 21 19 18  0.0000000  0  7G02G09G08G04G17G20G28
  16404134.07046  12823408.64843  24362960.4064                   24362963.9024
  13101540.50846  10249860.81143  23527182.4774                   23527185.5354
  15141262.21547  11808161.61944  23361450.8054                   23361456.1524
 -18929880.23848 -14713649.79046  20933923.9384                   20933925.4734
  -3671598.97348  -2838578.72646  21029799.5004                   21029799.4534
   9615885.53546   7518111.40143  24230565.0394                   24230567.2704
  -3747973.18748  -2905783.21546  21277404.3204                   21277403.4184
 11  9 21 19 18 30.0000000  0  7G02G09G08G04G17G20G28
  16192907.99645  12658817.13643  24322764.1254                   24322769.0984
  12904617.28946  10096414.22444  23489708.9694                   23489712.1884
  15147589.55547  11813091.71344  23362655.3364                   23362661.0474
 -19112615.19948 -14856040.61546  20899150.7894                   20899151.8404
  -3762660.87948  -2909536.06946  21012470.6804                   21012470.7664
   9492378.91846   7421872.50943  24207060.7504                   24207063.5904
  -3846404.05548  -2982482.63646  21258673.3984                   21258672.7304
 11  9 21 19 19  0.0000000  0  7G02G09G08G04G17G20G28
  15981820.53646  12494333.59443  24282595.1484                   24282599.9224
  12708152.72346   9943325.04844  23452322.5234                   23452326.1604
  15154119.75447  11818179.84944  23363897.3524                   23363903.7974
 -19294846.16848 -14998038.71546  20864473.3984                   20864474.9224
  -3853518.73448  -2980334.42446  20995181.3444                   20995180.9654
   9369351.37146   7326006.88943  24183650.1254                   24183653.5124
  -3944506.21148  -3058925.90946  21240005.2814                   21240004.3754
 11  9 21 19 19 30.0000000  0  7G02G09G08G04G17G20G28
  15770874.47346  12329960.23543  24242453.3674                   24242458.0084
  12512150.14546   9790595.83344  23415024.9534                   23415028.2154
  15160850.44547  11823424.21644  23365179.0944                   23365184.8524
 -19476570.33248 -15139641.90446  20829892.5944                   20829893.7464
  -3944172.64847  -3050973.84946  20977930.3594                   20977930.4964
   9246805.49246   7230516.62343  24160330.3524                   24160333.0354
  -4042277.66848  -3135111.49646  21221400.0704                   21221399.2774
 11  9 21 19 20  0.0000000  0  7G02G09G08G04G17G20G28
  15560074.16046  12165700.41543  24202339.7194                   24202343.8204
  12316614.61747   9638230.54644  23377815.5004                   23377818.0744
  15167780.47747  11828823.95843  23366498.0314                   23366504.0664
 -19657783.54748 -15280846.96546  20795408.8594                   20795410.1024
  -4034621.43048  -3121453.43846  20960718.8834                   20960718.7304
   9124744.62945   7135404.24143  24137102.9384                   24137106.1454
  -4139715.13348  -3211036.82746  21202858.1954                   21202857.7304
 11  9 21 19 20 30.0000000  0  7G02G09G08G04G17G20G28
  15349422.69146  12001556.54943  24162253.7894                   24162258.2934
  12121550.46147   9486232.57244  23340696.4304                   23340700.2774
  15174908.39846  11834377.84243  23367854.3834                   23367860.7504
 -19838482.14548 -15421651.00846  20761022.5784                   20761024.1294
  -4124865.24648  -3191773.32346  20943545.6254                   20943545.8094
   9003171.76245   7040672.22443  24113969.0474                   24113971.7504
  -4236815.53148  -3286699.49746  21184380.5084                   21184380.1954
 11  9 21 19 21  0.0000000  0  7G02G09G08G04G17G20G28
  15138921.10546  11837529.54343  24122196.7584                   24122202.1374
  11926959.71947   9334603.50844  23303666.8834                   23303671.0664
  15182230.28547  11840082.87243  23369248.5004                   23369253.9264
 -20018665.12548 -15562053.29146  20726734.8914                   20726736.4534
  -4214906.13348  -3261935.05546  20926411.5164                   20926411.7194
   8882087.31645   6946320.68643  24090925.6564                   24090930.6094
  -4333579.07848  -3362099.70446  21165966.9454                   21165966.7424
 11  9 21 19 21 30.0000000  0  7G02G09G08G04G17G20G28
  14928574.07046  11673622.91743  24082168.7814                   24082173.3874
  11732847.52747   9183347.37644  23266727.6884                   23266731.9734
  15189744.98447  11845938.12043  23370678.8524                   23370684.2304
 -20198328.43748 -15702050.61146  20692546.2974                   20692547.3404
  -4304742.64548  -3331937.55246  20909316.5474                   20909316.4694
   8761495.09045   6852352.74443  24067979.2504                   24067982.3594
  -4430001.94948  -3437234.44646  21147618.5164                   21147617.8284
 11  9 21 19 22  0.0000000  0  7G02G09G08G04G17G20G28
  14718384.31646  11509838.85944  24042171.0554                   24042175.9614
  11539217.44547   9032466.82444  23229881.1954                   23229884.0944
  15197451.08647  11851942.62343  23372145.3834                   23372151.2234
 -20377468.48447 -15841640.22046  20658457.0004                   20658458.3204
  -4394374.56647  -3401780.61946  20892260.0864                   20892259.9734
   8641397.63746   6758770.27243  24045124.7974                   24045128.1764
  -4526081.79348  -3512101.88346  21129335.1564                   21129334.8324
 11  9 21 19 22 30.0000000  0  7G02G09G08G04G17G20G28
  14508353.03546  11346178.34044  24002203.1884                   24002208.4964
  11346071.43847   8881963.47844  23193127.7274                   23193130.4104
  15205344.09847  11858092.65843  23373647.8834                   23373653.2034
 -20556084.94148 -15980821.81546  20624467.2814                   20624468.0594
  -4483804.26648  -3471466.11446  20875242.0164                   20875242.2304
   8521795.30546   6665573.64943  24022366.3594                   24022369.0394
  -4621818.59048  -3586702.03346  21111117.2974                   21111116.6054
 11  9 21 19 23  0.0000000  0  7G02G09G08G04G17G20G28
  14298481.16846  11182642.04644  23962265.2814                   23962270.7384
  11153411.52347   8731838.97744  23156464.7664                   23156468.1724
  15213420.30146  11864385.48843  23375184.4614                   23375190.1844
 -20734176.20348 -16119594.17446  20590577.6884                   20590578.7664
  -4573033.32448  -3540995.27446  20858262.3834                   20858262.1844
   8402688.60945   6572763.29443  23999699.6954                   23999703.8204
  -4717212.00048  -3661034.57346  21092964.2344                   21092963.9024
 11  9 21 19 23 30.0000000  0  7G02G09G08G04G17G20G28
  14088770.04746  11019230.92644  23922359.5314                   23922363.1134
  10961239.77047   8582094.83044  23119896.2504                   23119898.3794
  15221676.13346  11870818.24343  23376755.4064                   23376762.1134
 -20911741.27348 -16257956.50646  20556788.0164                   20556789.0514
  -4662063.93748  -3610369.79746  20841320.3914                   20841320.5554
   8284077.83646   6480339.35243  23977128.9534                   23977132.4064
  -4812261.32048  -3735099.03346  21074877.1174                   21074877.0864
 11  9 21 19 24  0.0000000  0  7G02G09G08G04G17G20G28
  13879223.21947  10855947.91144  23882483.3524                   23882487.7704
  10769560.35947   8432734.32543  23083419.9694                   23083422.1214
  15230109.82846  11877389.62143  23378361.2894                   23378367.3754
 -21088776.67248 -16395906.11946  20523099.1954                   20523100.0164
  -4750895.78547  -3679589.44046  20824416.1174                   20824416.3714
   8165966.44546   6388304.44843  23954653.9844                   23954656.4614
  -4906963.99248  -3808893.34446  21056856.1024                   21056855.4884
 11  9 21 19 24 30.0000000  0  7G02G09G08G04G17G20G28
  13669840.66046  10692792.85244  23842639.5084                   23842642.2934
  10578374.10947   8283758.13243  23047038.5084                   23047041.0984
  15238715.95346  11884095.35143  23379999.1804                   23380005.9534
 -21265282.58648 -16533443.14046  20489511.2974                   20489512.0554
  -4839531.47348  -3748656.22346  20807549.4224                   20807549.3954
   8048353.62146   6296658.10343  23932272.9224                   23932275.5474
  -5001320.24648  -3882417.72846  21038900.6484                   21038900.4694
 11  9 21 19 25  0.0000000  0  7G02G09G08G04G17G20G28
  15036052.25446  11757373.50743  24102620.7114                   24102623.8324
  11963110.78147   9362773.81643  23310545.4384                   23310548.3134
  16822912.41046  13118533.77643  23681461.5314                   23681468.9024
 -19865830.34448 -15442960.82246  20755818.0394                   20755818.9574
  -3352548.47348  -2589968.18946  21090513.0164                   21090512.9024
   9506665.02045   7433004.62543  24209780.1174                   24209783.1134
  -3519905.46148  -2728068.57446  21320804.2274                   21320804.3914
 11  9 21 19 25 30.0000000  0  7G02G09G08G04G17G20G28
  14827006.82446  11594481.18344  24062840.2274                   24062844.1024
  11772921.84847   9214574.72444  23274353.8524                   23274356.3484
  16831857.53546  13125503.60543  23683163.8284                   23683171.3164
 -20041268.82448 -15579666.07146  20722433.3054                   20722434.3364
  -3440792.84048  -2658730.05846  21073720.5704                   21073720.4414
   9390055.39146   7342139.98943  24187590.1094                   24187593.8444
  -3613563.55948  -2801048.95446  21302982.1094                   21302981.6604
 11  9 21 19 26  0.0000000  0  7G02G09G08G04G17G20G28
  14618133.40246  11431722.87744  24023092.6414                   24023096.5274
  11583236.22747   9066767.85744  23238256.7734                   23238261.2664
  16840968.32846  13132602.52243  23684898.4144                   23684905.5234
 -20216170.24648 -15715952.84846  20689150.3054                   20689151.8324
  -3528842.16448  -2727339.94146  21056965.4144                   21056965.5744
   9273950.05946   7251668.39143  24165495.9694                   24165498.5204
  -3706869.97748  -2873755.30746  21285226.3674                   21285226.1724
 11  9 21 19 26 30.0000000  0  7G02G09G08G04G17G20G28
  14409432.34446  11269098.91144  23983378.3594                   23983381.6724
  11394054.92247   8919353.94344  23202257.2974                   23202261.2544
  16850239.79746  13139826.64743  23686663.3204                   23686670.4024
 -20390534.37548 -15851820.95546  20655969.8914                   20655971.1764
  -3616699.32448  -2795800.08446  21040246.4534                   21040246.7544
   9158348.35546   7161589.14743  24143496.8134                   24143501.2544
  -3799825.36348  -2946188.10246  21267537.4384                   21267537.0004
 11  9 21 19 27  0.0000000  0  7G02G09G08G04G17G20G28
  14200906.61347  11106611.54144  23943696.6954                   23943700.5354
  11205381.77747   8772336.01644  23166353.5234                   23166357.0944
  16859669.82446  13147174.26643  23688457.5554                   23688464.7504
 -20564358.51248 -15987268.27546  20622892.2424                   20622893.5314
  -3704364.48848  -2864110.62046  21023564.7114                   21023564.3364
   9043252.53146   7071904.13543  24121595.6954                   24121599.1254
  -3892427.73448  -3018345.85546  21249916.0944                   21249915.4384
 11  9 21 19 27 30.0000000  0  7G02G09G08G04G17G20G28
  13992558.09447  10944262.28644  23904049.1954                   23904052.2974
  11017219.25047   8625715.91444  23130547.2344                   23130551.7074
  16869255.36746  13154643.18543  23690281.9064                   23690288.6134
 -20737640.89548 -16122293.46946  20589918.0554                   20589919.0664
  -3791838.49248  -2932272.20246  21006919.0554                   21006918.5434
   8928663.81346   6982614.19543  24099789.7424                   24099793.3134
  -3984675.86348  -3090227.55046  21232361.5704                   21232361.4264
 11  9 21 19 28  0.0000000  0  7G02G09G08G04G17G20G28
  13784390.65246  10782054.08544  23864436.0784                   23864440.7074
  10829572.32047   8479497.63144  23094839.6564                   23094843.4924
  16878995.82446  13162232.78843  23692135.7664                   23692143.6644
 -20910377.43048 -16256893.31746  20557047.5394                   20557048.3014
  -3879120.44148  -3000284.12746  20990309.5634                   20990309.2304
   8814585.50446   6893721.98743  24078081.4144                   24078085.4964
  -4076566.07848  -3161830.35846  21214875.3284                   21214875.2734
 11  9 21 19 28 30.0000000  0  7G02G09G08G04G17G20G28
  13576404.76246  10619987.39444  23824857.4224                   23824861.1214
  10642441.53547   8333681.50644  23059229.7344                   23059233.4574
  16888885.80546  13169938.88543  23694018.1094                   23694026.0634
 -21082568.44548 -16391068.08446  20524280.1644                   20524281.2584
  -3966213.38748  -3068148.77846  20973736.4614                   20973736.5204
   8701016.79746   6805226.93043  24056470.3834                   24056473.6454
  -4168099.38348  -3233155.07746  21197457.7114                   21197457.1604
 11  9 21 19 29  0.0000000  0  7G02G09G08G04G17G20G28
  13368605.27347  10458065.88944  23785314.6174                   23785318.2774
  10455832.83247   8188272.20244  23023718.9224                   23023721.8954
  16898925.52746  13177761.60543  23695929.3134                   23695936.3364
 -21254209.06248 -16524813.97446  20491618.2344                   20491619.2894
  -4053115.10948  -3135864.43246  20957199.5084                   20957199.6564
   8587961.91446   6717132.22643  24034956.7034                   24034960.4534
  -4259271.51248  -3304198.33246  21180107.8834                   21180107.4734
 11  9 21 19 29 30.0000000  0  7G02G09G08G04G17G20G28
  13160993.74246  10296290.87444  23745807.2894                   23745811.1884
  10269748.32047   8043271.31844  22988308.3984                   22988311.5944
  16909111.74646  13185698.51843  23697866.8594                   23697875.4414
 -21425298.01648 -16658129.99946  20459060.9614                   20459061.9614
  -4139826.43048  -3203431.71646  20940699.3914                   20940699.1484
   8475421.84846   6629438.71943  24013540.9224                   24013544.0824
  -4350081.65248  -3374959.53146  21162827.3524                   21162827.0634
 11  9 21 19 30  0.0000000  0  7G02G09G08G04G17G20G28
  12953571.93446  10134663.71943  23706335.6094                   23706338.6294
  10084190.60247   7898680.98944  22952997.8204                   22953000.9064
  16919441.59846  13193747.35643  23699833.2734                   23699841.5124
 -21595833.48448 -16791014.73146  20426609.4064                   20426609.9654
  -4226348.98448  -3270851.91346  20924234.4304                   20924234.5234
   8363397.50046   6542147.06443  23992223.5864                   23992227.8164
  -4440528.80948  -3445437.88246  21145615.7814                   21145615.8244
 11  9 21 19 30 30.0000000  0  7G02G09G08G04G17G20G28
  12746342.51246   9973186.44744  23666901.5004                   23666904.8524
   9899163.09447   7754503.74644  22917789.0084                   22917791.8484
  16929912.30546  13201905.85243  23701826.6024                   23701835.3284
 -21765813.32448 -16923466.52246  20394262.8984                   20394264.1914
  -4312682.98048  -3338125.17446  20907805.4844                   20907805.4384
   8251890.50846   6455258.42543  23971004.0004                   23971007.6294
  -4530611.33248  -3515632.09846  21128473.8134                   21128473.3444
 11  9 21 19 31  0.0000000  0  7G02G09G08G04G17G20G28
  12539309.08646   9811861.91744  23627504.1484                   23627507.0664
   9714669.80547   7610742.82344  22882680.2664                   22882683.5354
  16940522.26646  13210172.95643  23703845.6094                   23703853.6844
 -21935234.13748 -17055482.68746  20362023.4384                   20362024.4144
  -4398827.79348  -3405251.01946  20891412.8524                   20891412.5234
   8140903.39346   6368774.97743  23949883.8444                   23949887.2074
  -4620326.37548  -3585539.97646  21111401.5474                   21111401.3054
 11  9 21 19 31 30.0000000  0  7G02G09G08G04G17G20G28
  12332474.63346   9650692.41244  23588144.7894                   23588147.2234
   9530714.90647   7467401.42544  22847674.5164                   22847677.8404
  16951269.62946  13218547.08343  23705890.4304                   23705900.0434
 -22104093.03148 -17187061.01246  20329890.5234                   20329891.5944
  -4484782.84448  -3472228.99646  20875056.0634                   20875056.2814
   8030438.79746   6282698.62643  23928863.3054                   23928867.0434
  -4709671.51648  -3655159.60446  21094399.8674                   21094399.6294
 11  9 21 19 32  0.0000000  0  7G02G09G08G04G17G20G28
  13701268.37146  10717285.14844  23848616.6954                   23848620.1994
  10922726.62547   8552085.94244  23112566.1484                   23112568.2304
  18537571.61346  14454626.08643  24007755.5394                   24007762.8914
 -20696962.97348 -16090595.97946  20597658.4224                   20597659.3554
  -2995126.68748  -2311457.97646  21158528.4144                   21158528.3794
   9495921.30545   7424632.99543  24207735.0944                   24207739.0554
  -3223222.50048  -2496887.69246  21377261.9064                   21377261.2384
 11  9 21 19 32 30.0000000  0  7G02G09G08G04G17G20G28
  13494837.18846  10556429.91844  23809334.1024                   23809338.0044
  10739854.47347   8409588.20444  23077766.6254                   23077769.6604
  18548584.84746  14463207.36244  24009851.4454                   24009860.2154
 -20864694.29748 -16221295.66646  20565740.2894                   20565741.1914
  -3080706.66048  -2378143.69146  21142242.9144                   21142243.0984
   9386503.52346   7339372.33243  24186914.8524                   24186917.5824
  -3311825.54748  -2565929.06846  21360401.3364                   21360400.9024
 11  9 21 19 33  0.0000000  0  7G02G09G08G04G17G20G28
  13288609.96946  10395733.60244  23770090.7034                   23770094.2234
  10557527.24247   8267515.10844  23043070.8674                   23043074.2234
  18559725.77746  14471888.07343  24011970.3984                   24011980.1174
 -21031859.75848 -16351554.43246  20533929.7664                   20533930.6054
  -3166100.89148  -2444684.65546  21125992.7974                   21125993.2624
   9277610.10546   7254520.36243  24166192.8284                   24166195.6804
  -3400056.28548  -2634680.33146  21343611.5394                   21343611.1024
 11  9 21 19 33 30.0000000  0  7G02G09G08G04G17G20G28
  13082588.69546  10235197.73944  23730885.5164                   23730889.1644
  10375747.39847   8125868.49544  23008479.1094                   23008482.3444
  18570991.73046  14480666.30743  24014114.2974                   24014122.3204
 -21198457.63748 -16481370.92046  20502226.7504                   20502228.0234
  -3251309.91448  -2511081.32146  21109778.4534                   21109778.2584
   9169242.35246   7170077.92543  24145570.3364                   24145574.9654
  -3487913.45348  -2703140.52246  21326893.2194                   21326892.5274
 11  9 21 19 34  0.0000000  0  7G02G09G08G04G17G20G28
  12876773.64147  10074822.56844  23691720.2034                   23691723.7074
  10194515.89547   7984649.21544  22973991.6334                   22973994.7194
  18582377.70746  14489538.06343  24016283.2424                   24016290.5004
 -21364488.35248 -16610745.45046  20470632.4774                   20470633.3014
  -3336336.82848  -2577336.06646  21093598.2424                   21093598.1214
   9061399.19146   7086044.28443  24125048.9064                   24125052.0434
  -3575398.08248  -2771310.39946  21310245.1804                   21310244.8984
 11  9 21 19 34 30.0000000  0  7G02G09G08G04G17G20G28
  12671167.11746   9914609.91244  23652594.1254                   23652597.1484
  10013835.48447   7843859.32644  22939609.4384                   22939612.6094
  18593880.84446  14498501.08743  24018471.6024                   24018479.7734
 -21529949.97748 -16739676.54946  20439146.0554                   20439147.0044
  -3421182.14148  -2643449.31446  21077452.6954                   21077452.4734
   8954081.91446   7002420.38143  24104627.3914                   24104630.3874
  -3662508.62148  -2839188.79246  21293668.5394                   21293667.8444
 11  9 21 19 35  0.0000000  0  7G02G09G08G04G17G20G28
  12465769.03947   9754559.66044  23613508.7734                   23613510.9144
   9833706.85247   7703499.42344  22905331.5944                   22905335.0434
  18605496.46546  14507551.69843  24020682.5164                   24020691.1334
 -21694842.87148 -16868164.47646  20407767.9534                   20407768.9844
  -3505848.27748  -2709422.93646  21061341.1954                   21061341.2664
   8847289.62946   6919205.59543  24084304.5394                   24084308.8524
  -3749245.84848  -2906776.28046  21277163.0864                   21277162.8324
 11  9 21 19 35 30.0000000  0  7G02G09G08G04G17G20G28
  12260579.55946   9594671.95644  23574461.9454                   23574465.4104
   9654130.47747   7563569.86144  22871159.5234                   22871162.0664
  18617219.94146  14516686.41243  24022913.8134                   24022921.8834
 -21859167.36348 -16996209.49146  20376497.6804                   20376498.9694
  -3590338.19548  -2775259.25146  21045263.5634                   21045263.2154
   8741021.39746   6836399.30143  24064083.0634                   24064086.1764
  -3835610.26248  -2974073.28946  21260728.8914                   21260728.0434
 11  9 21 19 36  0.0000000  0  7G02G09G08G04G17G20G28
  12055595.46546   9434944.30244  23535454.3284                   23535458.2234
   9475103.94947   7424068.66744  22837091.8134                   22837094.2114
  18629043.43446  14525899.02643  24025163.4454                   24025173.2194
 -22022926.79748 -17123814.21146  20345335.5004                   20345336.5394
  -3674657.84047  -2840962.88746  21029217.9224                   21029217.6994
   8635273.23846   6753998.04743  24043959.9534                   24043963.5944
  -3921605.88747  -3041082.90346  21244364.5084                   21244364.1764
 11  9 21 19 36 30.0000000  0  7G02G09G08G04G17G20G28
  11850815.39547   9275375.59844  23496486.0864                   23496488.7234
   9296626.16447   7284995.13544  22803128.9064                   22803130.3014
  18640960.55546  14535184.50843  24027432.7584                   24027441.9574
 -22186123.29748 -17250980.27746  20314280.1484                   20314280.9574
  -3758811.61347  -2906537.28246  21013203.8834                   21013203.7774
   8530042.28546   6671999.94943  24023934.6804                   24023938.5314
  -4007235.42648  -3107807.27446  21228069.6094                   21228069.1804
 11  9 21 19 37  0.0000000  0  7G02G09G08G04G17G20G28
  11646237.88346   9115964.75944  23457556.0474                   23457559.0274
   9118696.28547   7146348.52844  22769270.4224                   22769271.8014
  18652964.70346  14544537.89143  24029716.8054                   24029725.3754
 -22348758.85548 -17377709.24346  20283331.7664                   20283332.5784
  -3842803.52047  -2971985.53146  20997220.8284                   20997220.8014
   8425326.46146   6590403.21543  24004007.2974                   24004011.6844
  -4092501.09047  -3174248.09346  21211843.7584                   21211843.6414
 11  9 21 19 37 30.0000000  0  7G02G09G08G04G17G20G28
  11441856.05546   8956706.35944  23418663.4614                   23418667.2974
   8941308.19547   7008124.07944  22735514.2504                   22735516.4614
  18665044.51646  14553950.24242  24032016.1094                   24032024.4414
 -22510840.57048 -17504006.64146  20252488.7424                   20252489.2274
  -3926642.80147  -3037314.85146  20981266.6724                   20981266.4454
   8321117.60546   6509201.53943  23984178.1644                   23984181.5084
  -4177410.54347  -3240411.35346  21195686.4924                   21195686.0164
 11  9 21 19 38  0.0000000  0  7G02G09G08G04G17G20G28
  11237672.55547   8797602.52844  23379808.1724                   23379811.5864
   8764465.37547   6870324.56344  22701861.6884                   22701865.7424
  18677198.07446  14563419.97943  24034330.2424                   24034338.2464
 -22672366.01248 -17629870.58646  20221751.6334                   20221752.2854
  -4010329.72748  -3102525.45746  20965341.8674                   20965341.8444
   8217417.36346   6428396.18743  23964444.4304                   23964447.9304
  -4261961.50448  -3306295.27146  21179597.2424                   21179596.7504
 11  9 21 19 38 30.0000000  0  8G02G09G08G10G04G17G20G28
  11033678.42247   8638646.24544  23340989.4924                   23340993.4614
   8588158.49247   6732942.59244  22668312.1094                   22668315.9654
  18689410.36746  14572935.53343  24036654.5944                   24036662.6764
  24893065.44156  19435312.78753  24486175.8284                   24486185.9384
 -22833345.33648 -17755308.98446  20191117.8594                   20191118.5474
  -4093876.45748  -3167626.82246  20949443.2664                   20949443.7704
   8114215.12146   6347978.82243  23944804.8444                   23944808.4614
  -4346164.58248  -3371908.12446  21163573.4774                   21163572.9144
 11  9 21 19 39  0.0000000  0  8G02G09G08G10G04G17G20G28
  10829861.37547   8479827.94544  23302204.4304                   23302207.2344
   8412376.23047   6595969.47744  22634861.6724                   22634865.7624
  18701665.03946  14582484.03043  24038986.8834                   24038995.3484
  24694391.00446  19280501.88743  24448368.5394                   24448378.9264
 -22993790.88748 -17880331.46346  20160586.3674                   20160587.1724
  -4177297.67247  -3232630.37546  20933568.8594                   20933568.5634
   8011498.08246   6267939.62143  23925258.7114                   23925262.6214
  -4430032.46547  -3437259.77646  21147613.7034                   21147613.7854
 11  9 21 19 39 30.0000000  0  8G02G09G08G10G04G17G20G28
  12201642.74646   9548748.65744  23563245.7974                   23563248.7194
   9812539.07847   7687005.54645  22901303.5944                   22901307.8874
  20289371.39546                  15819657.24743                  24341117.3134
  24341126.8444   26071002.11746  20353186.31143  24710328.3914   24710339.0514
 -21578283.80548 -16777338.88646  20429948.1954                   20429948.8674
  -2685179.00048  -2069940.53346  21217509.5084                   21217509.5554
   9484682.30546   7415875.43443  24205595.9924                   24205600.1604
  -2938149.21148  -2274753.40146  21431510.2814                   21431509.5634
 11  9 21 19 40  0.0000000  0  8G02G09G08G10G04G17G20G28
  11998172.39146   9390200.47844  23524526.5784                   23524529.9064
   9637799.31347   7550844.78445  22868051.9144                   22868055.7114
  20301688.65646                  15829254.55843                  24343461.3594
  24343470.5664   25872049.54346  20198158.75743  24672468.9454   24672479.5514
 -21737671.62548 -16901537.15946  20399617.6564                   20399618.2734
  -2768365.25448  -2134760.99746  21201679.8594                   21201679.3794
   9382923.50846   7336582.90943  24186232.8594                   24186236.7934
  -3021357.77048  -2339591.29846  21415675.7504                   21415675.2194
 11  9 21 19 40 30.0000000  0  8G02G09G08G10G04G17G20G28
  11794879.13747   9231790.32944  23485841.1334                   23485843.5004
   9463585.40647   7415093.74845  22834899.8054                   22834903.5824
  20314034.07446                  15838873.75443                  24345810.9064
  24345821.1214   25672963.30546  20043027.05043  24634584.0944   24634593.2774
 -21896527.39148 -17025320.83146  20369388.3364                   20369389.1254
  -2851434.09047  -2199489.96546  21185872.1954                   21185872.0084
   9281646.37546   7257665.66043  24166960.5864                   24166963.6804
  -3104233.74248  -2404170.03546  21399905.2344                   21399905.0784
 11  9 21 19 41  0.0000000  0  8G02G09G08G10G04G17G20G28
  11591763.78147   9073518.76344  23447188.5784                   23447191.6914
   9289898.78146   7279753.55144  22801849.0234                   22801851.1564
  20326403.75846                  15848511.80943                  24348165.2424
  24348176.3134   25473744.35246  19887791.92443  24596673.4304   24596683.9024
 -22054850.98848 -17148689.83246  20339260.4064                   20339260.9144
  -2934387.49647  -2264129.00346  21170086.7424                   21170087.3054
   9180850.25446   7179123.28543  24147779.6024                   24147782.8874
  -3186777.34047  -2468489.76746  21384198.0864                   21384197.5474
 11  9 21 19 41 30.0000000  0  8G02G09G08G10G04G17G20G28
  11388832.27046   8915390.48945  23408572.9774                   23408575.9104
   9116745.65647   7144829.10945  22768899.0474                   22768900.5634
  20338798.45346                  15858169.38843                  24350524.6804
  24350534.5164   25274399.50046  19732458.72943  24558739.8054   24558748.8364
 -22212637.18048 -17271640.07546  20309234.8134                   20309235.1724
  -3017221.93048  -2328675.33346  21154323.6414                   21154324.2274
   9080539.64846   7100959.16043  24128690.7424                   24128694.2304
  -3268983.63748  -2532546.69246  21368554.6804                   21368554.4924
 11  9 21 19 42  0.0000000  0  8G02G09G08G10G04G17G20G28
  11186084.74247   8757405.55644  23369990.5394                   23369993.6414
   8944126.75847   7010320.95145  22736050.6024                   22736052.4184
  20351213.95746                  15867843.23543                  24352887.2894
  24352897.8404   25074930.29346  19577028.57143  24520781.3594   24520790.7464
 -22369886.06248 -17394171.63946  20279311.1254                   20279311.9414
  -3099939.76247  -2393130.80946  21138583.3444                   21138583.5744
   8980713.91846   7023172.93043  24109694.6884                   24109697.8984
  -3350853.20747  -2596341.22046  21352975.4694                   21352975.4774
 11  9 21 19 42 30.0000000  0  8G02G09G08G10G04G17G20G28
  10983523.77746   8599566.03945  23331444.4224                   23331447.8594
   8772044.69547   6876231.09544  22703304.4614                   22703306.1804
  20363647.88745                  15877531.34443                  24355254.1724
  24355264.8204   24875339.60946  19421503.83543  24482799.3134   24482809.9414
 -22526596.08248 -17516283.29846  20249490.3134                   20249490.7704
  -3182541.40247  -2457495.72946  21122864.5784                   21122864.6764
   8881374.11346   6945765.29143  24090790.8984                   24090793.7344
  -3432384.79347  -2659872.38946  21337460.3594                   21337460.4064
 11  9 21 19 43  0.0000000  0  8G02G09G08G10G04G17G20G28
  10781149.39546   8441871.86544  23292933.7504                   23292937.0314
   8600499.87946   6742559.89544  22670660.1094                   22670661.7154
  20376095.35246                  15887230.07643                  24357623.7584
  24357634.1214   24675628.04346  19265884.81943  24444795.7734   24444805.4694
 -22682768.02048 -17637975.68546  20219771.6954                   20219772.1214
  -3265029.70348  -2521772.35046  21107168.0234                   21107167.4924
   8782518.78946   6868735.14643  24071979.5784                   24071982.0664
  -3513579.21548  -2723140.81346  21322009.5554                   21322009.4534
 11  9 21 19 43 30.0000000  0  8G02G09G08G10G04G17G20G28
  10578959.90647   8284321.75845  23254458.3834                   23254461.2034
   8429490.99247   6609306.27545  22638118.4774                   22638121.3244
  20388549.97745                  15896934.30142                  24359993.8834
  24360004.7584   24475795.18446  19110171.34743  24406768.2974   24406777.6604
 -22838403.98448 -17759250.41346  20190155.0864                   20190155.2664
  -3347408.62147  -2585963.72146  21091491.6804                   21091491.5354
   8684145.09447   6792080.30243  24053259.9224                   24053262.8164
  -3594438.88347  -2786148.40446  21306622.6024                   21306622.5124
 11  9 21 19 44  0.0000000  0  8G02G09G08G10G04G17G20G28
  10376959.04346   8126918.65945  23216018.6884                   23216021.8404
   8259021.72747   6476473.11445  22605679.0634                   22605680.9534
  20401010.61745                  15906643.31543                  24362364.5634
  24362375.5664   24275845.23045  18954366.53543  24368719.0474   24368728.1024
 -22993501.30548 -17880105.44046  20160640.8524                   20160641.6564
  -3429677.52748  -2650069.39246  21075836.5004                   21075836.2034
   8586254.92646   6715802.30843  24034631.5474                   24034635.3484
  -3674961.65648  -2848893.47046  21291299.6484                   21291299.7504
 11  9 21 19 44 30.0000000  0  7G02G09G10G04G17G20G28
  10175146.13747   7969662.02044  23177614.9924                   23177617.1644
   8089092.27347   6344060.62644  22573342.5634                   22573344.3324
                  24075778.96146  18798471.17143  24330646.9614   24330656.4064
 -23148061.04348 -18000541.55846  20131229.1094                   20131229.2934
  -3511839.22348  -2714091.49546  21060201.4534                   21060201.6254
   8488846.97746   6639900.05843  24016095.0234                   24016098.8594
  -3755148.60548  -2911376.86146  21276040.4844                   21276040.4304
 11  9 21 19 45  0.0000000  0  7G02G09G10G04G17G20G28
   9973524.38346   7812554.29344  23139247.4534                   23139250.1024
   7919706.20347   6212071.53344  22541109.5634                   22541111.7384
                  23875600.44145  18642488.41243  24292553.7194   24292563.1024
 -23302080.79348 -18120556.91446  20101920.2424                   20101920.5704
  -3593892.72748  -2778029.30446  21044587.2584                   21044587.0634
   8391923.14846   6564375.02543  23997651.3984                   23997654.0944
  -3834997.27347  -2973596.66246  21260845.9454                   21260846.1844
 11  9 21 19 45 30.0000000  0  7G02G09G10G04G17G20G28
   9772105.66447   7655604.80744  23100918.7504                   23100920.4104
   7750875.46947   6080515.21044  22508981.1334                   22508983.5234
                  23675322.39846  18486427.95543  24254442.1414   24254451.5864
 -23455549.30548 -18240142.73346  20072715.7274                   20072716.6214
  -3675828.93448  -2841875.71246  21028995.1644                   21028995.0234
   8295493.71546   6489235.22743  23979301.7504                   23979305.2274
  -3914496.93747  -3035544.49746  21245717.6174                   21245717.9574
 11  9 21 19 46  0.0000000  0  7G02G09G10G04G17G20G28
   9570895.21546   7498817.59344  23062629.0234                   23062631.8164
   7582605.85246   5949396.08744  22476961.0784                   22476962.6604
                  23474950.84046  18330294.67343  24216312.8524   24216321.4614
 -23608462.38348 -18359295.74646  20043617.5784                   20043618.1454
  -3757645.48848  -2905628.89146  21013426.2974                   21013426.1334
   8199562.80146   6414483.83243  23961046.7814                   23961049.6954
  -3993643.28948  -3097217.03246  21230656.9064                   21230656.6844
 11  9 21 19 46 30.0000000  0  7G02G09G10G04G17G20G28
  10945317.10246   8569795.84244  23324172.6564                   23324175.7114
   8990320.17247   7046316.37344  22744839.6484                   22744842.0164
                  24849910.62146  19401692.28643  24477958.8594   24477966.5514
 -22185398.10948 -17250414.45546  20314417.8364                   20314418.1054
  -2263924.78948  -1741690.69246  21297671.7424                   21297671.6134
   9679549.16447   7567719.98643  24242679.2974                   24242681.5234
  -2497017.56647  -1931015.22646  21515455.1724                   21515455.4734
 11  9 21 19 47  0.0000000  0  7G02G09G10G04G17G20G28
  10744519.26146   8413330.10844  23285962.1484                   23285964.9924
   8823169.00447   6916068.75544  22713032.1174                   22713034.1294
                  24649351.02345  19245412.54843  24439792.2894   24439801.5824
 -22337206.06648 -17368706.34246  20285529.6024                   20285530.3244
  -2345513.30148  -1805266.17446  21282145.9534                   21282146.3524
   9584606.62546   7493738.79643  24224611.3524                   24224613.8134
  -2575464.18447  -1992142.50746  21500527.2114                   21500527.8164
 11  9 21 19 47 30.0000000  0  7G02G09G10G04G17G20G28
  10543927.36747   8257024.92844  23247790.7344                   23247792.9534
   8656577.16847   6786256.94244  22681331.4614                   22681332.8524
                  24448698.50046  19089060.27743  24401609.4774   24401617.1644
 -22488463.28948 -17486569.07246  20256746.5394                   20256746.6724
  -2426991.80548  -1868755.93246  21266641.4384                   21266641.2154
   9490155.86347   7420140.81643  24206638.9304                   24206640.8954
  -2653562.74247  -2052998.57746  21485665.4304                   21485665.7974
 11  9 21 19 48  0.0000000  0  7G02G09G10G04G17G20G28
  10343535.74647   8100875.73844  23209657.4694                   23209659.5784
   8490538.98047   6656876.58244  22649734.6174                   22649737.9104
                  24247948.46946  18932632.08943  24363407.9614   24363416.7854
 -22639176.07448 -17604007.56746  20228066.3284                   20228067.2734
  -2508368.18447  -1932166.11046  21251155.7504                   21251155.7894
   9396189.50446   7346920.22643  24188756.8984                   24188759.9884
  -2731320.03147  -2113588.72646  21470868.6644                   21470869.0664
 11  9 21 19 48 30.0000000  0  7G02G09G10G04G17G20G28
  10143346.03147   7944883.87845  23171562.9064                   23171565.1214
   8325056.57047   6527929.27244  22618244.8444                   22618247.0634
                  24047103.48046  18776129.86443  24325188.0234   24325196.5824
 -22789343.62548 -17721021.21246  20199490.6644                   20199491.4884
  -2589643.55148  -1995497.57946  21235689.4694                   21235689.6174
   9302708.14846   7274077.65243  24170967.6174                   24170970.3324
  -2808735.37947  -2173912.42746  21456137.4064                   21456137.5234
 11  9 21 19 49  0.0000000  0  7G02G09G10G04G17G20G28
   9943358.21947   7789049.35045  23133505.9144                   23133508.8874
   8160130.02747   6399415.11444  22586860.1954                   22586863.0274
                  23846164.71146  18619554.57544  24286950.7504   24286959.0824
 -22938966.92248 -17837610.75546  20171018.2504                   20171018.8594
  -2670820.75048  -2058752.55846  21220242.1094                   21220242.2384
   9209710.03946   7201611.57143  24153270.5554                   24153273.7974
  -2885809.73447  -2233970.41646  21441470.4224                   21441471.0354
 11  9 21 19 49 30.0000000  0  7G02G09G10G04G17G20G28
   9743567.17247   7633368.17445  23095487.2504                   23095489.3554
   7995754.53947   6271330.37744  22555580.0394                   22555582.6024
                  23645128.21546  18462903.13943  24248693.5164   24248702.6054
 -23088051.96548 -17953780.88046  20142648.0164                   20142648.9304
  -2751906.86348  -2121936.55946  21204811.8444                   21204811.8014
   9117188.67646   7129517.01743  24135664.8754                   24135667.5354
  -2962548.84448  -2293767.19446  21426867.5554                   21426867.7814
 11  9 21 19 50  0.0000000  0  7G02G09G10G04G17G20G28
   9543976.68447   7477843.26045  23057506.4064                   23057508.7504
   7831933.70747   6143677.83244  22524406.1024                   22524407.9774
                  23443998.25446  18306178.89043  24210419.3914   24210428.6804
 -23236596.15648 -18069529.57546  20114381.1484                   20114382.0394
  -2832901.12547  -2185048.98346  21189399.0784                   21189399.3244
   9025145.86746   7057795.32243  24118150.2974                   24118153.3794
  -3038950.98048  -2353301.37446  21412328.7664                   21412329.2274
 11  9 21 19 50 30.0000000  0  7G02G09G10G04G17G20G28
   9344583.06347   7322471.74545  23019562.1644                   23019564.8874
   7668664.16847   6016454.84944  22493337.1954                   22493338.7274
                  23242772.93046  18149380.27044  24172127.7664   24172136.1954
 -23384603.56248 -18184859.97846  20086216.4924                   20086217.4384
  -2913808.77347  -2248093.92146  21174003.2974                   21174003.3874
   8933576.87146   6986442.84243  24100724.1644                   24100727.5634
  -3115020.03548  -2412576.01346  21397853.4144                   21397853.6254
 11  9 21 19 51  0.0000000  0  7G02G09G10G04G17G20G28
   9145383.98847   7167251.84645  22981656.1254                   22981658.8754
   7505943.96947   5889659.92644  22462371.9844                   22462373.8874
                  23041450.99246  17992506.34143  24133818.2664   24133825.0554
 -23532077.47348 -18299774.68646  20058152.6564                   20058153.3554
  -2994634.94948  -2311075.38946  21158622.2974                   21158622.5864
   8842477.83646   6915456.61043  24083389.4304                   24083392.5664
  -3190758.96948  -2471593.42146  21383441.0084                   21383441.0944
 11  9 21 19 51 30.0000000  0  7G02G09G10G04G17G20G28
   8946381.23047   7012184.89145  22943787.2114                   22943789.3364
   7343774.91447   5763294.45644  22431512.6414                   22431513.5634
                  22840034.99246  17835559.20543  24095489.2194   24095496.9224
 -23679017.49648 -18414273.37046  20030191.1094                   20030191.7774
  -3075380.24248  -2373993.81746  21143257.0864                   21143257.1844
   8751849.23447   6844836.87443  24066143.4844                   24066145.9964
  -3266167.63348  -2530353.48346  21369091.1884                   21369091.5164
 11  9 21 19 52  0.0000000  0  7G02G09G10G04G17G20G28
   8747571.51247   6857268.36245  22905954.6884                   22905957.2304
   7182153.42647   5637355.67444  22400757.5784                   22400759.2034
                  22638522.77346  17678537.00343  24057142.0234   24057150.2074
 -23825427.72348 -18528359.23346  20002330.3524                   20002330.8134
  -3156050.54348  -2436853.81746  21127906.2424                   21127906.0594
   8661685.78946   6774579.59643  24048985.8984                   24048988.6844
  -3341250.32448  -2588859.54446  21354803.3984                   21354803.5744
 11  9 21 19 52 30.0000000  0  7G02G09G10G04G17G20G28
   8548955.69947   6702502.92044  22868159.1024                   22868161.3364
   7021080.94947   5511844.68544  22370106.2034                   22370108.0514
                  22436916.72546  17521441.72143  24018777.2504   24018784.8244
 -23971307.94948 -18642032.09746  19974569.7344                   19974570.4534
  -3236646.71547  -2499656.04246  21112568.9144                   21112569.2154
   8571987.13346   6704684.58243  24031916.3914                   24031919.2304
  -3416006.72748  -2647111.33246  21340577.6804                   21340577.6334
 11  9 21 19 53  0.0000000  0  7G02G09G10G04G17G20G28
   8350535.02047   6547889.54345  22830401.0004                   22830403.6094
   6860558.48847   5386762.27244  22339559.5784                   22339561.1414
                  22235218.68046  17364274.74043  23980395.0944   23980403.1764
 -24116658.19548 -18755291.99246  19946910.6884                   19946911.5474
  -3317170.44148  -2562401.82946  21097246.1804                   21097246.1954
   8482752.30146   6635150.91843  24014935.4774                   24014938.6414
  -3490436.87548  -2705108.92646  21326414.2194                   21326414.4144
 11  9 21 19 53 30.0000000  0  7G02G09G10G04G17G20G28
   8152307.86347   6393426.96645  22792679.0704                   22792680.6334
   6700584.34047   5262107.13145  22309117.7814                   22309119.1294
                  22033428.27346  17207035.75044  23941996.6254   23942003.5274
 -24261481.57448 -18868141.34646  19919351.8984                   19919352.3674
  -3397625.85248  -2625094.37446  21081935.8054                   21081936.0314
   8393978.42246   6565976.44743  23998042.3054                   23998045.8364
  -3564544.10548  -2762854.87346  21312312.0164                   21312312.1054
 11  9 21 19 54  0.0000000  0  7G02G09G10G04G17G20G28
   9529700.39547   7466719.98145  23054788.7894                   23054790.5204
   8116583.43847   6365483.10945  22578573.1024   22578575.4064   23406973.43046
                  18277331.06843  24203372.0704                   24203380.7464
 -22830354.10548 -17752977.04846  20191686.3134                   20191686.6334
  -1902592.54347  -1460133.38646  21366430.7974                   21366431.0474
   9881086.48446   7724761.92943  24281030.2814                   24281032.5434
  -2062906.77348  -1592747.92746  21598064.2734                   21598064.6134
 11  9 21 19 54 30.0000000  0  7G02G09G10G04G17G20G28
   9331859.43047   7312558.31945  23017140.9384                   23017142.8594
   7957705.39147   6241682.05345  22548340.0704   22548342.4694   23205001.73446
                  18119950.75743  24164938.6094                   24164946.0904
 -22974126.70348 -17865007.61046  20164327.1334                   20164327.7344
  -1982918.10948  -1522724.75446  21351145.5634                   21351145.9454
   9793228.66446   7656301.27243  24264311.5944                   24264313.9144
  -2136371.03548  -1649992.87146  21584084.6804                   21584085.0784
 11  9 21 19 55  0.0000000  0  7G02G09G10G04G17G20G28
   9134217.09047   7158551.43345  22979530.2424                   22979532.8444
   7799381.07847   6118312.50045  22518211.4304   22518214.3634   23002946.91846
                  17962505.84343  24126488.4924                   24126494.8754
 -23117369.68748 -17976625.49346  20137069.2034                   20137069.2584
  -2063176.73847  -1585263.97146  21335873.0234                   21335872.9224
   9705832.55146   7588200.36143  24247680.2344                   24247683.7814
  -2209509.51648  -1706983.97146  21570167.0394                   21570166.9494
 11  9 21 19 55 30.0000000  0  7G02G09G10G04G17G20G28
   8936772.96147   7004698.99345  22941958.0704                   22941959.7074
   7641609.98847   5995374.03145  22488188.8754   22488191.0514   22800809.97746
                  17804996.69843  24088022.4064                   24088029.6884
 -23260084.84048 -18087832.06846  20109911.6644                   20109911.8524
  -2143371.24647  -1647753.21646  21320612.2584                   21320612.3164
   9618895.64146   7520457.31243  24231136.9224                   24231139.8594
  -2282323.97748  -1763722.56146  21556310.7114                   21556311.1844
 11  9 21 19 56  0.0000000  0  7G02G09G10G04G17G20G28
   8739532.65247   6851005.39145  22904424.6174                   22904425.8754
   7484397.41047   5872870.76545  22458271.9614   22458274.5704   22598596.94146
                  17647428.41243  24049542.6724                   24049549.9064
 -23402267.88748 -18198624.01346  20082854.7504                   20082855.0274
  -2223498.18047  -1710189.79946  21305364.9304                   21305364.6804
   9532421.48046   7453074.81143  24214681.2734                   24214684.4104
  -2354810.06648  -1820205.30745  21542517.2664                   21542517.5434
 11  9 21 19 56 30.0000000  0  7G02G09G10G04G17G20G28
   8542500.33247   6697473.85145  22866930.2034                   22866931.7624
   7327747.63347   5750806.03645  22428462.4384   22428464.9534   22396313.68046
                  17489805.37443  24011049.5314                   24011056.9344
 -23543915.75048 -18308998.95146  20055899.9614                   20055900.4574
  -2303555.73847  -1772572.34146  21290130.2894                   21290130.5904
   9446412.55946   7386054.90643  24198314.7814                   24198317.9454
  -2426964.53948  -1876429.62645  21528786.8984                   21528787.1414
 11  9 21 19 57  0.0000000  0  7G02G09G10G04G17G20G28
   8345676.37147   6544104.66645  22829475.7114                   22829477.5944
   7171660.88347   5629180.02645  22398760.2274   22398762.6724   22193961.96546
                  17332128.98643  23972543.7194                   23972550.0594
 -23685029.03148 -18418957.31346  20029046.8444                   20029047.3444
  -2383545.77047  -1834902.24746  21274908.6954                   21274908.8874
   9360867.71146   7319396.51843  24182035.9064                   24182038.7154
  -2498788.04348  -1932396.06246  21515118.9454                   21515119.6134
 11  9 21 19 57 30.0000000  0  7G02G09G10G04G17G20G28
   8149068.09847   6390903.54645  22792062.2664                   22792063.8134
   7016144.64847   5507998.58545  22369166.1564   22369168.6564   21991550.58647
                  17174406.05143  23934025.8674                   23934031.9654
 -23825601.49648 -18528494.27546  20002297.0234                   20002297.4414
  -2463462.98847  -1897175.43646  21259701.2274                   21259701.1294
   9275792.78146   7253104.36843  24165845.7734                   24165850.2974
  -2570274.34048  -1988099.73746  21501515.6644                   21501515.6054
 11  9 21 19 58  0.0000000  0  7G02G09G10G04G17G20G28
   7952681.00447   6237874.80845  22754690.7344                   22754692.6414
   6861204.18447   5387265.79645  22339681.8834   22339684.9774   21789086.06647
                  17016641.76244  23895497.7034                   23895503.7814
 -23965628.84448 -18637606.45446  19975650.6644                   19975651.1294
  -2543304.05947  -1959389.27746  21244507.4614                   21244507.8444
   9191191.31646   7187181.12743  24149746.4774                   24149750.5434
  -2641419.09448  -2043537.27245  21487977.2814                   21487977.7814
 11  9 21 19 58 30.0000000  0  7G02G09G10G04G17G20G28
   7756520.76247   6085022.80245  22717362.8134                   22717363.9654
   6706844.89547   5266985.86945  22310308.6564   22310310.5744   21586575.56647
                  16858841.63043  23856960.3914                   23856966.0704
 -24105106.80148 -18746290.55846  19949108.4774                   19949108.9844
  -2623065.45747  -2021541.03946  21229329.9304                   21229329.9614
   9107067.23846   7121629.91243  24133738.5784                   24133742.6764
  -2712217.67247  -2098705.05045  21474504.4064                   21474505.1134
 11  9 21 19 59  0.0000000  0  7G02G09G10G04G17G20G28
   7560590.62947   5932350.13145  22680078.3204                   22680080.5004
   6553070.20347   5147161.46745  22281046.0394   22281049.0204   21384023.84047
                  16701009.41443  23818416.0784                   23818422.2704
 -24244033.00048 -18854544.70246  19922671.7584                   19922672.1844
  -2702745.92247  -2083629.72246  21214167.2974                   21214166.9144
   9023421.91446   7056451.64043  24117822.1414                   24117825.1844
  -2782667.64547  -2153601.21446  21461098.8914                   21461099.1954
 11  9 21 19 59 30.0000000  0  7G02G09G10G04G17G20G28
   7364896.96947   5779861.69345  22642839.0004                   22642840.0004
   6399886.35247   5027797.46545  22251896.4144   22251898.5744   21181438.74246
                  16543151.16943  23779865.5394                   23779871.8054
 -24382402.23047 -18962364.85246  19896341.2734                   19896341.6804
  -2782341.72747  -2145652.44446  21199020.8594                   21199020.4654
   8940260.01246   6991650.12243  24101996.7274                   24101999.4144
  -2852764.05948  -2208221.86445  21447759.7424                   21447760.6174
 11  9 21 20  0  0.0000000  0  7G02G09G10G04G17G20G28
   7169441.64547   5627558.98245  22605645.2274                   22605646.5864
   6247294.52347   4908894.77945  22222858.5004   22222861.5784   20978822.88746
                  16385268.96343  23741308.2344                   23741315.7074
 -24520214.31248 -19069750.85846  19870116.3364                   19870116.5164
  -2861852.98047  -2207609.28946  21183890.2894                   21183890.4184
   8857582.02946   6927225.75843  24086263.3674                   24086266.7734
  -2922506.07847  -2262566.36745  21434489.0634                   21434488.7974
 11  9 21 20  0 30.0000000  0  7G02G09G10G04G17G20G28
   6974231.05547   5475446.97045  22568497.6724                   22568498.9344
   6095300.94947   4790458.28245  22193934.9454   22193937.5354   20776184.52346
                  16227369.13243  23702747.2424                   23702753.8404
 -24657463.82048 -19176698.48346  19843998.6484                   19843999.2154
  -2941274.96548  -2269496.57046  21168776.6884                   21168776.7814
   8775391.93846   6863181.50243  24070623.4694                   24070627.3094
  -2991888.50048  -2316630.66046  21421285.4064                   21421286.0944
 11  9 21 20  1  0.0000000  0  7G02G09G10G04G17G20G28
   8354693.52747   6551132.14845  22831191.2274                   22831192.7114
   7519332.33647   5900093.16844  22464919.4384   22464921.9654   22148953.55946
                  17297059.58143  23963976.1024                   23963983.1294
 -23218725.82448 -18055603.91546  20117781.4384                   20117781.9024
  -1445185.94948  -1103712.93646  21453472.6414                   21453473.4224
  10269112.44546   8027119.56043  24354868.5164                   24354872.2424
  -1485488.49248  -1142812.54545  21707943.7974                   21707944.5394
 11  9 21 20  1 30.0000000  0  7G02G09G10G04G17G20G28
   8159982.59047   6399409.47645  22794138.3204                   22794139.3054
   7368545.12947   5782596.67745  22436225.4304   22436227.3134   21946284.53946
                  17139135.90444  23925410.3284                   23925416.5904
 -23354844.25448 -18161670.19346  20091878.8754                   20091879.1054
  -1524426.69948  -1165458.98746  21438394.0394                   21438394.2894
  10187903.00446   7963839.50243  24339415.1094                   24339418.7934
  -1554145.18748  -1196311.33845  21694878.5944                   21694879.4924
 11  9 21 20  2  0.0000000  0  7G02G09G10G04G17G20G28
   7965529.94947   6247888.05545  22757135.2974                   22757136.2734
   7218368.93447   5665576.31945  22407647.9694   22407650.2194   21743610.91446
                  16981208.69443  23886841.3524                   23886848.4024
 -23490390.33248 -18267290.47646  20066085.0634                   20066085.4924
  -1603571.22348  -1227130.06846  21423332.8914                   21423333.6804
  10107189.53146   7900945.83643  24324056.1884                   24324059.0594
  -1622431.96148  -1249521.88345  21681884.5314                   21681885.3674
 11  9 21 20  2 30.0000000  0  7G02G09G10G04G17G20G28
   7771336.60247   6096568.69545  22720181.3984                   22720182.1644
   7068805.00047   5549033.02345  22379186.8984   22379189.5394   21540935.24646
                  16823279.89843  23848273.1884                   23848280.2034
 -23625364.43748 -18372465.06946  20040400.5864                   20040400.8404
  -1682620.33648  -1288726.79546  21408290.5394                   21408290.5784
  10026971.32046   7838438.23343  24308790.1254                   24308794.2344
  -1690349.06648  -1302444.36945  21668960.2584                   21668961.7154
 11  9 21 20  3  0.0000000  0  7G02G09G10G04G17G20G28
   7577407.99647   5945455.61845  22683277.7894                   22683279.4304
   6919858.24647   5432970.67145  22350843.1254   22350845.4304   21338264.03547
                  16665354.51944  23809705.7734                   23809713.2424
 -23759762.50848 -18477190.80546  20014825.2584                   20014825.4774
  -1761570.54748  -1350246.46846  21393266.8204                   21393266.7034
   9947252.18446   7776319.32743  24293620.2504                   24293624.3484
  -1757892.01248  -1355075.31445  21656107.7664                   21656108.4144
 11  9 21 20  3 30.0000000  0  7G02G09G10G04G17G20G28
   7383748.32847   5794552.11145  22646425.5314                   22646426.9064
   6771532.67647   5317392.32445  22322618.2504   22322619.4774   21135603.45746
                  16507437.43643  23771141.6414                   23771147.5394
 -23893581.57848 -18581465.38246  19989360.3204                   19989360.8594
  -1840419.96948  -1411687.58146  21378262.6094                   21378262.2584
   9868034.19946   7714591.03543  24278545.9224                   24278548.8914
  -1825057.77748  -1407412.34045  21643326.0864                   21643326.9804
 11  9 21 20  4  0.0000000  0  7G02G09G10G04G17G20G28
   7190357.53547   5643858.11845  22609624.2344                   22609626.1644
   6623827.85247   5202297.69945  22294510.4304   22294511.8834   20932954.83247
                  16349529.69244  23732578.1884                   23732584.8984
 -24026823.00048 -18685289.83446  19964005.1484                   19964005.3554
  -1919170.35248  -1473051.53646  21363276.5944                   21363276.6844
   9789315.25446   7653251.63443  24263567.3674                   24263568.9844
  -1891847.82048  -1459456.60945  21630616.9304                   21630617.5394
 11  9 21 20  4 30.0000000  0  7G02G09G10G04G17G20G28
   6997238.57047   5493375.90845  22572874.6644                   22572876.1884
   6476746.15647   5087688.60245  22266521.3284   22266522.7814   20730322.55546
                  16191634.60644  23694018.3984                   23694025.1604
 -24159485.74248 -18788663.36346  19938760.4774                   19938761.0664
  -1997821.47748  -1534338.13946  21348309.7584                   21348310.0514
   9711096.09045   7592301.60443  24248682.3984                   24248685.0234
  -1958260.44948  -1511206.77845  21617979.0234                   21617979.9384
 11  9 21 20  5  0.0000000  0  7G02G09G10G04G17G20G28
   6804394.17247   5343107.66245  22536177.8134                   22536179.7304
   6330290.12147   4973567.07045  22238652.2034   22238654.1604   20527711.15246
                  16033755.77143  23655462.1884                   23655469.0434
 -24291568.11348 -18891584.66346  19913625.9224                   19913625.9144
  -2076371.88347  -1595546.27146  21333362.0704                   21333362.5634
   9633377.88346   7531741.94743  24233892.0634                   24233895.9614
  -2024293.66848  -1562661.30045  21605413.0944                   21605413.7304
 11  9 21 20  5 30.0000000  0  7G02G09G10G04G17G20G28
   6611820.59047   5193050.42345  22499532.4454                   22499533.7734
   6184455.91047   4859930.05245  22210900.7584   22210902.4844   20325118.53946
                  15875891.57143  23616910.1254                   23616916.7114
 -24423075.18448 -18994057.67446  19888600.9614                   19888601.5594
  -2154827.39147  -1656680.46246  21318432.6724                   21318433.0314
   9556155.82446   7471568.89843  24219197.5394                   24219200.7774
  -2089952.27048  -1613823.95345  21592918.8134                   21592919.1724
 11  9 21 20  6  0.0000000  0  7G02G09G10G04G17G20G28
   6419521.92247   5043207.44545  22462938.6644                   22462940.8054
   6039246.71147   4746780.05745  22183269.0004   22183270.6484   20122550.41047
                  15718046.47144  23578363.0474                   23578369.8164
 -24554004.44148 -19096080.45446  19863686.0944                   19863686.4494
  -2233185.98047  -1717739.12246  21303521.5784                   21303521.4264
   9479430.60946   7411782.99243  24204597.5784                   24204600.9734
  -2155233.71548  -1664692.67745  21580495.9454                   21580496.7034
 11  9 21 20  6 30.0000000  0  7G02G09G10G04G17G20G28
   6227494.44947   4893575.77945  22426397.1804                   22426398.8634
   5894658.43847   4634113.89145  22155754.5314   22155755.9224   19920004.55946
                  15560218.73343  23539819.4694                   23539825.2894
 -24684360.96948 -19197656.92946  19838879.7734                   19838880.1054
  -2311453.10948  -1778726.52246  21288627.6254                   21288627.7974
   9403196.64546   7352379.95843  24190090.0704                   24190093.4774
  -2220142.96548  -1715271.39245  21568144.6644                   21568145.5944
 11  9 21 20  7  0.0000000  0  7G02G09G10G04G17G20G28
   6035734.28947   4744152.39345  22389906.4384                   22389908.3134
   5750686.95347   4521928.36145  22128357.1174   22128358.9924   19717478.89846
                  15402406.71543  23501280.1094                   23501284.5824
 -24814150.03148 -19298791.23746  19814181.5944                   19814182.2344
  -2389634.57047  -1839647.15946  21273750.6024                   21273750.5904
   9327448.91846   7293355.71843  24175676.4064                   24175679.1054
  -2284684.88748  -1765563.87845  21555862.5784                   21555863.4694
 11  9 21 20  7 30.0000000  0  7G02G09G10G04G17G20G28
   5844241.80147   4594937.58245  22353466.4534                   22353467.6174
   5607332.11347   4410223.31345  22101077.5084   22101079.9774   19514974.89846
                  15244611.54443  23462744.9774                   23462750.0234
 -24943372.96548 -19399484.40846  19789591.8204                   19789591.9144
  -2467731.94148  -1900502.28046  21258888.9064                   21258889.5004
   9252185.55946   7234708.88343  24161354.2974                   24161358.2074
  -2348860.38748  -1815570.83945  21543650.5944                   21543651.6294
 11  9 21 20  8  0.0000000  0  7G02G09G10G04G17G20G28
   7228443.25447   5673536.24345  22616871.4144                   22616872.5044
   7040017.98447   5526601.98145  22373708.1724   22373710.8984   20887921.44946
                  16314440.17143  23724007.7424                   23724012.6174
 -23496606.83648 -18272134.15746  20064901.8364                   20064902.1804
   -970324.26648   -733691.12846  21543836.4534                   21543836.9144
  10752826.97346   8404039.92543  24446916.7814                   24446919.8554
   -837248.53948   -637691.56145  21831301.1724                   21831301.7934
 11  9 21 20  8 30.0000000  0  7G02G09G10G04G17G20G28
   7037484.62147   5524737.46045  22580532.9694                   22580534.1454
   6897893.32447   5415855.51545  22346662.8364   22346665.2234   20685465.30147
                  16156682.29144  23685481.5554                   23685486.8984
 -23624702.95348 -18371949.28746  20040526.1884                   20040526.5164
  -1048260.34448   -794420.57746  21529005.4384                   21529006.1844
  10678524.57046   8346141.89743  24432778.0004                   24432780.4694
   -900696.18747   -687131.38245  21819227.1174                   21819228.2774
 11  9 21 20  9  0.0000000  0  7G02G09G10G04G17G20G28
   6846789.96548   5376144.33445  22544244.7194                   22544245.9614
   6756379.85947   5305585.32244  22319733.7344   22319736.0044   20483032.42246
                  15998942.54843  23646959.4304                   23646964.3554
 -23752241.31248 -18471329.80946  20016255.9534                   20016256.5084
  -1126121.66047   -855091.77146  21514188.9694                   21514189.4104
  10604696.39146   8288613.45843  24418728.4694                   24418731.2934
   -963784.72747   -736291.36645  21807222.2504                   21807222.9534
 11  9 21 20  9 30.0000000  0  7G02G09G10G04G17G20G28
   6656358.48448   5227756.29445  22508006.9144                   22508008.0204
   6615476.41047   5195790.45945  22292921.4224   22292923.4654   20280623.82846
                  15841221.74943  23608442.3364                   23608448.5824
 -23879224.04348 -18570277.36146  19992092.1254                   19992092.0164
  -1203910.73048   -915706.66346  21499386.6254                   21499386.6454
  10531339.87146   8231452.56543  24404769.6884                   24404771.7154
  -1026516.00848   -785172.98545  21795284.6414                   21795285.8954
 11  9 21 20 10  0.0000000  0  7G02G09G10G04G17G20G28
   6466191.21148   5079574.12845  22471819.3134                   22471820.2074
   6475183.45347   5086471.30445  22266224.4774   22266226.6724   20078241.95746
                  15683521.77243  23569929.9614                   23569936.1684
 -24005651.53148 -18668792.26046  19968033.6564                   19968034.2424
  -1281628.18448   -976265.74646  21484597.3054                   21484597.0554
  10458453.70346   8174658.06343  24390899.6484                   24390902.5904
  -1088890.28548   -833776.39745  21783415.5234                   21783415.8594
 11  9 21 20 10 30.0000000  0  7G02G09G10G04G17G20G28
   6276284.86348   4931595.28045  22435681.5004                   22435681.9454
   6335496.97347   4977624.72145  22239642.2424   22239644.6724   19875885.45746
                  15525841.53944  23531422.8834                   23531429.0514
 -24131528.72748 -18766878.37446  19944080.2424                   19944080.7814
  -1359279.19148  -1036773.04746  21469820.9384                   21469820.8634
  10386032.83646   8118226.27742  24377118.0554                   24377120.8244
  -1150912.28147   -882105.30945  21771612.9534                   21771614.0594
 11  9 21 20 11  0.0000000  0  7G02G09G10G04G17G20G28
   6086640.27047   4783820.41945  22399592.6884                   22399593.5084
   6196417.84847   4869251.42945  22213176.7584   22213178.4614   19673557.41847
                  15368183.46843  23492921.1644                   23492926.2894
 -24256855.97348 -18864535.94346  19920231.4224                   19920231.6214
  -1436864.15247  -1097228.89346  21455056.4844                   21455057.0394
  10314076.18846   8062156.16843  24363425.8364                   24363428.6454
  -1212581.93448   -930159.66345  21759877.6724                   21759878.4384
 11  9 21 20 11 30.0000000  0  7G02G09G10G04G17G20G28
   5897257.74248   4636249.72845  22363554.5944                   22363555.8134
   6057945.40647   4761350.85645  22186826.2894   22186827.8164   19471259.69546
                  15210549.01544  23454425.1954                   23454430.9384
 -24381635.00048 -18961766.33646  19896486.5084                   19896487.0634
  -1514384.66448  -1157634.50746  21440305.3284                   21440305.2974
  10242581.89546   8006446.29243  24349821.0554                   24349822.8244
  -1273900.43448   -977940.40745  21748209.1094                   21748210.4024
 11  9 21 20 12  0.0000000  0  7G02G09G10G04G17G20G28
   5708134.13748   4488880.83145  22327565.5704                   22327566.2384
   5920075.57847   4653919.84345  22160590.8754   22160591.1374   19268990.74647
                  15052937.03844  23415934.8984                   23415940.0164
 -24505870.48848 -19058573.18746  19872845.6644                   19872845.4064
  -1591846.28548  -1217994.25246  21425565.0234                   21425565.0944
  10171544.30146   7951092.34143  24336302.1174                   24336305.0434
  -1334872.23447  -1025450.98145  21736606.6094                   21736608.0704
 11  9 21 20 12 30.0000000  0  7G02G09G10G04G17G20G28
   5519271.02748   4341714.86845  22291625.3134                   22291626.7974
   5782809.36747   4546959.15345  22134470.1254   22134470.8754   19066754.13747
                  14895350.20744  23377449.8134                   23377456.4384
 -24629562.58648 -19154956.61846  19849307.4694                   19849307.8204
  -1669248.80148  -1278307.91046  21410835.5084                   21410835.8754
  10100963.01646   7896093.91143  24322871.0314                   24322873.7074
  -1395496.88348  -1072691.06645  21725070.3444                   21725071.3444
 11  9 21 20 13  0.0000000  0  7G02G09G10G04G17G20G28
   5330667.71948   4194751.39045  22255735.4144                   22255735.9924
   5646145.52047   4440467.87945  22108463.8134   22108464.5664   18864550.55546
                  14737789.12744  23338971.9924                   23338977.6524
 -24752713.53548 -19250918.38546  19825872.6564                   19825873.0274
  -1746594.68447  -1338577.46746  21396117.1804                   21396117.2154
  10030835.28946   7841449.02943  24309526.7734                   24309530.0784
  -1455776.31648  -1119662.13445  21713599.5864                   21713600.7154
 11  9 21 20 13 30.0000000  0  7G02G09G10G04G17G20G28
   5142319.50848   4047986.65345  22219894.0084                   22219894.9964
   5510078.73447   4334441.80845  22082571.3444   22082572.1954   18662377.84447
                  14580252.10744  23300499.1804                   23300505.7774
 -24875329.36748 -19346463.16846  19802539.4384                   19802539.9414
  -1823889.85947  -1398807.49146  21381408.2274                   21381408.6844
   9961154.32046   7787152.07643  24296266.5474                   24296269.0944
  -1515716.62148  -1166368.94745  21702193.4384                   21702194.0234
 11  9 21 20 14  0.0000000  0  7G02G09G10G04G17G20G28
   4954226.07048   3901420.45245  22184101.0314                   22184101.7854
   5374607.93847   4228880.16445  22056791.7504   22056793.7464   18460237.48847
                  14422740.28644  23262033.6564                   23262039.0044
 -24997412.39148 -19441592.77846  19779307.9304                   19779308.2974
  -1901136.44148  -1458999.64946  21366709.0554                   21366709.2974
   9891917.84446   7733201.63943  24283090.8914                   24283094.1644
  -1575318.75048  -1212812.25145  21690851.2664                   21690852.6294
 11  9 21 20 14 30.0000000  0  7G02G09G10G04G17G20G28
   4766385.06648   3755050.96645  22148355.7584                   22148357.4344
   5239729.92647   4123780.41045  22031124.9694   22031127.1604   18258128.68047
                  14265253.09644  23223572.8914                   23223578.3834
 -25118966.51248 -19536310.25846  19756177.1174                   19756177.3204
  -1978338.55148  -1519157.15846  21352018.0394                   21352018.2734
   9823121.19146   7679593.82543  24269999.8594                   24270002.5514
  -1634586.98048  -1258995.36445  21679573.2194                   21679574.4614
 11  9 21 20 15  0.0000000  0  7G02G09G10G04G17G20G28
   4578797.77748   3608879.16845  22112659.1024                   22112660.2624
   5105445.10947   4019142.89345  22005571.1644   22005574.2814   18056054.45347
                  14107792.76744  23185119.6094                   23185124.7624
 -25239992.18448 -19630615.95146  19733146.6414                   19733146.9414
  -2055496.54348  -1579280.28446  21337334.9774                   21337335.4654
   9754763.17246   7626327.87643  24256991.4384                   24256994.8984
  -1693521.00448  -1304918.07845  21668358.6174                   21668359.3834
 11  9 21 20 15 30.0000000  0  7G02G09G10G04G17G20G28
   5966891.05548   4690510.40745  22376804.2894                   22376805.4964
   6547177.89847   5142571.04345  22279924.1254   22279926.7344   19429444.25047
                  15177966.82344  23446465.9454                   23446472.6054
 -23785066.50448 -18496907.61046  20010009.8204                   20010009.9844
   -557188.78948   -411767.79646  21622453.5314                   21622453.6484
  11262265.03146   8801004.63743  24543859.3834                   24543862.4654
   -176699.46948   -122979.30345  21957000.1644                   21957001.5124
 11  9 21 20 16  0.0000000  0  7G02G09G10G04G17G20G28
   5779810.99248   4544733.83445  22341203.9844                   22341205.0474
   6414076.77747   5038855.90045  22254595.7504   22254598.9924   19227444.91447
                  15020564.86044  23408027.4454                   23408032.9924
 -23905040.95748 -18590394.18146  19987179.4774                   19987179.4534
   -634263.43448   -471825.97146  21607786.9224                   21607786.9384
  11194778.05946   8748417.37343  24531017.3984                   24531020.5784
   -234969.59848   -168384.69045  21945911.3984                   21945912.8094
 11  9 21 20 16 30.0000000  0  7G02G09G10G04G17G20G28
   5592985.62948   4399155.75246  22305652.4454                   22305653.3954
   6281567.85547   4935602.21345  22229380.1564   22229383.2934   19025487.31347
                  14863195.50744  23369596.0864                   23369601.2194
 -24024491.00448 -18683472.11746  19964448.6334                   19964448.8014
   -711297.28148   -531852.35246  21593128.0554                   21593127.7974
  11127724.60546   8696167.91543  24518257.6174                   24518260.6454
   -292908.22347   -213531.74945  21934886.3674                   21934887.5864
 11  9 21 20 17  0.0000000  0  7G02G09G10G04G17G20G28
   5406414.87948   4253776.04945  22270149.1414                   22270149.9144
   6149650.41847   4832809.39945  22204276.8674   22204280.0594   18823573.34447
                  14705860.11944  23331173.1564                   23331178.4844
 -24143418.31248 -18776142.73846  19941817.2584                   19941817.9024
   -788292.07048   -591848.31046  21578476.1094                   21578476.5044
  11061102.31346   8644254.39043  24505579.2504                   24505583.1024
   -350516.61347   -258421.48845  21923924.3984                   21923925.4654
 11  9 21 20 17 30.0000000  0  7G02G09G10G04G17G20G28
   5220099.55548   4108595.39245  22234694.2504                   22234694.9694
   6018324.12147   4730477.21945  22179286.4304   22179289.7704   18621705.91846
                  14548561.01044  23292758.3524                   23292764.4184
 -24261824.31248 -18868407.13046  19919285.6644                   19919286.0084
   -865248.87948   -651814.68146  21563831.9534                   21563832.5084
  10994909.61346   8592675.69343  24492983.2034                   24492987.0204
   -407795.73847   -303054.66445  21913024.0084                   21913025.6764
 11  9 21 20 18  0.0000000  0  7G02G09G10G04G17G20G28
   5034041.13748   3963614.89845  22199288.5004                   22199289.3014
   5887589.24247   4628605.88145  22154408.6484   22154410.6914   18419887.91046
                  14391300.37644  23254353.6954                   23254359.3554
 -24379709.10948 -18960265.39746  19896852.9844                   19896853.2194
   -942167.72348   -711751.47446  21549194.5004                   21549195.2074
  10929145.85246   8541431.29443  24480469.2114                   24480472.1414
   -464745.38347   -347431.09645  21902187.2584                   21902188.6724
 11  9 21 20 18 30.0000000  0  7G02G09G10G04G17G20G28
   4848238.18848   3818833.47245  22163931.2194                   22163931.8134
   5757443.55948   4527193.65245  22129642.7034   22129644.6994   18218120.31646
                  14234079.05344  23215958.9694                   23215962.9064
 -24497075.80148 -19051719.94846  19874518.8524                   19874519.0434
  -1019051.17648   -771660.70246  21534563.7584                   21534564.3554
  10863807.34846   8490518.19543  24468035.4064                   24468038.8794
   -521367.92247   -391552.64445  21891412.2664                   21891413.4414
 11  9 21 20 19  0.0000000  0  7G02G09G10G04G17G20G28
   4662693.13348   3674253.02045  22128623.3914                   22128623.6214
   5627888.70748   4426241.83145  22104989.1804   22104990.9804   18016407.73846
                  14076900.62244  23177573.4304                   23177579.1374
 -24613923.61348 -19142770.17046  19852283.4064                   19852283.7624
  -1095898.04348   -831541.40346  21519940.6884                   21519941.1524
  10798894.56646   8439936.70743  24455682.7664                   24455685.9104
   -577662.19947   -435418.39445  21880699.8524                   21880701.1724
 11  9 21 20 19 30.0000000  0  7G02G09G10G04G17G20G28
   4477403.96948   3529871.95345  22093363.9224                   22093364.2774
   5498921.38747   4325747.80945  22080447.1804   22080449.2114   17814749.58246
                  13919764.57844  23139199.4694                   23139203.9454
 -24730256.86748 -19233419.43346  19830146.2194                   19830146.1024
  -1172712.29748   -891396.68846  21505323.5634                   21505324.0234
  10734402.80546   8389683.44743  24443410.8524                   24443413.6174
   -633631.99247   -479031.30445  21870049.3594                   21870050.4414
 11  9 21 20 20  0.0000000  0  7G02G09G10G04G17G20G28
   4292373.08648   3385692.14345  22058153.6094                   22058153.4694
   5370543.43447   4225713.03945  22056017.5784   22056019.7424   17613150.64847
                  13762674.67844  23100836.9144                   23100841.7384
 -24846074.85548 -19323667.20446  19808106.4144                   19808106.5634
  -1249492.82048   -951225.70046  21490713.0864                   21490713.2114
  10670332.09046   8339758.19643  24431219.0634                   24431221.6804
   -689275.98847   -522390.35745  21859460.5004                   21859461.3444
 11  9 21 20 20 30.0000000  0  7G02G09G10G04G17G20G28
   4107602.87148   3241715.42445  22022993.0784                   22022993.0044
   5242756.23847   4126138.59145  22031701.0394   22031701.9304   17411615.60947
                  13605634.57344  23062485.8054                   23062490.3984
 -24961376.88748 -19413512.92747  19786165.3054                   19786165.3524
  -1326238.84448  -1011027.83746  21476108.6094                   21476108.8834
  10606682.81646   8290161.36543  24419105.9774                   24419109.4184
   -744593.10547   -565494.70045  21848934.0784                   21848935.7384
 11  9 21 20 21  0.0000000  0  7G02G09G10G04G17G20G28
   3923089.21548   3097938.66346  21987881.1564                   21987881.2774
   5115554.88347   4027020.64745  22007495.1414   22007495.7854   17210142.50447
                  13448642.72444  23024146.2114                   23024151.5594
 -25076168.73448 -19502961.09647  19764321.4224                   19764321.1994
  -1402955.21948  -1070806.86746  21461509.7504                   21461510.6094
  10543448.97746   8240888.25543  24407073.8054                   24407077.3914
   -799588.43047   -608348.30245  21838469.1564                   21838470.5784
 11  9 21 20 21 30.0000000  0  7G02G09G10G04G17G20G28
   3738837.19948   2954365.77645  21952818.7424                   21952819.2034
   4988943.00447   3928362.05845  21983401.7114   21983402.4574   17008737.93447
                  13291704.29144  22985819.9224                   22985825.1134
 -25190447.46148 -19592009.43747  19742574.6024                   19742575.0234
  -1479638.98848  -1130560.48846  21446917.3674                   21446917.6884
  10480632.97346   8191940.72043  24395120.0164                   24395123.2344
   -854258.70747   -650948.62945  21828065.5864                   21828067.2814
 11  9 21 20 22  0.0000000  0  7G02G09G10G04G17G20G28
   3554843.51648   2810994.16645  21917805.8834                   21917806.2274
   4862916.42247   3830159.52545  21959419.6024   21959420.4844   16807401.02047
                  13134818.55944  22947506.8364                   22947511.8754
 -25304218.31248 -19680662.02946  19720924.8674                   19720924.8444
  -1556294.24648  -1190291.90946  21432330.6804                   21432330.7544
  10418229.00846   8143314.30243  24383244.2504                   24383248.0204
   -908608.30947   -693299.06345  21817723.5314                   21817724.3554
 11  9 21 20 22 30.0000000  0  7G02G09G10G04G17G20G28
   4946534.37948   3895428.69145  22182635.8054                   22182636.0314
   6312898.55147   4960015.73345  22235342.3594   22235342.9224   18181560.25847
                  14205592.18444  23209000.6414                   23209005.9774
 -23842058.97748 -18541317.08646  19999164.1334                   19999164.8284
    -57499.94948    -22400.29546  21717541.9144                   21717541.9804
  11931657.21546   9322608.98943  24671241.5784                   24671243.8714
    612783.16047    492200.68545  22107234.8754                   22107236.1684
 11  9 21 20 23  0.0000000  0  7G02G09G10G04G17G20G28
   4763060.39147   3752462.05146  22147721.8134                   22147721.5434
   6188042.46947   4862725.27745  22211582.3284   22211584.7194   17980367.75846
                  14048818.99244  23170714.5314                   23170718.9224
 -23954816.21148 -18629179.84347  19977707.0554                   19977707.7934
   -134099.65648    -82088.39546  21702965.5234                   21702965.6564
  11870073.61346   9274621.79143  24659521.2194                   24659525.6954
    559073.80947    450349.14845  22097014.1884                   22097015.4224
 11  9 21 20 23 30.0000000  0  7G02G09G10G04G17G20G28
   4579845.38347   3609697.20845  22112857.0394                   22112857.5594
   6063769.30147   4765889.04145  22187934.0474   22187936.0274   17779250.25046
                  13892104.22844  23132443.2114                   23132448.6684
 -24067070.36748 -18716650.59947  19956345.9454                   19956346.1764
   -210674.18448   -141756.91046  21688393.6334                   21688393.5944
  11808896.05546   9226950.91042  24647879.7894                   24647883.1294
    505681.87947    408744.94745  22086853.6334                   22086855.2774
 11  9 21 20 24  0.0000000  0  7G02G09G10G04G17G20G28
   4396891.26248   3467135.67146  22078042.2974                   22078042.3524
   5940079.30547   4669507.22145  22164396.5784   22164398.6884   17578211.28946
                  13735450.64044  23094186.2504                   23094191.7424
 -24178821.66848 -18803729.52846  19935080.4064                   19935080.7624
   -287223.30548   -201405.60546  21673826.8754                   21673827.1054
  11748124.08246   9179596.06443  24636316.2664                   24636318.8134
    452607.40247    367388.11145  22076754.7424                   22076755.9384
 11  9 21 20 24 30.0000000  0  7G02G09G10G04G17G20G28
   4214197.91048   3324777.31246  22043276.3674                   22043276.4384
   5816971.73047   4573579.22745  22140970.1564   22140972.6604   17377253.30946
                  13578860.21944  23055945.3054                   23055950.2774
 -24290071.92648 -18890418.02847  19913910.0864                   19913910.7544
   -363747.95347   -261035.25546  21659264.4924                   21659265.0164
  11687755.35546   9132555.49642  24624827.4924                   24624830.8444
    399849.53947    326277.99445  22066714.9064                   22066716.5204
 11  9 21 20 25  0.0000000  0  7G02G09G10G04G17G20G28
   4031770.16448   3182625.91046  22008561.8364                   22008561.5234
   5694450.22747   4478107.92945  22117655.4534   22117657.7934   17176383.32846
                  13422338.32844  23017720.9614                   23017725.7934
 -24400818.25848 -18976713.86446  19892835.7504                   19892836.3094
   -440244.50848   -320642.99146  21644707.7034                   21644708.5354
  11627792.39546   9085831.09842  24613417.2274                   24613419.9454
    347411.58647    285417.13245  22056736.3674                   22056738.1484
 11  9 21 20 25 30.0000000  0  7G02G09G12G10G04G17G28
   3849603.49648   3040677.96746  21973896.3834                   21973896.3284
   5572508.85947   4383088.67145  22094450.7274   22094453.2734
  35906465.91457  28019048.39854  24655069.3594                   24655070.8284
  16975598.90246  13265883.11944  22979512.9534                   22979517.5044
 -24511067.31248 -19062622.20746  19871856.3134                   19871856.2734
   -516719.01248   -380233.56146  21630155.6024                   21630155.6484
    295287.48447    244800.85845  22046817.9534                   22046819.5314
 11  9 21 20 26  0.0000000  0  7G02G09G12G10G04G17G28
   3667691.61348   2898928.54446  21939279.3754                   21939279.8134
   5451140.57447   4288515.97645  22071355.3284   22071357.9494
  35698579.57846  27857059.18544  24615508.8054                   24615511.3134
  16774896.04746  13109491.41044  22941319.9614                   22941324.4574
 -24620827.03948 -19148149.25746  19850969.6564                   19850969.6214
   -593178.60248   -439812.49946  21615605.8364                   21615606.2704
    243469.93447    204423.42845  22036957.0944                   22036958.6994
 11  9 21 20 26 30.0000000  0  7G02G09G12G10G04G17G28
   3486047.75048   2757387.95446  21904713.7194                   21904713.5984
   5330357.29347   4194399.14345  22048370.8674   22048373.6804
  35490616.59446  27695010.32643  24575934.5784                   24575936.3204
  16574290.53946  12953175.60644  22903145.7814                   22903150.2074
 -24730086.32848 -19233286.34846  19830178.3754                   19830178.0434
   -669611.52348   -499370.63646  21601061.1484                   21601061.1094
    191970.65247    164294.00645  22027157.5784                   22027159.0904
 11  9 21 20 27  0.0000000  0  7G02G09G12G10G04G17G28
   3304681.39548   2616063.62646  21870200.9614                   21870200.7664
   5210166.91447   4100744.30345  22025499.6564   22025502.5474
  35282586.76646  27532909.28843  24536348.3754                   24536350.3094
  16373793.85546  12796944.61844  22864992.9694                   22864996.5984
 -24838837.68448 -19318027.65646  19809483.4614                   19809483.6214
   -746009.24247   -558901.36646  21586522.8204                   21586523.5984
    140797.77047    124418.93245  22017419.1644                   22017420.8444
 11  9 21 20 27 30.0000000  0  7G02G09G12G10G04G17G28
   3123593.23448   2474956.06246  21835740.9774                   21835740.6684
   5090568.93447   4007551.07745  22002740.2584   22002743.7154
  35074491.61347  27370757.36243  24496749.0164                   24496750.0634
  16173408.79747  12640800.58044  22826860.3054                   22826865.1484
 -24947082.52348 -19402374.27647  19788885.1804                   19788885.3754
   -822372.39547   -618405.15546  21571991.3594                   21571992.3164
     89950.41447     84797.49245  22007743.6024                   22007745.0044
 11  9 21 20 28  0.0000000  0  7G02G09G12G10G04G17G28
   2942785.14148   2334066.73746  21801334.2974                   21801333.8714
   4971563.98447   3914819.94145  21980094.5784   21980097.6174
  34866333.56346  27208556.34343  24457137.6334                   24457138.3834
  15973139.55147  12484746.77644  22788750.4844                   22788754.9024
 -25054821.03548 -19486326.36146  19768383.4224                   19768383.4024
   -898700.18047   -677881.37646  21557466.2504                   21557467.2774
     39429.14847     45430.16145  21998129.9924                   21998131.1214
 11  9 21 20 28 30.0000000  0  7G02G09G12G10G04G17G28
   2762255.16048   2193394.14346  21766980.2034                   21766980.4024
   4853148.81347   3822548.37845  21957561.2194   21957563.7664
  34658111.19946  27046305.24843  24417513.2584                   24417515.5744
  15772986.60947  12328783.58744  22750662.4694                   22750666.9224
 -25162057.05948 -19569886.87847  19747976.8204                   19747977.0394
   -974995.61747   -737332.40346  21542948.2034                   21542948.7814
    -10769.20347      6314.45945  21988577.3524                   21988579.0204
 11  9 21 20 29  0.0000000  0  7G02G09G12G10G04G17G28
   2582003.60248   2052938.45246  21732679.7504                   21732679.4924
   4735322.89847   3730735.97045  21935139.9384   21935142.4304
  34449825.89546  26884005.19243  24377877.3284                   24377880.5864
  15572952.68047  12172913.14644  22712597.0944                   22712601.6454
 -25268791.94548 -19653056.91646  19727665.6024                   19727665.8834
  -1051259.28947   -796758.67246  21528436.2344                   21528436.3054
    -60645.76247    -32550.52245  21979086.5314                   21979087.8794
 11  9 21 20 29 30.0000000  0  7G02G09G12G10G04G17G28
   3977460.28148   3140307.38646  21998225.9384                   21998225.7624
   6193512.43847   4866987.56945  22212624.3054   22212625.8204
  35816909.11346  27949264.97943  24638025.2584                   24638029.0744
  16948470.58247  13244745.46444  22974349.7584                   22974354.5164
 -23799600.73448 -18508232.58547  20007243.8674                   20007243.8674
    447933.98847    371443.85546  21813722.8754                   21813723.6484
   1465223.71147   1156438.56345  22269449.6094                   22269451.6844
 11  9 21 20 30  0.0000000  0  7G02G09G12G10G04G17G28
   3797772.78948   3000291.25746  21964032.7344                   21964032.6454
   6076867.27347   4776095.23545  22190427.0394   22190429.2934
  35608507.09046  27786873.89244  24598368.0944                   24598372.1954
  16748688.65647  13089071.36844  22936332.7664                   22936335.9344
 -23905332.95348 -18590621.31947  19987123.4924                   19987123.4734
    371737.40247    312069.86746  21799223.3444                   21799224.0904
   1415993.74647   1118077.42745  22260081.4844                   22260083.1134
 11  9 21 20 30 30.0000000  0  7G02G09G12G10G04G17G28
   3618366.93448   2860494.58846  21929892.8204                   21929892.6914
   5960810.34447   4685661.25445  22168342.2194   22168343.9964
  35400047.30146  27624437.78044  24558699.3984                   24558703.7734
  16549036.07447  12933498.10044  22898339.6094                   22898344.0434
 -24010567.36748 -18672622.15147  19967098.0784                   19967098.1454
    295572.46547    252720.52546  21784729.3914                   21784730.5944
   1367084.68847   1079966.34445  22250774.7194                   22250776.4654
 11  9 21 20 31  0.0000000  0  7G02G09G12G10G04G17G28
   3439244.19948   2720918.51446  21895806.6094                   21895806.8484
   5845341.63348   4595685.61645  22146369.0084   22146371.9184
  35191532.06346  27461958.49443  24519020.4454                   24519024.6844
  16349516.18447  12778028.18345  22860371.8134                   22860376.7704
 -24115304.41048 -18754235.41747  19947167.2194                   19947167.3674
    219439.68047    193396.24046  21770242.1804                   21770243.1024
   1318496.37947   1042105.19645  22241528.7664                   22241530.8874
 11  9 21 20 31 30.0000000  0  7G02G09G12G10G04G17G28
   3260405.74248   2581563.96946  21861774.9384                   21861774.6954
   5730460.61747   4506167.94345  22124508.0864   22124510.3554
  34982963.32046  27299437.51743  24479330.4924                   24479335.2734
  16150132.75847  12622664.60344  22822430.6024                   22822434.3094
 -24219545.03948 -18835461.87447  19927330.9774                   19927331.4734
    143339.18047    134097.13146  21755760.4144                   21755761.2274
   1270228.57047   1004493.80045  22232343.7734                   22232345.7424
 11  9 21 20 32  0.0000000  0  7G02G09G12G10G04G17G28
   3081853.59048   2442432.49846  21827797.2584                   21827797.3984
   5616168.36747   4417109.02745  22102759.0864   22102761.0314
  34774344.12146  27136877.14843  24439631.2974                   24439635.2344
  15950890.75047  12467411.25344  22784515.7344                   22784520.1914
 -24323289.14148 -18916301.41646  19907588.8054                   19907589.0314
     67272.34848     74824.21946  21741285.5394                   21741286.0004
   1222282.38747    967133.01645  22223220.1334                   22223221.5274
 11  9 21 20 32 30.0000000  0  7G02G09G12G10G04G17G28
   2903588.46948   2303524.71946  21793874.6174                   21793874.4654
   5502464.16447   4328508.32445  22081122.0004   22081124.1254
  34565676.05546  26974278.75044  24399923.3984                   24399927.7704
  15751793.10247  12312270.38745  22746628.8524                   22746633.3014
 -24426538.16448 -18996755.18447  19887941.4774                   19887941.4924
     -8761.14847     15577.31646  21726816.6644                   21726817.4734
   1174656.72347    930022.00345  22214157.2034                   22214158.3164
 11  9 21 20 33  0.0000000  0  7G02G09G12G10G04G17G28
   2725612.78548   2164842.46246  21760006.7034                   21760006.9774
   5389348.76648   4240366.44445  22059596.7034   22059598.6054
  34356962.59846  26811645.12243  24360205.1334                   24360210.3634
  15552844.50047  12157245.66144  22708770.4224                   22708773.6414
 -24529291.72348 -19076822.87747  19868388.2584                   19868388.1214
    -84760.04747    -43642.65146  21712354.6254                   21712355.3444
   1127352.78147    893161.63845  22205155.6414                   22205157.3244
 11  9 21 20 33 30.0000000  0  7G02G09G12G10G04G17G28
   2547929.37948   2026387.94246  21726194.5234                   21726195.2234
   5276823.68447   4152684.54945  22038183.7504   22038185.6214
  34148207.44546  26648978.84643  24320481.1724                   24320485.0904
  15354050.32447  12002341.20945  22670940.8984                   22670945.0864
 -24631549.07048 -19156503.91546  19848929.1334                   19848929.0004
   -160721.84447   -102833.69246  21697899.8284                   21697900.0474
   1080372.03947    856553.14245  22196215.7814                   22196217.2624
 11  9 21 20 34  0.0000000  0  7G02G09G12G10G04G17G28
   2370542.68848   1888164.63146  21692439.0944                   21692439.1454
   5164891.66048   4065464.76845  22016884.1724   22016885.1414
  33939415.23846  26486283.75143  24280749.5234                   24280753.3324
  15155417.09447  11847562.22644  22633141.9534                   22633146.0944
 -24733307.90248 -19235796.50547  19829564.8754                   19829565.3324
   -236643.46948   -161993.43746  21683452.5234                   21683452.6564
   1033717.12547    820198.51545  22187337.8284                   22187339.6604
 11  9 21 20 34 30.0000000  0  7G02G09G12G10G04G17G28
   2193457.45348   1750176.22246  21658740.8284                   21658740.8914
   5053555.60247   3978709.37345  21995696.9454   21995698.7854
  33730591.88746  26323564.34643  24241011.0944                   24241014.6804
  14956951.97347  11692914.24345  22595374.7274                   22595378.8984
 -24834566.03548 -19314698.93647  19810296.3204                   19810296.1884
   -312521.57047   -221119.27146  21669013.3284                   21669013.6094
    987391.37547    784100.40345  22178522.3054                   22178523.6684
 11  9 21 20 35  0.0000000  0  7G02G09G12G10G04G17G28
   2016677.42648   1612425.63846  21625100.6024                   21625100.3834
   4942818.30147   3892420.56145  21974625.1174   21974626.1334
  33521742.70746  26160824.86343  24201268.8364                   24201273.4064
  14758661.73047  11538402.49145  22557641.5634                   22557645.4384
 -24935321.28548 -19393209.50446  19791123.1414                   19791123.3324
   -388352.73048   -280208.51746  21654582.8054                   21654583.2934
    941397.47747    748260.86545  22169770.5864                   22169772.1294
 11  9 21 20 35 30.0000000  0  7G02G09G12G10G04G17G28
   1840208.32848   1474917.33646  21591519.7734                   21591519.5944
   4832683.85247   3806601.48245  21953666.8054   21953668.4614
  33312873.73847  25998070.00744  24161522.3204                   24161526.9574
  14560554.35247  11384033.23744  22519943.1254                   22519946.8484
 -25035570.19148 -19471325.52646  19772046.3754                   19772046.3874
   -464132.06648   -339257.39246  21640162.7974                   21640163.2814
    895739.76647    712683.30145  22161082.0084                   22161082.9064
 11  9 21 20 36  0.0000000  0  7G02G09G12G10G04G17G28
   1664054.26248   1337654.50446  21557998.8204                   21557998.5204
   4723154.71547   3721254.10845  21932824.0164   21932825.8014
  33103990.37547  25835303.86544  24121773.2974                   24121777.0274
  14362636.44147  11229811.62445  22482280.0864                   22482284.3244
 -25135311.08648 -19549045.70247  19753066.3914                   19753066.3134
   -539856.20748   -398263.25046  21625753.0474                   21625753.6174
    850420.81347    677369.70345  22152458.0784                   22152459.6414
 11  9 21 20 36 30.0000000  0  7G02G09G12G10G04G17G28
   3063643.77748   2428243.83546  21824331.8364                   21824331.1334
   6189655.65247   4863982.08545  22211890.1804   22211890.8984
  34470523.47746  26900134.99544  24381816.1024                   24381820.1374
  15740339.80947  12303346.84744  22744448.4694                   22744452.1174
 -23659119.49248 -18398766.53246  20033976.2194                   20033976.3164
    959899.44148    770377.47746  21911147.2034                   21911147.6414
   2380863.35947   1869922.20145  22443691.3754                   22443693.3054
 11  9 21 20 37  0.0000000  0  7G02G09G12G10G04G17G28
   2888131.13748   2291480.82946  21790932.9064                   21790932.5044
   6081343.64147   4779583.10545  22191279.0474   22191280.3984
  34261626.10947  26737357.97644  24342063.9694                   24342068.6804
  15542819.89847  12149435.38944  22706861.7344                   22706865.4384
 -23757838.49248 -18475690.41447  20015190.7114                   20015190.9494
    884294.85947    711464.79346  21896760.0084                   21896760.8954
   2336228.77347   1835141.85545  22435197.5704                   22435200.3324
 11  9 21 20 37 30.0000000  0  7G02G09G12G10G04G17G28
   2712944.92248   2154972.16746  21757596.1564                   21757595.1684
   5973643.71947   4695661.07945  22170784.3834   22170785.8014
  34052728.96147  26574581.12344  24302311.9384                   24302316.0514
  15345508.40647  11995686.30344  22669314.2584                   22669317.5634
 -23856044.46148 -18552214.53247  19996502.6804                   19996502.9304
    808754.59447    652602.21046  21882385.1334                   21882385.6914
   2291940.01247   1800630.98845  22426770.2274                   22426772.4694
 11  9 21 20 38  0.0000000  0  7G02G09G12G10G04G17G28
   2538089.60248   2018721.36546  21724321.8054                   21724321.2894
   5866558.38747   4612217.95645  22150407.0864   22150408.5354
  33843837.59447  26411808.79444  24262561.4774                   24262564.6914
  15148412.47747  11842105.17545  22631808.5474                   22631811.7974
 -23953734.91448 -18628336.96646  19977912.6254                   19977912.8874
    733282.00848    593792.38546  21868023.7194                   21868023.4654
   2247999.75847   1766391.68745  22418408.9144                   22418411.5904
 11  9 21 20 38 30.0000000  0  7G02G09G12G10G04G17G28
   2363566.71148   1882729.58646  21691111.4534                   21691109.8284
   5760087.83247   4529253.88945  22130146.5554   22130148.2114
  33634954.87147  26249043.19544  24222812.2274                   24222815.9144
  14951536.43047  11688695.41344  22594343.7034                   22594346.5354
 -24050910.24248 -18704057.98746  19959420.9144                   19959421.3484
    657878.42647    535036.32346  21853674.6024                   21853674.8874
   2204408.95747   1732424.68845  22410114.3674                   22410115.6374
 11  9 21 20 39  0.0000000  0  7G02G09G12G10G04G17G28
   2189381.41448   1747000.86246  21657964.8364                   21657964.1484
   5654235.40247   4446771.45245  22110002.8524   22110005.4964
  33426086.47347  26086288.75044  24183065.6334                   24183067.6844
  14754887.46947  11535462.61344  22556922.5084                   22556926.2584
 -24147567.75448 -18779375.51946  19941027.6724                   19941027.6724
    582548.29748    476337.48746  21839339.3914                   21839340.1174
   2161170.76247   1698732.46845  22401885.8134                   22401887.6214
 11  9 21 20 39 30.0000000  0  7G02G09G12G10G04G17G28
   2015532.04348   1611533.92546  21624882.1804                   21624881.4804
   5548997.48447   4364767.87045  22089976.9774   22089979.0044
  33217232.15247  25923545.28444  24143322.1884                   24143324.3794
  14558466.59447  11382407.53045  22519544.5864                   22519548.9694
 -24243711.32448 -18854292.58246  19922732.2894                   19922732.3324
    507289.07847    417693.91646  21825018.4614                   21825019.0704
   2118282.00447   1665312.53745  22393724.2504                   22393727.2974
 11  9 21 20 40  0.0000000  0  7G02G09G12G10G04G17G28
   1842018.83647   1476328.91446  21591863.7114                   21591862.9734
   5444373.06347   4283242.33045  22070067.5084   22070069.6644
  33008393.76647  25760814.23044  24103581.0784                   24103583.2464
  14362276.94147  11229532.60645  22482211.0784                   22482214.8054
 -24339342.77048 -18928810.59346  19904533.8284                   19904534.1454
    432100.22347    359105.16046  21810710.4454                   21810710.8554
   2075741.83247   1632164.19745  22385629.2584                   22385632.5164
 11  9 21 20 40 30.0000000  0  7G02G09G12G10G04G17G28
   1668845.41047   1341388.66846  21558909.5474                   21558908.7894
   5340363.88347   4202196.20145  22050274.6804   22050277.4924
  32799575.68047  25598098.98144  24063844.4224                   24063845.4104
  14166324.64847  11076842.63444  22444922.6564                   22444925.4104
 -24434460.66448 -19002928.42146  19886433.5704                   19886433.6604
    356985.05947    300573.83746  21796416.2814                   21796417.3094
   2033552.07047   1599288.93145  22377600.9304                   22377604.2464
 11  9 21 20 41  0.0000000  0  7G02G09G12G10G04G17G28
   1496012.90248   1206714.07146  21526020.7584                   21526020.0634
   5236969.19147   4121628.88245  22030599.8204   22030601.9694
  32590780.44947  25435401.53143  24024111.4924                   24024112.3284
  13970613.24247  10924340.38544  22407679.6414                   22407682.9804
 -24529066.07448 -19076646.91746  19868430.7274                   19868430.8324
    281943.97347    242100.21046  21782136.6804                   21782137.4064
   1991712.16447   1566686.26945  22369639.3204                   22369642.5514
 11  9 21 20 41 30.0000000  0  7G02G09G12G10G04G17G28
   1323523.02048   1072306.45846  21493196.8834                   21493196.3244
   5134189.16447   4041540.53945  22011041.4694   22011043.4924
  32382010.97347  25272724.10944  23984384.3754                   23984385.2504
  13775147.79747  10772029.77845  22370483.8444                   22370486.9384
 -24623159.32848 -19149966.32646  19850525.2114                   19850525.7194
    206978.15648    183685.25746  21767871.2734                   21767871.5004
   1950223.01247   1534356.91144  22361743.8594                   22361746.2854
 11  9 21 20 42  0.0000000  0  7G02G09G12G10G04G17G28
   1151377.42648    938167.12046  21460438.3054                   21460437.9224
   5032023.21947   3961930.69845  21991599.7584   21991601.8134
  32173270.12947  25110069.00043  23944662.1484                   23944662.4574
  13579931.86347  10619913.60844  22333335.5784                   22333338.5394
 -24716741.32448 -19222887.36846  19832717.3134                   19832717.4104
    132088.25448    125329.43146  21753620.0164                   21753621.3164
   1909084.37947   1502300.68844  22353916.0164                   22353918.3554
 11  9 21 20 42 30.0000000  0  7G02G09G12G10G04G17G28
    979580.47748    804299.45646  21427746.3284                   21427745.8874
   4930474.15247   3882801.52645  21972275.3134   21972277.3634
  31964563.79347  24947440.81044  23904945.9304                   23904947.2234
  13384972.60247  10467997.42845  22296235.6884                   22296238.8164
 -24809809.61748 -19295408.11046  19815007.0704                   19815007.0984
     57278.34848     67035.94846  21739384.1174                   21739385.2734
   1868299.42647   1470520.06344  22346154.4614                   22346157.7504
 11  9 21 20 43  0.0000000  0  7G02G09G12G10G04G17G28
    808132.32048    670703.56546  21395121.2034                   21395120.5124
   4829540.77047   3804152.10445  21953068.6724   21953070.8484
  31755893.66047  24784840.78844  23865237.1804                   23865238.0634
  13190273.26247  10316283.81045  22259185.2734                   22259188.4614
 -24902366.19948 -19367530.11546  19797394.0004                   19797394.0164
    -17451.43748      8804.89346  21725163.6954                   21725164.8014
   1827866.88747   1439014.04244  22338461.3364                   22338464.0434
 11  9 21 20 43 30.0010000  0  7G02G09G12G10G04G17G28
   2212456.16448   1764981.96946  21662355.1954                   21662354.6024
   6304644.01647   4953583.16345  22233771.9614   22233773.3794
  33122684.00847  25849872.32844  24125328.3914                   24125329.9024
  14571259.50047  11392377.12045  22521978.4614                   22521981.1254
 -23418990.38348 -18211652.85446  20079671.0314                   20079671.1374
   1483321.16848   1178238.06046  22010751.0704                   22010751.7304
   3363208.31647   2635383.82945  22630627.0634                   22630629.8524
 11  9 21 20 44  0.0000000  0  7G02G09G12G10G04G17G28
   2041718.09448   1631939.40646  21629864.5314                   21629863.8244
   6204946.06347   4875896.45345  22214799.4534   22214802.0314
  32914103.43847  25687342.07544  24085637.2814                   24085639.5234
  14377101.01647  11241084.90545  22485030.9064                   22485034.7194
 -23510520.61748 -18282975.10646  20062253.5784                   20062253.2894
   1408758.84848   1120137.48446  21996562.1804                   21996563.4734
   3323484.09447   2604429.75345  22623068.1414                   22623070.8554
 11  9 21 20 44 30.0000000  0  7G02G09G12G10G04G17G28
   1871324.28948   1499165.09346  21597439.3204                   21597439.2974
   6105855.62147   4798683.08445  22195943.8594   22195945.6094
  32705556.85947  25524838.32844  24045952.4304                   24045954.2624
  14183204.62147  11089996.93945  22448133.7664                   22448137.3244
 -23601548.06648 -18353905.59047  20044931.7504                   20044931.5354
   1334273.05947   1062096.57046  21982388.3284                   21982389.1174
   3284107.38747   2573746.45844  22615574.6564                   22615577.2114
 11  9 21 20 45  0.0000000  0  7G02G09G12G10G04G17G28
   1701282.75448   1366665.28746  21565081.6094                   21565081.1054
   6007376.65647   4721946.19645  22177203.4224   22177206.2894
  32497055.33646  25362369.72644  24006275.5634                   24006278.6804
  13989582.51647  10939122.68945  22411288.3204                   22411292.0784
 -23692069.09048 -18424441.44346  20027705.7814                   20027706.2704
   1259868.46947   1004118.91246  21968229.8284                   21968230.5554
   3245080.52747   2543335.76844  22608148.8914                   22608150.3554
 11  9 21 20 45 30.0000000  0  7G02G09G12G10G04G17G28
   1531591.52048   1234438.43346  21532790.5234                   21532790.0004
   5909505.29747   4645682.78645  22158579.2814   22158581.2344
  32288598.02046  25199935.57744  23966607.1094                   23966610.2704
  13796235.09047  10788462.46045  22374495.9064                   22374498.6454
 -23782088.35548 -18494586.32747  20010575.9774                   20010575.9264
   1185542.88747    946202.82246  21954086.1174                   21954087.2774
   3206400.14547   2513195.06544  22600788.2664                   22600790.2304
 11  9 21 20 46  0.0000000  0  7G02G09G12G10G04G17G28
   1362251.13748   1102484.95646  21500566.0394                   21500565.7074
   5812239.88747   4569891.53545  22140070.3364   22140072.9884
  32080187.11346  25037537.52144  23926948.0704                   23926951.0084
  13603165.47347  10638018.74945  22337755.8984                   22337758.4384
 -23871607.45748 -18564341.46347  19993541.0084                   19993541.2584
   1111296.23847    888348.25046  21939957.5634                   21939958.5204
   3168065.14847   2483323.47744  22593493.5704                   22593496.1024
 11  9 21 20 46 30.0000000  0  7G02G09G12G10G04G17G28
   1193260.35948    970803.92046  21468408.2424                   21468407.7304
   5715577.53547   4494570.21045  22121676.2894   22121678.7114
  31871822.63746  24875175.72844  23887296.8754                   23887300.1334
  13410375.19947  10487792.65145  22301068.5314                   22301071.7424
 -23960629.67648 -18633709.43147  19976600.5704                   19976600.9454
   1037126.74647    830553.79946  21925843.6644                   21925844.3364
   3130072.97347   2453719.01145  22586264.1724                   22586266.2584
 11  9 21 20 47  0.0000000  0  7G02G09G12G10G04G17G28
   1024617.55948    839394.03446  21436316.7664                   21436315.8134
   5619514.92247   4419716.20345  22103396.0004   22103398.5514
  31663504.82046  24712850.27344  23847655.5634                   23847659.4264
  13217865.84447  10337785.48645  22264435.9224                   22264439.5904
 -24049158.86748 -18702693.20847  19959754.0394                   19959754.4304
    963032.83248    772818.24046  21911744.0704                   21911744.6804
   3092420.84047   2424379.54944  22579098.3754                   22579101.3484
 11  9 21 20 47 30.0000000  0  7G02G09G12G10G04G17G28
    856322.32448    708254.96246  21404290.9614                   21404290.1884
   5524049.71547   4345327.71145  22085229.9064   22085232.1954
  31455234.69946  24550561.98344  23808022.7194                   23808026.0864
  13025639.44947  10187998.78845  22227855.6254                   22227858.5434
 -24137197.80948 -18771294.98946  19943001.0634                   19943001.0354
    889013.45748    715140.76846  21897658.6804                   21897659.3834
   3055106.52747   2395303.30444  22571998.0394                   22572000.5084
 11  9 21 20 48  0.0000000  0  7G02G09G12G10G04G17G28
    688375.49648    577387.37946  21372331.5004                   21372330.8874
   5429180.36748   4271403.53545  22067176.4224   22067179.3014
  31247014.36346  24388312.46644  23768400.0634                   23768403.0044
  12833699.26247  10038435.14645  22191330.7344                   22191333.5274
 -24224748.03148 -18839515.93246  19926340.5474                   19926341.1884
    815069.15248    657521.78546  21883587.4454                   21883588.0744
   3018129.05947   2366489.49844  22564961.8984                   22564964.6764
 11  9 21 20 48 30.0000000  0  7G02G09G12G10G04G17G28
    520774.69548    446789.43846  21340438.4774                   21340437.1564
   5334902.61747   4197940.33445  22049236.1094   22049238.5044
  31038843.19546  24226101.28444  23728785.8204                   23728789.3634
  12642046.23847   9889095.23945  22154860.2424                   22154864.0394
 -24311814.00048 -18907359.54447  19909772.4454                   19909772.7344
    741197.10548    599959.10846  21869530.1724                   21869530.5234
   2981484.85547   2337935.43144  22557989.4304                   22557992.0664
 11  9 21 20 49  0.0000000  0  7G02G09G12G10G04G17G28
    353521.11348    316462.05446  21308610.8524                   21308610.4924
   5241215.76247   4124937.55745  22031407.9924   22031410.5164
  30830723.69147  24063930.31744  23689182.6884                   23689185.0824
  12450684.27047   9739982.12445  22118445.1174                   22118448.2664
 -24398397.06648 -18974826.86347  19893296.0474                   19893296.3874
    667398.11748    542453.37746  21855486.4694                   21855487.3094
   2945173.52347   2309640.70644  22551078.5164                   22551082.2774
 11  9 21 20 49 30.0000000  0  7G02G09G12G10G04G17G28
    186612.23848    186403.26746  21276849.1334                   21276848.4844
   5148115.14147   4052391.60545  22013691.7734   22013694.2854
  30622655.16846  23901799.10544  23649587.4924                   23649591.2704
  12259613.26647   9591095.73045  22082085.7664                   22082088.0594
 -24484501.80148 -19041921.45747  19876911.3134                   19876911.2504
    593669.75448    485002.65646  21841456.7734                   21841457.2194
   2909191.27747   2281602.44844  22544232.0944                   22544234.5044
 11  9 21 20 50  0.0000000  0  7G02G09G12G10G04G17G28
     20046.26248     56611.67146  21245152.6954                   21245152.0004
   5055597.34847   3980299.79545  21996086.1954   21996088.7584
  30414637.64547  23739707.63544  23610003.3754                   23610006.4574
  12068834.72347   9442437.24345  22045781.8984                   22045784.7424
 -24570132.09448 -19108646.34846  19860616.1644                   19860616.2344
    520009.89148    427605.31546  21827439.7664                   21827440.0594
   2873534.89547   2253818.08844  22537446.4304                   22537449.2704
 11  9 21 20 50 30.0000000  0  7G02G09G12G10G04G17G28
   -146179.23448    -72914.59746  21213520.9454                   21213520.1684
   4963657.51648   3908658.35845  21978590.6884   21978593.2274
  30206670.13747  23577655.13344  23570428.1484                   23570431.5704
  11878348.72347   9294006.73245  22009533.2114                   22009535.8634
 -24655292.58248 -19175005.17346  19844410.5234                   19844410.5704
    446415.59448    370259.06546  21813434.9844                   21813435.5664
   2838200.40647   2226284.53944  22530722.9304                   22530725.4494
 11  9 21 20 51  0.0000000  0  7G02G09G12G10G04G17G28
   1263362.12548   1025429.40746  21481747.6174                   21481746.4264
   6447717.66447   5065068.82845  22260997.4614   22261000.4654
  31574182.23847  24643249.09244  23830657.1174                   23830660.1914
  13263585.39847  10373412.02345  22273134.9614                   22273138.0084
 -23164562.14848 -18013397.04246  20128087.0784                   20128087.1804
   1948310.16048   1540566.48646  22099236.0394                   22099237.0394
   4378608.17647   3426602.08944  22823852.9614                   22823856.3984
 11  9 21 20 51 30.0000000  0  7G02G09G12G10G04G17G28
   1097818.86748    896434.73246  21450245.7114                   21450244.7774
   6356928.93048   4994324.33245  22243721.7194   22243723.6454
  31366321.11347  24481279.48244  23791103.0164                   23791105.5594
  13073694.27347  10225445.05745  22236999.7504                   22237002.1484
 -23248788.96148 -18079028.30946  20112059.2814                   20112059.3954
   1874848.02747   1483323.22045  22085257.0234                   22085257.9454
   4343913.81347   3399567.35744  22817250.6414                   22817254.9184
 11  9 21 20 52  0.0000000  0  7G02G09G12G10G04G17G28
    932614.58648    767704.22146  21418808.0944                   21418807.3674
   6266710.75047   4924024.40845  22226553.4614   22226555.6374
  31158513.75047  24319351.81644  23751557.8594                   23751561.3594
  12884102.93047  10077711.64345  22200921.8204                   22200923.9414
 -23332554.27048 -18144299.98346  20096119.1564                   20096119.5474
   1801449.45747   1426129.49145  22071289.3524                   22071290.2504
   4309535.59047   3372778.92944  22810708.6414                   22810713.3014
 11  9 21 20 52 30.0000000  0  7G02G09G12G10G04G17G28
    767745.91448    639235.20346  21387434.6094                   21387433.5664
   6177057.41047   4854164.64945  22209492.9614   22209495.0824
  30950758.10247  24157464.40645  23712024.0864                   23712027.1054
  12694810.92647   9930211.51345  22164900.3284                   22164903.4844
 -23415863.89848 -18209216.56846  20080266.1884                   20080266.2774
   1728110.94547   1368982.54745  22057333.9384                   22057334.5314
   4275468.25447   3346232.77244  22804226.6724                   22804229.8364
 11  9 21 20 53  0.0000000  0  7G02G09G12G10G04G17G28
    603215.05147    511029.43046  21356125.7194                   21356124.4964
   6087969.21147   4784745.24545  22192540.4144   22192542.8954
  30743058.35247  23995620.56744  23672499.3984                   23672502.8594
  12505822.88347   9782948.22445  22128937.0164                   22128940.1604
 -23498717.76248 -18273778.01546  20064499.6954                   20064499.6454
   1654834.69947   1311884.12846  22043390.1254                   22043390.6174
   4241712.51247   3319929.39844  22797803.3284                   22797806.2974
 11  9 21 20 53 30.0000000  0  7G02G09G12G10G04G17G28
    439017.79748    383083.60446  21324879.7664                   21324878.5474
   5999439.75447   4715761.22345  22175693.6174   22175695.8014
  30535412.53147  23833818.75444  23632985.2584                   23632988.7424
  12317137.50447   9635920.75845  22093031.1414                   22093034.6914
 -23581122.35948 -18337989.39346  20048818.5864                   20048818.5864
   1581616.17247   1254830.68146  22029456.8524                   22029457.8134
   4208263.03547   3293864.69944  22791437.9534                   22791441.1914
 11  9 21 20 54  0.0000000  0  7G02G09G12G10G04G17G28
    275155.20748    255398.55346  21293697.6954                   21293696.5784
   5911467.81648   4647211.62845  22158953.2194   22158955.5234
  30327823.21547  23672060.90844  23593482.7664                   23593485.5434
  12128759.10247   9489132.53945  22057183.8204                   22057186.6484
 -23663079.04348 -18401851.73346  20033222.4224                   20033222.6334
   1508456.29747   1197822.92646  22015535.1484                   22015536.1374
   4175119.02747   3268038.00244  22785131.2424                   22785134.9804
 11  9 21 20 54 30.0000000  0  7G02G09G12G10G04G17G28
    111625.37948    127972.78646  21262579.0164                   21262577.4224
   5824049.17647   4579093.17445  22142317.9614   22142320.3014
  30120289.87547  23510346.74444  23553990.6024                   23553993.4534
  11940688.15247   9342583.86145  22021395.3984                   22021398.4344
 -23744592.09848 -18465368.39947  20017711.3594                   20017711.5004
   1435353.25448   1140859.46945  22001623.9304                   22001624.7154
   4142277.18447   3242446.76544  22778881.5394                   22778885.3554
 11  9 21 20 55  0.0000000  0  7G02G09G12G10G04G17G28
    -51571.96148       806.11246  21231523.3054                   21231522.4884
   5737181.83647   4511404.30345  22125787.6484   22125789.7584
  29912814.36746  23348677.62244  23514509.0704                   23514511.8484
  11752927.71547   9196277.15845  21985665.2034                   21985667.8094
 -23825663.69548 -18528541.07946  20002283.5864                   20002283.8634
   1362306.87948   1083940.16146  21987723.6644                   21987724.4884
   4109735.59847   3217089.49744  22772689.4614                   22772694.0824
 11  9 21 20 55 30.0000000  0  7G02G09G12G10G04G17G28
   -214438.75448   -126103.00146  21200530.9844                   21200529.6254
   5650861.58647   4444141.74045  22109361.6024   22109363.3094
  29705397.02347  23187053.81844  23475038.4924                   23475041.7584
  11565478.57047   9050213.00145  21949995.2034                   21949997.8094
 -23906298.09848 -18591373.07847  19986939.5234                   19986939.4414
   1289314.44147   1027062.89845  21973833.6484                   21973834.4574
   4077491.08247   3191963.69944  22766553.4304                   22766557.4224
 11  9 21 20 56  0.0000000  0  7G02G09G12G10G04G17G28
   -376972.94948   -252752.95546  21169601.7344                   21169600.4064
   5565088.05147   4377305.17845  22093039.4454   22093041.1334
  29498041.42646  23025478.19344  23435580.0634                   23435583.2854
  11378345.52047   8904395.17945  21914384.6484                   21914387.6914
 -23986495.67648 -18653864.70647  19971678.2274                   19971678.7074
   1216378.37547    970229.54345  21959954.8524                   21959955.6644
   4045544.08647   3167069.74844  22760474.3444                   22760477.5944
 11  9 21 20 56 30.0000000  0  7G02G09G12G10G04G17G28
   -539178.67248   -379146.95346  21138734.7734                   21138733.6764
   5479855.19147   4310889.91945  22076820.1724   22076822.2934
  29290745.21947  22863948.78544  23396132.4694                   23396135.5274
  11191527.15247   8758822.54945  21878834.5784                   21878837.1454
 -24066262.75848 -18716020.88146  19956499.1804                   19956499.4304
   1143494.37947    913436.76645  21946085.0394                   21946086.4654
   4013888.94547   3142403.18944  22754450.5474                   22754454.9774
 11  9 21 20 57  0.0000000  0  7G02G09G12G10G04G17G28
   -701055.30948   -505284.51746  21107930.2734                   21107929.5274
   5395161.30947   4244894.65745  22060703.0634   22060704.9144
  29083511.27347  22702467.88244  23356697.7194                   23356700.1024
  11005027.46147   8613498.23145  21843344.6024                   21843347.6214
 -24145601.08248 -18777842.96046  19941401.3834                   19941401.6174
   1070663.40247    856685.29545  21932226.2814                   21932226.8874
   3982524.89147   3117963.44044  22748482.6334                   22748487.0234
 11  9 21 20 57 30.0000000  0  7G02G09G12G10G04G17G28
   -862603.94548   -631166.50946  21077188.8524                   21077187.7894
   5311003.31647   4179316.94245  22044689.1414   22044691.0864
  28876340.30947  22541036.07645  23317274.0944                   23317276.9454
  10818848.25847   8468423.64645  21807915.5634                   21807918.3524
 -24224513.47748 -18839333.14747  19926384.9454                   19926385.2234
    997884.52047    799974.42745  21918376.4454                   21918377.7074
   3951449.48047   3093748.63344  22742568.9384                   22742573.9064
 11  9 21 20 58  0.0000000  0  7G02G09G12G10G04G17G28
    551601.58648    470811.91246  21346303.0084                   21346301.9804
   6802802.21947   5341757.62745  22328569.4064   22328570.1994
  30244661.96947  23607260.85845  23577657.2424                   23577659.6954
  12208419.13747   9551206.26545  22072342.3984                   22072344.8714
 -22727579.43748 -17672891.03646  20211242.1484                   20211242.7034
   2500580.46947   1970906.28045  22204330.0084                   22204331.3164
   5496082.73047   4297358.75844  23036503.6254                   23036507.0314
 11  9 21 20 58 30.0000000  0  7G02G09G12G10G04G17G28
    390706.26648    345438.99346  21315686.0634                   21315684.7584
   6719706.16047   5277007.41445  22312756.0314   22312758.3714
  30037620.18447  23445929.71245  23538258.4694                   23538261.2664
  12022886.56647   9406635.54645  22037036.4924                   22037039.1524
 -22805650.30548 -17733725.49246  20196385.5864                   20196386.0084
   2427902.64147   1914274.17045  22190500.1564                   22190500.7424
   5465576.85947   4273587.74244  23030698.8134                   23030702.3674
 11  9 21 20 59  0.0000000  0  7G02G09G12G10G04G17G28
    230139.25048    220321.90546  21285130.4924                   21285129.4344
   6637139.16847   5212669.44945  22297044.4224   22297046.1524
  29830647.40247  23284652.35245  23498872.5864                   23498875.5204
  11837683.31647   9262321.44045  22001793.3674                   22001795.7194
 -22883302.24648 -17794233.50547  20181609.2034                   20181609.7384
   2355277.07847   1857682.76345  22176680.0314                   22176680.9924
   5435355.12147   4250038.11144  23024948.1174                   23024951.8914
 11  9 21 20 59 30.0000000  0  7G02G09G12G10G04G17G28
     69901.80948     95461.62146  21254638.7894                   21254637.4804
   6555100.34447   5148743.03745  22281433.2734   22281435.2774
  29623747.29347  23123431.59644  23459501.1804                   23459503.5314
  11652813.82047   9118267.40445  21966613.7274                   21966616.3164
 -22960536.19148 -17854415.82246  20166911.8364                   20166912.3014
   2282705.31647   1801133.26946  22162870.1954                   22162870.6524
   5405417.67647   4226710.05044  23019251.2344                   23019254.6174
 11  9 21 21  0  0.0000000  0  7G02G09G12G10G04G17G28
    -90009.30148    -29144.37846  21224208.6094                   21224207.4494
   6473584.17647   5085223.90345  22265920.8284   22265923.6484
  29416918.56647  22962266.47544  23420142.2584                   23420144.1764
  11468277.51247   8974472.98245  21931497.6644                   21931499.4844
 -23037357.55148 -17914276.62647  20152293.5554                   20152293.5354
   2210183.85547   1744622.97845  22149069.6254                   22149070.8874
   5375759.18047   4203599.30644  23013606.5164                   23013611.6994
 11  9 21 21  0 30.0000000  0  7G02G09G12G10G04G17G28
   -249592.96548   -153495.23146  21193840.7424                   21193839.5204
   6392589.61347   5022111.22145  22250507.9694   22250510.5124
  29210164.14547  22801159.24544  23380797.7974                   23380800.7584
  11284078.63347   8830941.49445  21896445.6024                   21896447.8284
 -23113767.53548 -17973816.87746  20137753.1094                   20137753.2774
   2137713.72747   1688152.68845  22135278.8054                   22135280.0634
   5346379.52047   4180705.82944  23008016.7814                   23008021.0784
 11  9 21 21  1  0.0000000  0  8G02G09G12G10G04G17G05G28
   -408849.25448   -277590.99746  21163534.8524                   21163533.8134
   6312114.48847   4959403.28745  22235194.4924   22235196.8914
  29003486.69547  22640111.95144  23341468.9844                   23341469.6764
  11100220.15247   8687675.26545  21861458.5944                   21861460.7664
 -23189768.16048 -18033038.15746  20123290.5164                   20123290.8324
   2065295.81347   1631723.08145  22121498.4384                   22121499.8754
  43767460.46155  34146025.52353  24683378.6024                   24683391.2234
   5317277.49647   4158028.70444  23002478.7584                   23002483.6884
 11  9 21 21  1 30.0000000  0  8G02G09G12G10G04G17G05G28
   -567791.20348   -401441.80246  21133289.7504                   21133288.2624
   6232143.14147   4897087.91145  22219976.1414   22219978.7934
  28796874.76647  22479115.78444  23302151.5164                   23302154.2584
  10916691.80547   8544666.29945  21826534.0314                   21826536.8054
 -23265374.94548 -18091952.55046  20108902.8594                   20108903.0864
   1992916.57047   1575323.60645  22107725.1174                   22107726.3594
  43549625.67646  33976284.41943  24641926.2814                   24641938.6724
   5288438.02747   4135556.19544  22996990.7664                   22996995.5594
 11  9 21 21  2  0.0000000  0  8G02G09G12G10G04G17G05G28
   -726422.55948   -525050.59946  21103103.0784                   21103101.6414
   6152669.85247   4835160.62245  22204852.9304   22204856.0084
  28590327.16847  22318169.69544  23262847.2034                   23262850.2344
  10733492.88747   8401914.00845  21791672.1644                   21791674.4224
 -23340593.81248 -18150564.67247  20094589.6334                   20094589.7974
   1920573.05947   1518951.98445  22093958.7274                   22093960.5744
  43331650.14846  33806433.73243  24600446.4224                   24600458.9304
   5259856.40646   4113284.57744  22991552.4384                   22991556.4224
 11  9 21 21  2 30.0000000  0  8G02G09G12G10G04G17G05G28
   -884738.90648   -648413.92946  21072976.3444                   21072975.1914
   6073696.35247   4773622.78245  22189824.7814   22189827.6524
  28383849.99647  22157278.47044  23223555.3364                   23223557.1054
  10550630.51648   8259423.95745  21756874.7974                   21756876.9264
 -23415422.52048 -18208872.77046  20080350.3754                   20080350.4104
   1848269.52747   1462611.53245  22080200.0704                   22080201.3594
  43113540.51646  33636478.54744  24558942.3914                   24558954.5944
   5231535.24247   4091215.93344  22986163.1724                   22986167.3094
 11  9 21 21  3  0.0000000  0  8G02G09G12G10G04G17G05G28
  -1042737.05148   -771529.32146  21042910.1174                   21042908.7894
   5995223.45747   4712475.00645  22174891.3284   22174895.1334
  28177448.75047  21996446.43845  23184278.4844                   23184280.6724
  10368110.98047   8117201.04845  21722142.3204                   21722144.8054
 -23489860.43748 -18266876.35546  20066185.3984                   20066185.3594
   1776009.32847   1406304.80845  22066449.6724                   22066450.5004
  42895302.66047  33466423.40544  24517413.0164                   24517423.6604
   5203476.02747   4069351.38944  22980823.9774                   22980827.7704
 11  9 21 21  3 30.0000000  0  8G02G09G12G10G04G17G05G28
  -1200413.96148   -894394.39246  21012904.9924                   21012903.5744
   5917251.93447   4651717.92645  22160054.4384   22160056.6844
  27971128.69547  21835677.68245  23145016.6954                   23145019.1564
  10185940.34848   7975250.01245  21687476.0864                   21687478.5474
 -23563906.51248 -18324574.61146  20052094.1564                   20052094.7704
   1703795.85247   1350034.52846  22052707.8054                   22052708.7034
  42676942.07846  33296272.68344  24475860.1024                   24475871.5394
   5175680.67247   4047692.46243  22975534.7974                   22975538.6094
 11  9 21 21  4  0.0000000  0  8G02G09G12G10G04G17G05G28
  -1357769.50848  -1017009.05646  20982961.2974                   20982959.8444
   5839779.41047   4591349.65945  22145311.9304   22145314.2194
  27764892.14147  21674973.97745  23105771.5634                   23105773.5434
  10004121.85948   7833573.38245  21652877.2034                   21652879.4064
 -23637562.69948 -18381969.05246  20038078.1334                   20038078.2734
   1631629.54747   1293800.98645  22038974.8054                   22038976.0554
  42458461.03147  33126028.12744  24434284.1024                   24434295.0664
   5148147.62146   4026237.92344  22970295.8594                   22970299.4384
 11  9 21 21  4 30.0000000  0  8G02G09G12G10G04G17G05G28
  -1514799.25848  -1139369.83946  20953079.5864                   20953078.3554
   5762807.93847   4531371.81645  22130664.5004   22130667.2584
  27558745.91447  21514340.69445  23066542.8204                   23066545.2584
   9822662.43847   7692176.52145  21618346.6094                   21618348.6294
 -23710827.23448 -18439058.32246  20024136.6954                   20024136.4224
   1559514.88347   1237607.67945  22025252.0234                   22025253.4264
  42239866.35246  32955695.05044  24392686.5394                   24392697.6564
   5120879.60547   4004989.90344  22965106.7814                   22965110.4494
 11  9 21 21  5  0.0000000  0  8G02G09G12G10G04G17G05G28
    -96076.90648    -33871.84746  21223053.5314                   21223052.1334
   7261758.94147   5699385.52045  22415905.6254   22415908.7544
  28928120.33647  22581385.79545  23327126.1174                   23327127.8794
  11216992.76248   8778667.80245  21883678.2974                   21883681.2424
 -22208278.45348 -17268241.09446  20310062.0704                   20310062.1094
   3062875.90648   2409057.78245  22311332.4924                   22311333.4024
  43596589.21946  34012882.17544  24650862.2504                   24650873.8054
   6669297.55147   5211549.09744  23259761.0004                   23259764.7664
 11  9 21 21  5 30.0000000  0  8G02G09G12G10G04G17G05G28
   -252456.59448   -155726.08846  21193295.4304                   21193294.0824
   7185781.28147   5640182.10145  22401447.8444   22401450.8364
  28722159.97747  22420897.30445  23287933.4614                   23287935.2384
  11036259.56347   8637836.82845  21849286.5474                   21849288.8634
 -22280767.19148 -17324725.84846  20296268.2894                   20296267.7734
   2990864.02047   2352944.56545  22297628.6024                   22297630.1684
  43377773.60546  33842376.90944  24609222.1564                   24609233.3594
   6642554.32447   5190710.02044  23254671.7664                   23254677.0704
 11  9 21 21  6  0.0000000  0  8G02G09G12G10G04G17G05G28
   -408509.50848   -277325.71146  21163599.3984                   21163597.7774
   7110298.73047   5581364.43445  22387084.0234   22387086.1294
  28516297.84447  22260485.32745  23248759.5944                   23248761.2624
  10855895.57047   8497293.56345  21814964.0314                   21814965.7304
 -22352869.57448 -17380909.53146  20282547.4924                   20282547.4344
   2918905.89147   2296873.24745  22283935.4384                   22283936.8984
  43158854.05146  33671790.70544  24567563.6094                   24567573.9064
   6616072.75447   5170074.80044  23249633.4224                   23249638.0864
 11  9 21 21  6 30.0000000  0  8G02G09G12G10G04G17G05G28
   -564232.82448   -398668.48346  21133966.2974                   21133964.8834
   7035311.67247   5522932.91645  22372814.3594   22372817.0004
  28310538.72747  22100153.63645  23209604.5864                   23209605.6134
  10675906.47747   8357042.42645  21780713.0234                   21780715.6764
 -22424585.21948 -17436791.87746  20268900.3204                   20268900.5354
   2847004.34047   2240846.01645  22270253.0864                   22270254.4924
  42939834.10246  33501126.29143  24525884.2584                   24525894.9304
   6589854.28547   5149644.62144  23244643.9694                   23244649.0984
 11  9 21 21  7  0.0000000  0  8G02G09G12G10G04G17G05G28
   -719630.27348   -519757.34846  21104395.0554                   21104393.4264
   6960814.05147   5464882.73445  22358638.0084   22358640.5394
  28104881.36747  21939901.20545  23170469.6644                   23170469.8554
  10496291.77048   8217083.00045  21746534.0704                   21746535.7734
 -22495919.93048 -17492377.37746  20255325.3524                   20255325.7464
   2775156.23447   2184860.41345  22256580.9454                   22256582.2624
  42720713.55146  33330383.49143  24484186.1414                   24484197.0514
   6563893.63347   5129415.33044  23239703.9454                   23239708.9534
 11  9 21 21  7 30.0000000  0  8G02G09G12G10G04G17G05G28
   -874699.68448   -640590.60746  21074886.2584                   21074884.7154
   6886805.46547   5407213.64945  22344554.7504   22344557.1844
  27899330.22347  21779731.58345  23131354.3754                   23131355.6024
  10317056.25048   8077419.04445  21712426.3834                   21712428.3794
 -22566873.57448 -17547665.95846  20241823.7034                   20241823.9414
   2703364.20747   2128918.51145  22242919.3984                   22242920.7464
  42501497.17246  33159566.00743  24442471.3054                   24442481.3404
   6538191.51647   5109387.48644  23234813.8364                   23234818.1024
 11  9 21 21  8  0.0000000  0  8G02G09G12G10G04G17G05G28
  -1029438.47748   -761166.23646  21045440.2734                   21045438.8554
   6813285.65247   5349925.40345  22330564.1724   22330567.2854
  27693890.48447  21619648.74745  23092259.2664                   23092261.2704
  10138205.46548   7938054.88345  21678392.4064                   21678394.1054
 -22637446.05148 -17602657.51046  20228394.0004                   20228394.4064
   2631631.33647   2073022.69345  22229269.1724                   22229270.1454
  42282190.12946  32988677.79543  24400738.2274                   24400747.8204
   6512748.87947   5089561.83144  23229971.5474                   23229977.3014
 11  9 21 21  8 30.0000000  0  8G02G09G12G10G04G17G05G28
  -1183848.41448   -881485.60646  21016057.0554                   21016055.1644
   6740251.15246   5293015.33745  22316665.8754   22316669.0274
  27488562.74247  21459653.18645  23053187.2114                   23053189.1254
   9959740.87948   7798991.68445  21644431.1414                   21644433.2664
 -22707641.12548 -17657354.99546  20215036.4384                   20215036.7814
   2559956.00847   2017171.71945  22215629.8444                   22215631.1454
  42062793.64846  32817719.89943  24358988.1884                   24358997.8404
   6487562.74247   5069936.00844  23225179.2504                   23225184.3794
 11  9 21 21  9  0.0000000  0  8G02G09G12G10G04G17G05G28
  -1337925.62948  -1001545.72646  20986737.2504                   20986735.6564
   6667702.81647   5236484.10945  22302860.8524   22302863.8284
  27283353.14147  21299749.71145  23014136.5084                   23014137.9454
   9781669.43848   7660234.81745  21610545.0234                   21610547.7234
 -22777457.25048 -17711757.18646  20201751.0944                   20201750.9264
   2488342.48047   1961368.90645  22202002.4924                   22202003.5904
  41843313.64546  32646696.85743  24317221.8914                   24317232.1374
   6462635.19147   5050511.72944  23220436.2344                   23220440.9224
 11  9 21 21  9 30.0000000  0  8G02G09G12G10G04G17G05G28
  -1491675.80548  -1121351.01046  20957479.6024                   20957478.1764
   6595632.73447   5180325.54445  22289146.0394   22289148.8834
  27078258.59047  21139935.86545  22975109.1414                   22975109.8134
   9603988.35247   7521782.11045  21576733.8834                   21576735.7344
 -22846902.05148 -17765870.03546  20188536.1174                   20188536.3954
   2416785.68047   1905610.29445  22188385.9304                   22188386.8444
  41623747.48446  32475606.72344  24275439.5864                   24275449.0704
   6437959.48046   5031283.64444  23215740.3754                   23215744.8754
 11  9 21 21 10  0.0000000  0  8G02G09G12G10G04G17G05G28
  -1645096.52748  -1240899.57546  20928284.4694                   20928282.9024
   6524040.95347   5124539.66445  22275522.9534   22275525.3834
  26873283.69147  20980215.26144  22936103.3204                   22936104.2234
   9426702.89548   7383637.68945  21542997.0704                   21542998.8484
 -22915975.45748 -17819693.48546  20175392.1174                   20175392.0434
   2345288.34047   1849898.00945  22174780.1254                   22174781.6884
  41404099.97746  32304453.26744  24233642.0004                   24233651.6214
   6413536.41846   5012252.45743  23211092.5864                   23211097.8094
 11  9 21 21 10 30.0000000  0  8G02G09G12G10G04G17G05G28
  -1798187.39848  -1360191.11746  20899152.5004                   20899150.6764
   6452925.32847   5069124.82845  22261990.1334   22261993.1954
  26668431.86347  20820590.52345  22897121.4304                   22897121.8634
   9249816.85547   7245804.51245  21509336.8674                   21509338.9184
 -22984679.10948 -17873228.81646  20162318.0164                   20162318.0744
   2273851.34447   1794232.74945  22161186.3134                   22161187.7384
  41184374.55146  32133239.05944  24191829.2974                   24191838.5474
   6389364.72746   4993417.15443  23206493.9694                   23206498.3134
 11  9 21 21 11  0.0000000  0  8G02G09G12G10G04G17G05G28
  -1950946.82848  -1479224.39246  20870083.2274                   20870081.4494
   6382284.98447   5014080.34145  22248547.8204   22248551.5784
  26463706.49247  20661064.38945  22858162.6884                   22858163.6724
   9073334.17648   7108285.63245  21475752.7344                   21475754.9804
 -23053013.89848 -17926476.72046  20149314.3134                   20149314.3404
   2202476.75847   1738616.11945  22147604.0944                   22147605.2154
  40964575.32446  31961967.32444  24150002.2194                   24150012.3204
   6365444.32046   4974777.60443  23201942.4534                   23201946.6524
 11  9 21 21 11 30.0010000  0  8G02G09G12G10G04G17G05G28
   -527956.37948   -370400.60546  21140868.9454                   21140867.7624
   7887535.93046   6187003.09445  22534987.4454   22534990.6094
  27834528.83247  21729237.71245  23119021.7974                   23119021.9614
  10472676.37947   8198682.26045  21742039.1564                   21742040.9144
 -21545563.39548 -16751839.98446  20436172.3914                   20436172.8054
   3706583.69947   2910647.43245  22433826.3754                   22433827.6484
  42320123.60946  33018239.02944  24407954.7194                   24407964.2384
   7917192.25846   6183931.60843  23497229.7734                   23497234.7154
 11  9 21 21 12  0.0000000  0  8G02G09G12G10G04G17G05G28
   -680050.14148   -488915.18446  21111926.5234                   21111924.7664
   7817838.75847   6132693.56145  22521724.5554   22521727.6134
  27630069.12547  21569918.54345  23080113.9304                   23080115.0434
  10297013.63347   8061802.29046  21708611.8364                   21708613.4924
 -21613166.47348 -16804517.72346  20423308.3524                   20423308.5474
   3635335.78947   2855129.52745  22420267.8134                   22420269.5664
  42100190.52346  32846862.99844  24366102.3524                   24366112.3634
   7893768.88746   6165679.42043  23492772.0234                   23492777.9534
 11  9 21 21 12 30.0000000  0  8G02G09G12G10G04G17G05G28
   -831816.11348   -607174.33846  21083046.6414                   21083044.8014
   7748608.50046   6078747.83745  22508551.0554   22508554.1414
  27425738.35247  21410699.85645  23041231.1414                   23041232.2304
  10121758.94947   7925240.28545  21675261.4844                   21675263.9024
 -21680407.63348 -16856913.46046  20410512.4384                   20410513.0554
   3564151.21947   2799660.96545  22406722.3834                   22406723.8284
  41880186.28146  32675431.53144  24324237.1094                   24324246.3164
   7870593.16846   6147620.16843  23488361.6414                   23488367.7774
 11  9 21 21 13  0.0000000  0  8G02G09G12G10G04G17G05G28
   -983251.52748   -725175.90246  21054229.2114                   21054227.3204
   7679842.31346   6025163.72045  22495464.8754   22495467.8094
  27221543.36747  21251586.97945  23002373.8444                   23002375.6994
   9946918.66047   7789001.19645  21641990.2664                   21641992.3794
 -21747289.65248 -16909029.34346  20397785.4454                   20397785.8284
   3493029.93847   2744241.72545  22393188.3984                   22393189.6134
  41660118.17246  32503950.27043  24282358.1884                   24282367.9104
   7847661.81346   6129751.32743  23483999.2274                   23484005.4924
 11  9 21 21 13 30.0000000  0  8G02G09G12G10G04G17G05G28
  -1134353.16848   -842917.40046  21025475.0084                   21025473.7114
   7611541.09047   5971941.94045  22482467.4384   22482470.4574
  27017490.09047  21092584.52245  22963544.2894                   22963545.3674
   9772499.12547   7653089.94745  21608799.7274                   21608801.8204
 -21813811.06248 -16960864.23946  20385126.5474                   20385126.9534
   3421976.18848   2688875.10445  22379667.1954                   22379668.3954
  41439992.80546  32332424.45643  24240469.3674                   24240478.6174
   7824976.85946   6112074.54243  23479682.2894                   23479687.9024
 11  9 21 21 14  0.0000000  0  8G02G09G12G10G04G17G05G28
  -1285122.63348   -960400.03546  20996784.8284                   20996782.9884
   7543701.12946   5919079.55945  22469559.2814   22469560.5354
  26813579.95747  20933693.63745  22924741.6724                   22924742.2934
   9598501.86747   7517507.76045  21575688.8054                   21575690.8164
 -21879975.39848 -17012420.88046  20372536.1484                   20372536.1374
   3350989.10547   2633560.42545  22366158.8984                   22366160.3594
  41219811.53546  32160855.02243  24198569.6884                   24198579.0784
   7802535.60546   6094587.59643  23475412.7424                   23475418.7504
 11  9 21 21 14 30.0000000  0  8G02G09G12G10G04G17G05G28
  -1435557.94148  -1077622.31046  20968157.7584                   20968155.8674
   7476321.62946   5866576.00445  22456736.7504   22456739.7274
  26609817.23847  20774917.57245  22885966.2584                   22885967.6484
   9424931.68048   7382258.33645  21542659.7504                   21542661.5904
 -21945782.69948 -17063699.31446  20360013.5234                   20360013.5824
   3280071.25447   2578299.66745  22352663.6954                   22352665.6294
  40999579.03146  31989245.68244  24156661.6094                   24156670.0554
   7780338.19946   6077290.67843  23471187.6884                   23471193.4924
 11  9 21 21 15  0.0000000  0  8G02G09G12G10G04G17G05G28
  -1585660.59448  -1194585.37146  20939594.4614                   20939592.7304
   7409398.53546   5814428.08945  22444001.3364   22444003.8484
  26406203.02347  20616257.27045  22847219.9454                   22847221.4064
   9251790.16447   7247342.95945  21509711.7194                   21509713.5234
 -22011236.69548 -17114702.45646  20347557.9774                   20347558.1024
   3209221.73847   2523092.18645  22339181.7974                   22339183.2194
  40779296.49646  31817597.39043  24114742.5554                   24114751.6134
   7758381.63746   6060181.48144  23467010.2974                   23467015.7734
 11  9 21 21 15 30.0000000  0  8G02G09G12G10G04G17G05G28
  -1735428.81248  -1311287.83346  20911094.3594                   20911092.4494
   7342931.25047   5762635.34745  22431353.4064   22431355.3134
  26202741.91847  20457716.25945  22808501.6414                   22808503.6604
   9079082.14847   7112765.37345  21476846.6884                   21476848.0744
 -22076337.62948 -17165430.47646  20335169.8444                   20335170.0784
   3138442.83247   2467939.71145  22325713.0164                   22325714.4264
  40558969.17247  31645914.11344  24072815.5084                   24072823.8244
   7736666.43846   6043260.24244  23462878.0234                   23462884.2074
 11  9 21 21 16  0.0000000  0  8G02G09G12G10G04G17G05G28
  -1884862.60548  -1427729.71846  20882657.9774                   20882656.2664
   7276917.00047   5711195.61745  22418791.6174   22418793.7894
  25999436.58647  20299296.63545  22769814.3204                   22769815.9654
   8906810.39847   6978527.71445  21444064.0474                   21444065.5514
 -22141087.85548 -17215885.20146  20322848.1954                   20322848.7034
   3067735.03547   2412842.67845  22312257.6094                   22312259.2894
  40338599.77047  31474198.08244  24030880.1724                   24030888.7704
   7715190.77046   6026525.71143  23458790.9694                   23458797.7424
 11  9 21 21 16 30.0000000  0  8G02G09G12G10G04G17G05G28
  -2033963.09848  -1543911.87146  20854285.3054                   20854283.6334
   7211352.18847   5660106.08945  22406314.9614   22406317.0554
  25796288.36347  20140999.42945  22731156.5234                   22731157.7304
   8734976.54747   6844631.27646  21411365.2664                   21411366.5594
 -22205490.64148 -17266069.21046  20310592.4844                   20310593.3094
   2997098.34047   2357801.00845  22298816.3754                   22298817.6414
  40118189.70347  31302450.36844  23988937.9844                   23988945.9534
   7693952.11346   6009975.81943  23454750.1884                   23454755.8914
 11  9 21 21 17  0.0000000  0  8G02G09G12G10G04G17G05G28
  -2182726.15248  -1659831.09846  20825976.4774                   20825974.5984
   7146238.02047   5609367.68944  22393923.9304   22393927.6844
  25593303.89547  19982829.79245  22692529.8834                   22692532.1914
   8563587.73447   6711081.62945  21378750.7894                   21378752.4064
 -22269543.84848 -17315980.82046  20298403.6954                   20298404.2734
   2926536.92647   2302818.02945  22285388.9534                   22285390.4414
  39897746.04747  31130676.42544  23946988.7114                   23946996.4304
   7672953.00846   5993612.62943  23450754.5164                   23450760.8834
 11  9 21 21 17 30.0000000  0  8G02G09G12G10G04G17G05G28
  -2331151.51248  -1775487.18646  20797732.1254                   20797730.0124
   7081572.72347   5558979.10744  22381618.4454   22381620.1334
  25390486.33647  19824790.23445  22653935.0004                   22653936.1604
   8392647.07448   6577881.17945  21346222.1484                   21346223.0204
 -22333249.20348 -17365621.38446  20286281.0234                   20286281.5594
   2856052.02347   2247894.67845  22271975.9614                   22271977.2504
  39677272.55947  30958879.29743  23905032.8204                   23905040.2814
   7652192.46146   5977435.29043  23446804.5784                   23446810.8794
 11  9 21 21 18  0.0000000  0  8G02G09G12G10G04G17G05G28
  -2479235.39148  -1890877.18546  20769552.5234                   20769550.5664
   7017357.23047   5508940.98344  22369398.6414   22369401.2584
  25187842.27747  19666885.85645  22615373.2664                   22615375.1254
   8222161.43447   6445035.30445  21313779.6174                   21313781.2624
 -22396605.13348 -17414989.66246  20274224.9774                   20274225.4774
   2785647.94547   2193034.29445  22258578.9844                   22258579.9144
  39456775.70747  30787063.85644  23863074.0084                   23863081.3674
   7631672.67646   5961445.55843  23442899.5474                   23442906.0984
 11  9 21 21 18 30.0000000  0  8G02G09G12G10G04G17G05G28
  -1051557.64148   -778400.97846  21041230.4384                   21041228.8714
   8529006.52347   6686849.47144  22657056.4534   22657057.4804   26560796.60547
  20736720.50545                  22876637.6334                   22876639.2274
   9627555.03147   7540147.27445  21581216.8984                   21581218.2584
 -20884196.04348 -16236489.09646  20562026.5864                   20562027.0554
   4290743.40647   3365835.88745  22544988.8594                   22544989.8984
  40811681.34447  31842834.90744  24120903.2894                   24120910.7274
   9186808.47746   7173239.39943  23738832.2194                   23738838.3244
 11  9 21 21 19  0.0000000  0  8G02G09G12G10G04G17G05G28
  -1198965.32448   -893264.06646  21013179.8984                   21013177.9304
   8465676.30547   6637501.16444  22645004.3444   22645006.3874   26358501.26647
  20579087.83945                  22838142.0944                   22838143.6094
   9457981.98048   7408012.50846  21548948.1174                   21548949.7774
 -20946865.57848 -16285322.51446  20550101.3594                   20550101.6954
   4220497.15247   3311098.50045  22531621.2114                   22531622.8674
  40591140.46547  31670985.24044  24078935.8134                   24078944.4304
   9166759.31346   7157616.43443  23735017.7034                   23735022.9884
 11  9 21 21 19 30.0000000  0  8G02G09G12G10G04G17G05G28
  -1346031.32448  -1007860.91746  20985194.3524                   20985192.3484
   8402788.59847   6588497.70544  22633037.8204   22633040.0594   26156387.98447
  20421597.09145                  22799680.6094                   22799682.7424
   9288872.64848   7276239.07846  21516767.9304                   21516769.5314
 -21009191.69148 -16333888.34046  20538240.9694                   20538241.1454
   4150334.70747   3256426.40945  22518270.0234                   22518271.9384
  40370585.43847  31499124.56544  24036965.5864                   24036973.2034
   9146946.65646   7142177.66743  23731247.3444                   23731253.4304
 11  9 21 21 20  0.0000000  0  8G02G09G12G10G04G17G05G28
  -1492756.81248  -1122192.42346  20957272.7974                   20957271.1254
   8340339.47747   6539835.98644  22621154.4224   22621156.2774   25954458.60947
  20264249.54345                  22761255.1564                   22761255.4614
   9120229.45348   7144828.86146  21484676.2034                   21484677.5434
 -21071177.31248 -16382188.84546  20526445.5314                   20526445.6684
   4080255.41847   3201819.10345  22504934.2114                   22504935.9024
  40150018.43847  31327254.52044  23994992.2114                   23994999.9844
   9127368.28946   7126921.52543  23727521.3134                   23727527.4064
 11  9 21 21 20 30.0000000  0  8G02G09G12G10G04G17G05G28
  -1639142.60548  -1236259.24046  20929416.7664                   20929415.2934
   8278325.59447   6491513.41244  22609353.2504   22609355.9804   25752714.39147
  20107046.35945                  22722864.1094                   22722865.4574
   8952053.92248   7013783.06546  21452673.5314                   21452675.2034
 -21132825.41048 -16430226.34846  20514713.8674                   20514714.6214
   4010258.96547   3147276.36645  22491614.1884                   22491616.4414
  39929441.44946  31155376.73044  23953016.8754                   23953025.8284
   9108021.56346   7111845.89743  23723840.9144                   23723846.6174
 11  9 21 21 21  0.0000000  0  8G02G09G12G10G04G17G05G28
  -1785185.79748  -1350059.08246  20901625.6414                   20901624.0514
   8216747.54747   6443530.44544  22597634.8134   22597637.5234   25551161.82447
  19949992.49145                  22684510.2584                   22684510.5554
   8784352.09448   6883106.38646  21420760.8594                   21420762.3054
 -21194135.08648 -16478000.13646  20503047.6414                   20503047.9734
   3940349.26247   3092801.21745  22478311.2664                   22478313.2894
  39708860.76647  30983496.05844  23911042.3204                   23911049.8634
   9088908.25846   7096952.07243  23720203.8834                   23720209.6954
 11  9 21 21 21 30.0000000  0  8G02G09G12G10G04G17G05G28
  -1930884.68448  -1463590.64746  20873899.8984                   20873898.2734
   8155604.22347   6395886.20345  22586000.7274   22586002.8204   25349805.12547
  19793091.22545                  22646193.2194                   22646193.8874
   8617128.64548   6752802.49346  21388938.8754                   21388940.4304
 -21255106.64548 -16525510.47846  20491444.9384                   20491445.3794
   3870528.89847   3038395.69745  22465024.7344                   22465026.6644
  39488281.40647  30811616.45744  23869067.0554                   23869074.0234
   9070028.09846   7082240.03243  23716610.9844                   23716617.7234
 11  9 21 21 22  0.0000000  0  8G02G09G12G10G04G17G05G28
  -2076233.59048  -1576849.48946  20846241.0474                   20846239.3324
   8094898.40647   6348582.87844  22574448.2504   22574451.3284   25148652.69947
  19636349.16045                  22607914.8754                   22607915.5474
   8450392.00848   6622877.91346  21357210.2974                   21357212.0824
 -21315736.40248 -16572754.46846  20479907.5474                   20479907.5204
   3800804.11747   2984064.64945  22451757.1954                   22451758.8954
  39267711.91847  30639744.48644  23827094.1724                   23827101.6844
   9051385.70746   7067713.21543  23713064.1334                   23713069.7234
 11  9 21 21 22 30.0000000  0  8G02G09G12G10G04G17G05G28
  -2221228.99648  -1689832.88446  20818649.0474                   20818647.7304
   8034631.20747   6301621.32645  22562979.8674   22562982.9024   24947711.12547
  19479771.39945                  22569676.8524                   22569677.9924
   8284148.59848   6493337.65746  21325574.8754                   21325576.3714
 -21376022.91048 -16619730.99746  20468435.5314                   20468435.7664
   3731179.60247   2929811.73145  22438507.8524                   22438509.9534
  39047158.63347  30467885.16044  23785123.1954                   23785130.9734
   9032982.89846   7053373.04843  23709562.4694                   23709568.6254
 11  9 21 21 23  0.0000000  0  8G02G09G12G10G04G17G05G28
  -2365867.41448  -1802538.10446  20791125.4064                   20791123.9574
   7974803.64147   6255002.36745  22551594.9454   22551598.1024   24746986.74247
  19323362.86145                  22531480.3364                   22531481.0274
   8118404.60548   6364186.57846  21294034.7274                   21294036.2624
 -21435964.65648 -16666438.86546  20457029.0554                   20457029.1604
   3661659.62147   2875640.26945  22425278.6484                   22425280.4144
  38826628.58647  30296043.89644  23743158.3444                   23743164.9384
   9014821.80946   7039221.24943  23706105.9614                   23706113.1604
 11  9 21 21 23 30.0000000  0  8G02G09G12G10G04G17G05G28
  -2510148.12948  -1914964.60946  20763669.9454                   20763668.0084
   7915413.82447   6208724.50445  22540293.9844   22540296.7934   24546483.44147
  19167126.61345                  22493326.0554                   22493326.2234
   7953164.01648   6235427.75246  21262590.4454                   21262592.1214
 -21495562.85548 -16712879.03746  20445687.8984                   20445688.2854
   3592245.70747   2821551.44345  22412069.2504                   22412071.4574
  38606125.78147  30124223.87444  23701196.9384                   23701205.1454
   8996901.90647   7025257.42243  23702697.0164                   23702702.9104
 11  9 21 21 24  0.0000000  0  8G02G09G12G10G04G17G05G28
  -2654065.08248  -2027107.65946  20736283.4144                   20736281.5044
   7856465.14847   6162790.38845  22529076.2274   22529078.9414   24346210.24247
  19011069.65545                  22455215.0234                   22455215.7274
   7788435.60248   6107068.01146  21231243.6954                   21231245.0394
 -21554813.06248 -16759048.04946  20434413.0634                   20434413.4024
   3522945.09447   2767550.89145  22398882.1174                   22398883.9614
  38385659.56647  29952432.40344  23659244.3754                   23659250.9454
   8979227.73846   7011484.98043  23699334.3204                   23699340.2424
 11  9 21 21 24 30.0000000  0  8G02G09G12G10G04G17G05G28
  -2797615.05548  -2138964.75646  20708966.8754                   20708964.8284
   7797958.28547   6117200.50245  22517943.4774   22517946.5164   24146172.69947
  18855196.32445                  22417149.2344                   22417149.4614
   7624225.36748   5979112.06846  21199995.5164                   21199996.9924
 -21613714.47348 -16804945.26546  20423204.1334                   20423204.6564
   3453761.52347   2713641.56045  22385717.7034                   22385718.9574
  38165236.21547  29780674.28344  23617298.6884                   23617304.7034
   8961800.90246   6997905.34843  23696017.1804                   23696024.1294
 11  9 21 21 25  0.0000000  0  8G02G09G12G10G04G17G05G28
  -2940795.28548  -2250533.73846  20681720.3054                   20681718.6374
   7739893.44947   6071955.09944  22506893.2734   22506896.8984   23946376.78947
  18699511.26345                  22379129.2504                   22379129.4654
   7460538.82448   5851564.17646  21168846.7814                   21168848.0004
 -21672266.05948 -16850569.91846  20412062.3364                   20412062.6254
   3384698.70347   2659826.31045  22372574.9144                   22372576.7304
  37944861.65247  29608954.18344  23575362.2734                   23575367.7344
   8944622.89147   6984519.51043  23692749.2734                   23692756.4104
 11  9 21 21 25 30.0000000  0  8G02G09G12G10G04G17G05G28
  -1508178.30148  -1134208.78546  20954338.3754                   20954336.3524
   9257692.58647   7254655.63545  22795721.2664   22795725.3204   25322255.17247
  19771624.36945                  22640950.0314                   22640950.2074
   8872807.25448   6952033.17046  21437592.4924                   21437594.1094
 -20155044.97748 -15668319.72946  20700779.6414                   20700780.3364
   4891183.17647   3833710.24345  22659249.2194                   22659250.8054
  39299969.29747  30664882.60544  23833230.1564                   23833236.3404
  10503115.60546   8198929.14843  23989320.5944                   23989327.6374
 11  9 21 21 26  0.0000000  0  8G02G09G12G10G04G17G05G28
  -1650615.38348  -1245198.68946  20927233.1644                   20927231.2114
   9200507.31647   7210095.57945  22784839.3984   22784842.7624   25122955.43447
  19616325.96745                  22603023.9774                   22603024.9184
   8710180.69548   6825311.24146  21406645.5314                   21406647.0124
 -20212899.06248 -15713400.87246  20689770.6954                   20689770.8524
   4822368.56647   3780088.41545  22646154.4064                   22646156.0554
  39079705.78147  30493248.99444  23791314.9614                   23791322.0864
  10486434.46946   8185930.50343  23986145.9844                   23986153.6334
